<?xml version="1.0" encoding="UTF-8" standalone="no" ?>
<gpx xmlns="http://www.topografix.com/GPX/1/1" xmlns:xsi="http://www.w3.org/2001/XMLSchema-instance" xsi:schemaLocation="http://www.topografix.com/GPX/1/1 http://www.topografix.com/GPX/1/1/gpx.xsd" version="1.1" creator="VisuGPX - https://www.visugpx.com">
  <metadata>
    <name>juvardeil</name>
    <desc><![CDATA[belle rando sentiers bocagé pas trop de goudron]]></desc>
  </metadata>
  <trk>
    <name><![CDATA[ONmove 200 - 29/11/2015]]></name>
    <trkseg>
      <trkpt lat="47.65551" lon="-0.49878">
        <ele>28</ele>
        <time>2015-11-29T08:11:05Z</time>
      </trkpt>
      <trkpt lat="47.65551" lon="-0.49878">
        <ele>28</ele>
        <time>2015-11-29T08:11:10Z</time>
      </trkpt>
      <trkpt lat="47.65552" lon="-0.49878">
        <ele>28</ele>
        <time>2015-11-29T08:11:15Z</time>
      </trkpt>
      <trkpt lat="47.65552" lon="-0.49878">
        <ele>28</ele>
        <time>2015-11-29T08:11:20Z</time>
      </trkpt>
      <trkpt lat="47.65552" lon="-0.49878">
        <ele>28</ele>
        <time>2015-11-29T08:11:25Z</time>
      </trkpt>
      <trkpt lat="47.65552" lon="-0.49878">
        <ele>28</ele>
        <time>2015-11-29T08:11:30Z</time>
      </trkpt>
      <trkpt lat="47.65552" lon="-0.49878">
        <ele>28</ele>
        <time>2015-11-29T08:11:35Z</time>
      </trkpt>
      <trkpt lat="47.65551" lon="-0.49878">
        <ele>28</ele>
        <time>2015-11-29T08:11:40Z</time>
      </trkpt>
      <trkpt lat="47.65551" lon="-0.49878">
        <ele>28</ele>
        <time>2015-11-29T08:11:45Z</time>
      </trkpt>
      <trkpt lat="47.65551" lon="-0.49878">
        <ele>28</ele>
        <time>2015-11-29T08:11:50Z</time>
      </trkpt>
      <trkpt lat="47.65551" lon="-0.49877">
        <ele>28</ele>
        <time>2015-11-29T08:11:55Z</time>
      </trkpt>
      <trkpt lat="47.6555" lon="-0.49876">
        <ele>28</ele>
        <time>2015-11-29T08:12:00Z</time>
      </trkpt>
      <trkpt lat="47.65551" lon="-0.49875">
        <ele>28</ele>
        <time>2015-11-29T08:12:05Z</time>
      </trkpt>
      <trkpt lat="47.65551" lon="-0.49873">
        <ele>28</ele>
        <time>2015-11-29T08:12:10Z</time>
      </trkpt>
      <trkpt lat="47.65552" lon="-0.49872">
        <ele>28</ele>
        <time>2015-11-29T08:12:15Z</time>
      </trkpt>
      <trkpt lat="47.65552" lon="-0.49871">
        <ele>28</ele>
        <time>2015-11-29T08:12:20Z</time>
      </trkpt>
      <trkpt lat="47.65551" lon="-0.49866">
        <ele>28</ele>
        <time>2015-11-29T08:12:25Z</time>
      </trkpt>
      <trkpt lat="47.6555" lon="-0.49859">
        <ele>28</ele>
        <time>2015-11-29T08:12:30Z</time>
      </trkpt>
      <trkpt lat="47.65548" lon="-0.49852">
        <ele>28</ele>
        <time>2015-11-29T08:12:35Z</time>
      </trkpt>
      <trkpt lat="47.65546" lon="-0.49845">
        <ele>28</ele>
        <time>2015-11-29T08:12:40Z</time>
      </trkpt>
      <trkpt lat="47.65544" lon="-0.49838">
        <ele>28</ele>
        <time>2015-11-29T08:12:45Z</time>
      </trkpt>
      <trkpt lat="47.65543" lon="-0.49833">
        <ele>28</ele>
        <time>2015-11-29T08:12:50Z</time>
      </trkpt>
      <trkpt lat="47.65543" lon="-0.4983">
        <ele>28</ele>
        <time>2015-11-29T08:12:55Z</time>
      </trkpt>
      <trkpt lat="47.65543" lon="-0.49828">
        <ele>28</ele>
        <time>2015-11-29T08:13:00Z</time>
      </trkpt>
      <trkpt lat="47.65541" lon="-0.49828">
        <ele>28</ele>
        <time>2015-11-29T08:13:05Z</time>
      </trkpt>
      <trkpt lat="47.6554" lon="-0.49827">
        <ele>28</ele>
        <time>2015-11-29T08:13:10Z</time>
      </trkpt>
      <trkpt lat="47.6554" lon="-0.49824">
        <ele>28</ele>
        <time>2015-11-29T08:13:15Z</time>
      </trkpt>
      <trkpt lat="47.65542" lon="-0.49817">
        <ele>28</ele>
        <time>2015-11-29T08:13:20Z</time>
      </trkpt>
      <trkpt lat="47.65544" lon="-0.4981">
        <ele>28</ele>
        <time>2015-11-29T08:13:25Z</time>
      </trkpt>
      <trkpt lat="47.65546" lon="-0.49802">
        <ele>28</ele>
        <time>2015-11-29T08:13:30Z</time>
      </trkpt>
      <trkpt lat="47.65549" lon="-0.49795">
        <ele>28</ele>
        <time>2015-11-29T08:13:35Z</time>
      </trkpt>
      <trkpt lat="47.65552" lon="-0.49788">
        <ele>28</ele>
        <time>2015-11-29T08:13:40Z</time>
      </trkpt>
      <trkpt lat="47.65555" lon="-0.49783">
        <ele>28</ele>
        <time>2015-11-29T08:13:45Z</time>
      </trkpt>
      <trkpt lat="47.65556" lon="-0.49778">
        <ele>28</ele>
        <time>2015-11-29T08:13:50Z</time>
      </trkpt>
      <trkpt lat="47.65558" lon="-0.49772">
        <ele>28</ele>
        <time>2015-11-29T08:13:55Z</time>
      </trkpt>
      <trkpt lat="47.65561" lon="-0.49768">
        <ele>28</ele>
        <time>2015-11-29T08:14:00Z</time>
      </trkpt>
      <trkpt lat="47.65564" lon="-0.49765">
        <ele>28</ele>
        <time>2015-11-29T08:14:05Z</time>
      </trkpt>
      <trkpt lat="47.65567" lon="-0.49761">
        <ele>28</ele>
        <time>2015-11-29T08:14:10Z</time>
      </trkpt>
      <trkpt lat="47.6557" lon="-0.49757">
        <ele>28</ele>
        <time>2015-11-29T08:14:15Z</time>
      </trkpt>
      <trkpt lat="47.65574" lon="-0.49753">
        <ele>27</ele>
        <time>2015-11-29T08:14:20Z</time>
      </trkpt>
      <trkpt lat="47.65575" lon="-0.49751">
        <ele>27</ele>
        <time>2015-11-29T08:14:25Z</time>
      </trkpt>
      <trkpt lat="47.65579" lon="-0.49746">
        <ele>27</ele>
        <time>2015-11-29T08:14:30Z</time>
      </trkpt>
      <trkpt lat="47.65583" lon="-0.49739">
        <ele>27</ele>
        <time>2015-11-29T08:14:35Z</time>
      </trkpt>
      <trkpt lat="47.65581" lon="-0.49734">
        <ele>27</ele>
        <time>2015-11-29T08:14:40Z</time>
      </trkpt>
      <trkpt lat="47.65581" lon="-0.49728">
        <ele>27</ele>
        <time>2015-11-29T08:14:45Z</time>
      </trkpt>
      <trkpt lat="47.6558" lon="-0.49722">
        <ele>27</ele>
        <time>2015-11-29T08:14:50Z</time>
      </trkpt>
      <trkpt lat="47.65583" lon="-0.49715">
        <ele>26</ele>
        <time>2015-11-29T08:14:55Z</time>
      </trkpt>
      <trkpt lat="47.65586" lon="-0.49709">
        <ele>26</ele>
        <time>2015-11-29T08:15:00Z</time>
      </trkpt>
      <trkpt lat="47.65585" lon="-0.49702">
        <ele>26</ele>
        <time>2015-11-29T08:15:05Z</time>
      </trkpt>
      <trkpt lat="47.65587" lon="-0.49696">
        <ele>26</ele>
        <time>2015-11-29T08:15:10Z</time>
      </trkpt>
      <trkpt lat="47.65589" lon="-0.49695">
        <ele>25</ele>
        <time>2015-11-29T08:15:15Z</time>
      </trkpt>
      <trkpt lat="47.65592" lon="-0.49691">
        <ele>25</ele>
        <time>2015-11-29T08:15:20Z</time>
      </trkpt>
      <trkpt lat="47.65591" lon="-0.49689">
        <ele>25</ele>
        <time>2015-11-29T08:15:25Z</time>
      </trkpt>
      <trkpt lat="47.65589" lon="-0.49688">
        <ele>25</ele>
        <time>2015-11-29T08:15:30Z</time>
      </trkpt>
      <trkpt lat="47.65585" lon="-0.49684">
        <ele>25</ele>
        <time>2015-11-29T08:15:35Z</time>
      </trkpt>
      <trkpt lat="47.65581" lon="-0.49682">
        <ele>25</ele>
        <time>2015-11-29T08:15:40Z</time>
      </trkpt>
      <trkpt lat="47.65579" lon="-0.49681">
        <ele>25</ele>
        <time>2015-11-29T08:15:45Z</time>
      </trkpt>
      <trkpt lat="47.65577" lon="-0.49677">
        <ele>25</ele>
        <time>2015-11-29T08:15:50Z</time>
      </trkpt>
      <trkpt lat="47.65574" lon="-0.49674">
        <ele>25</ele>
        <time>2015-11-29T08:15:55Z</time>
      </trkpt>
      <trkpt lat="47.6557" lon="-0.49669">
        <ele>25</ele>
        <time>2015-11-29T08:16:00Z</time>
      </trkpt>
      <trkpt lat="47.65566" lon="-0.49666">
        <ele>25</ele>
        <time>2015-11-29T08:16:05Z</time>
      </trkpt>
      <trkpt lat="47.65561" lon="-0.49667">
        <ele>25</ele>
        <time>2015-11-29T08:16:10Z</time>
      </trkpt>
      <trkpt lat="47.65558" lon="-0.49665">
        <ele>25</ele>
        <time>2015-11-29T08:16:15Z</time>
      </trkpt>
      <trkpt lat="47.65552" lon="-0.49653">
        <ele>25</ele>
        <time>2015-11-29T08:16:20Z</time>
      </trkpt>
      <trkpt lat="47.65544" lon="-0.49648">
        <ele>25</ele>
        <time>2015-11-29T08:16:25Z</time>
      </trkpt>
      <trkpt lat="47.65543" lon="-0.49642">
        <ele>25</ele>
        <time>2015-11-29T08:16:30Z</time>
      </trkpt>
      <trkpt lat="47.65545" lon="-0.49634">
        <ele>25</ele>
        <time>2015-11-29T08:16:35Z</time>
      </trkpt>
      <trkpt lat="47.65546" lon="-0.49627">
        <ele>24</ele>
        <time>2015-11-29T08:16:40Z</time>
      </trkpt>
      <trkpt lat="47.6555" lon="-0.49622">
        <ele>24</ele>
        <time>2015-11-29T08:16:45Z</time>
      </trkpt>
      <trkpt lat="47.65554" lon="-0.49618">
        <ele>24</ele>
        <time>2015-11-29T08:16:50Z</time>
      </trkpt>
      <trkpt lat="47.65557" lon="-0.49615">
        <ele>23</ele>
        <time>2015-11-29T08:16:55Z</time>
      </trkpt>
      <trkpt lat="47.65561" lon="-0.49611">
        <ele>23</ele>
        <time>2015-11-29T08:17:00Z</time>
      </trkpt>
      <trkpt lat="47.65563" lon="-0.49607">
        <ele>23</ele>
        <time>2015-11-29T08:17:05Z</time>
      </trkpt>
      <trkpt lat="47.65564" lon="-0.49605">
        <ele>23</ele>
        <time>2015-11-29T08:17:10Z</time>
      </trkpt>
      <trkpt lat="47.65565" lon="-0.49603">
        <ele>22</ele>
        <time>2015-11-29T08:17:15Z</time>
      </trkpt>
      <trkpt lat="47.65568" lon="-0.49598">
        <ele>22</ele>
        <time>2015-11-29T08:17:20Z</time>
      </trkpt>
      <trkpt lat="47.65571" lon="-0.49593">
        <ele>22</ele>
        <time>2015-11-29T08:17:25Z</time>
      </trkpt>
      <trkpt lat="47.65572" lon="-0.4959">
        <ele>22</ele>
        <time>2015-11-29T08:17:30Z</time>
      </trkpt>
      <trkpt lat="47.65575" lon="-0.49585">
        <ele>21</ele>
        <time>2015-11-29T08:17:35Z</time>
      </trkpt>
      <trkpt lat="47.65572" lon="-0.49582">
        <ele>21</ele>
        <time>2015-11-29T08:17:40Z</time>
      </trkpt>
      <trkpt lat="47.65567" lon="-0.49577">
        <ele>21</ele>
        <time>2015-11-29T08:17:45Z</time>
      </trkpt>
      <trkpt lat="47.65562" lon="-0.49573">
        <ele>21</ele>
        <time>2015-11-29T08:17:50Z</time>
      </trkpt>
      <trkpt lat="47.65558" lon="-0.4957">
        <ele>22</ele>
        <time>2015-11-29T08:17:55Z</time>
      </trkpt>
      <trkpt lat="47.65552" lon="-0.49565">
        <ele>22</ele>
        <time>2015-11-29T08:18:00Z</time>
      </trkpt>
      <trkpt lat="47.65548" lon="-0.4956">
        <ele>22</ele>
        <time>2015-11-29T08:18:05Z</time>
      </trkpt>
      <trkpt lat="47.65543" lon="-0.49557">
        <ele>22</ele>
        <time>2015-11-29T08:18:10Z</time>
      </trkpt>
      <trkpt lat="47.65537" lon="-0.49553">
        <ele>22</ele>
        <time>2015-11-29T08:18:15Z</time>
      </trkpt>
      <trkpt lat="47.65531" lon="-0.49549">
        <ele>22</ele>
        <time>2015-11-29T08:18:20Z</time>
      </trkpt>
      <trkpt lat="47.65525" lon="-0.49545">
        <ele>22</ele>
        <time>2015-11-29T08:18:25Z</time>
      </trkpt>
      <trkpt lat="47.65521" lon="-0.49541">
        <ele>22</ele>
        <time>2015-11-29T08:18:30Z</time>
      </trkpt>
      <trkpt lat="47.65516" lon="-0.49536">
        <ele>22</ele>
        <time>2015-11-29T08:18:35Z</time>
      </trkpt>
      <trkpt lat="47.65511" lon="-0.49532">
        <ele>22</ele>
        <time>2015-11-29T08:18:40Z</time>
      </trkpt>
      <trkpt lat="47.65506" lon="-0.49528">
        <ele>22</ele>
        <time>2015-11-29T08:18:45Z</time>
      </trkpt>
      <trkpt lat="47.65501" lon="-0.49525">
        <ele>22</ele>
        <time>2015-11-29T08:18:50Z</time>
      </trkpt>
      <trkpt lat="47.65495" lon="-0.49524">
        <ele>22</ele>
        <time>2015-11-29T08:18:55Z</time>
      </trkpt>
      <trkpt lat="47.65489" lon="-0.49519">
        <ele>22</ele>
        <time>2015-11-29T08:19:00Z</time>
      </trkpt>
      <trkpt lat="47.65485" lon="-0.49513">
        <ele>22</ele>
        <time>2015-11-29T08:19:05Z</time>
      </trkpt>
      <trkpt lat="47.65481" lon="-0.49509">
        <ele>22</ele>
        <time>2015-11-29T08:19:10Z</time>
      </trkpt>
      <trkpt lat="47.65477" lon="-0.49504">
        <ele>22</ele>
        <time>2015-11-29T08:19:15Z</time>
      </trkpt>
      <trkpt lat="47.65474" lon="-0.495">
        <ele>22</ele>
        <time>2015-11-29T08:19:20Z</time>
      </trkpt>
      <trkpt lat="47.65468" lon="-0.49493">
        <ele>22</ele>
        <time>2015-11-29T08:19:25Z</time>
      </trkpt>
      <trkpt lat="47.65464" lon="-0.49486">
        <ele>22</ele>
        <time>2015-11-29T08:19:30Z</time>
      </trkpt>
      <trkpt lat="47.6546" lon="-0.4948">
        <ele>22</ele>
        <time>2015-11-29T08:19:35Z</time>
      </trkpt>
      <trkpt lat="47.65456" lon="-0.49473">
        <ele>22</ele>
        <time>2015-11-29T08:19:40Z</time>
      </trkpt>
      <trkpt lat="47.65452" lon="-0.49467">
        <ele>21</ele>
        <time>2015-11-29T08:19:45Z</time>
      </trkpt>
      <trkpt lat="47.65448" lon="-0.49462">
        <ele>21</ele>
        <time>2015-11-29T08:19:50Z</time>
      </trkpt>
      <trkpt lat="47.65442" lon="-0.49455">
        <ele>21</ele>
        <time>2015-11-29T08:19:55Z</time>
      </trkpt>
      <trkpt lat="47.65438" lon="-0.4945">
        <ele>21</ele>
        <time>2015-11-29T08:20:00Z</time>
      </trkpt>
      <trkpt lat="47.65431" lon="-0.49444">
        <ele>21</ele>
        <time>2015-11-29T08:20:05Z</time>
      </trkpt>
      <trkpt lat="47.65426" lon="-0.49439">
        <ele>21</ele>
        <time>2015-11-29T08:20:10Z</time>
      </trkpt>
      <trkpt lat="47.6542" lon="-0.49435">
        <ele>21</ele>
        <time>2015-11-29T08:20:15Z</time>
      </trkpt>
      <trkpt lat="47.65414" lon="-0.4943">
        <ele>21</ele>
        <time>2015-11-29T08:20:20Z</time>
      </trkpt>
      <trkpt lat="47.65409" lon="-0.49425">
        <ele>21</ele>
        <time>2015-11-29T08:20:25Z</time>
      </trkpt>
      <trkpt lat="47.65403" lon="-0.4942">
        <ele>21</ele>
        <time>2015-11-29T08:20:30Z</time>
      </trkpt>
      <trkpt lat="47.65397" lon="-0.49415">
        <ele>21</ele>
        <time>2015-11-29T08:20:35Z</time>
      </trkpt>
      <trkpt lat="47.65391" lon="-0.49411">
        <ele>21</ele>
        <time>2015-11-29T08:20:40Z</time>
      </trkpt>
      <trkpt lat="47.65386" lon="-0.49404">
        <ele>21</ele>
        <time>2015-11-29T08:20:45Z</time>
      </trkpt>
      <trkpt lat="47.65383" lon="-0.49396">
        <ele>21</ele>
        <time>2015-11-29T08:20:50Z</time>
      </trkpt>
      <trkpt lat="47.6538" lon="-0.4939">
        <ele>21</ele>
        <time>2015-11-29T08:20:55Z</time>
      </trkpt>
      <trkpt lat="47.65376" lon="-0.49384">
        <ele>21</ele>
        <time>2015-11-29T08:21:00Z</time>
      </trkpt>
      <trkpt lat="47.65374" lon="-0.49378">
        <ele>20</ele>
        <time>2015-11-29T08:21:05Z</time>
      </trkpt>
      <trkpt lat="47.65371" lon="-0.49371">
        <ele>20</ele>
        <time>2015-11-29T08:21:10Z</time>
      </trkpt>
      <trkpt lat="47.65367" lon="-0.49364">
        <ele>20</ele>
        <time>2015-11-29T08:21:15Z</time>
      </trkpt>
      <trkpt lat="47.65364" lon="-0.49358">
        <ele>20</ele>
        <time>2015-11-29T08:21:20Z</time>
      </trkpt>
      <trkpt lat="47.65361" lon="-0.49351">
        <ele>20</ele>
        <time>2015-11-29T08:21:25Z</time>
      </trkpt>
      <trkpt lat="47.65358" lon="-0.49344">
        <ele>20</ele>
        <time>2015-11-29T08:21:30Z</time>
      </trkpt>
      <trkpt lat="47.65356" lon="-0.49335">
        <ele>20</ele>
        <time>2015-11-29T08:21:35Z</time>
      </trkpt>
      <trkpt lat="47.65353" lon="-0.49326">
        <ele>20</ele>
        <time>2015-11-29T08:21:40Z</time>
      </trkpt>
      <trkpt lat="47.65351" lon="-0.49318">
        <ele>19</ele>
        <time>2015-11-29T08:21:45Z</time>
      </trkpt>
      <trkpt lat="47.6535" lon="-0.4931">
        <ele>19</ele>
        <time>2015-11-29T08:21:50Z</time>
      </trkpt>
      <trkpt lat="47.65348" lon="-0.49302">
        <ele>19</ele>
        <time>2015-11-29T08:21:55Z</time>
      </trkpt>
      <trkpt lat="47.65347" lon="-0.49294">
        <ele>19</ele>
        <time>2015-11-29T08:22:00Z</time>
      </trkpt>
      <trkpt lat="47.65346" lon="-0.49286">
        <ele>19</ele>
        <time>2015-11-29T08:22:05Z</time>
      </trkpt>
      <trkpt lat="47.65346" lon="-0.49279">
        <ele>19</ele>
        <time>2015-11-29T08:22:10Z</time>
      </trkpt>
      <trkpt lat="47.65345" lon="-0.49269">
        <ele>19</ele>
        <time>2015-11-29T08:22:15Z</time>
      </trkpt>
      <trkpt lat="47.65345" lon="-0.4926">
        <ele>19</ele>
        <time>2015-11-29T08:22:20Z</time>
      </trkpt>
      <trkpt lat="47.65343" lon="-0.4925">
        <ele>19</ele>
        <time>2015-11-29T08:22:25Z</time>
      </trkpt>
      <trkpt lat="47.65342" lon="-0.49242">
        <ele>18</ele>
        <time>2015-11-29T08:22:30Z</time>
      </trkpt>
      <trkpt lat="47.6534" lon="-0.49232">
        <ele>18</ele>
        <time>2015-11-29T08:22:35Z</time>
      </trkpt>
      <trkpt lat="47.65337" lon="-0.49225">
        <ele>18</ele>
        <time>2015-11-29T08:22:40Z</time>
      </trkpt>
      <trkpt lat="47.65334" lon="-0.49214">
        <ele>19</ele>
        <time>2015-11-29T08:22:45Z</time>
      </trkpt>
      <trkpt lat="47.65332" lon="-0.49207">
        <ele>19</ele>
        <time>2015-11-29T08:22:50Z</time>
      </trkpt>
      <trkpt lat="47.65329" lon="-0.49196">
        <ele>19</ele>
        <time>2015-11-29T08:22:55Z</time>
      </trkpt>
      <trkpt lat="47.65327" lon="-0.49186">
        <ele>19</ele>
        <time>2015-11-29T08:23:00Z</time>
      </trkpt>
      <trkpt lat="47.65325" lon="-0.49177">
        <ele>19</ele>
        <time>2015-11-29T08:23:05Z</time>
      </trkpt>
      <trkpt lat="47.65323" lon="-0.49168">
        <ele>19</ele>
        <time>2015-11-29T08:23:10Z</time>
      </trkpt>
      <trkpt lat="47.65322" lon="-0.49161">
        <ele>19</ele>
        <time>2015-11-29T08:23:15Z</time>
      </trkpt>
      <trkpt lat="47.65321" lon="-0.4915">
        <ele>19</ele>
        <time>2015-11-29T08:23:20Z</time>
      </trkpt>
      <trkpt lat="47.6532" lon="-0.49143">
        <ele>19</ele>
        <time>2015-11-29T08:23:25Z</time>
      </trkpt>
      <trkpt lat="47.65317" lon="-0.49133">
        <ele>19</ele>
        <time>2015-11-29T08:23:30Z</time>
      </trkpt>
      <trkpt lat="47.65315" lon="-0.49124">
        <ele>19</ele>
        <time>2015-11-29T08:23:35Z</time>
      </trkpt>
      <trkpt lat="47.65313" lon="-0.49117">
        <ele>19</ele>
        <time>2015-11-29T08:23:40Z</time>
      </trkpt>
      <trkpt lat="47.65308" lon="-0.4911">
        <ele>19</ele>
        <time>2015-11-29T08:23:45Z</time>
      </trkpt>
      <trkpt lat="47.65302" lon="-0.49111">
        <ele>19</ele>
        <time>2015-11-29T08:23:50Z</time>
      </trkpt>
      <trkpt lat="47.65295" lon="-0.49113">
        <ele>19</ele>
        <time>2015-11-29T08:23:55Z</time>
      </trkpt>
      <trkpt lat="47.65288" lon="-0.49117">
        <ele>19</ele>
        <time>2015-11-29T08:24:00Z</time>
      </trkpt>
      <trkpt lat="47.65282" lon="-0.49118">
        <ele>19</ele>
        <time>2015-11-29T08:24:05Z</time>
      </trkpt>
      <trkpt lat="47.65278" lon="-0.49122">
        <ele>20</ele>
        <time>2015-11-29T08:24:10Z</time>
      </trkpt>
      <trkpt lat="47.65273" lon="-0.49124">
        <ele>20</ele>
        <time>2015-11-29T08:24:15Z</time>
      </trkpt>
      <trkpt lat="47.65268" lon="-0.49127">
        <ele>20</ele>
        <time>2015-11-29T08:24:20Z</time>
      </trkpt>
      <trkpt lat="47.65263" lon="-0.49124">
        <ele>20</ele>
        <time>2015-11-29T08:24:25Z</time>
      </trkpt>
      <trkpt lat="47.6526" lon="-0.49116">
        <ele>20</ele>
        <time>2015-11-29T08:24:30Z</time>
      </trkpt>
      <trkpt lat="47.65258" lon="-0.49107">
        <ele>20</ele>
        <time>2015-11-29T08:24:35Z</time>
      </trkpt>
      <trkpt lat="47.65256" lon="-0.491">
        <ele>20</ele>
        <time>2015-11-29T08:24:40Z</time>
      </trkpt>
      <trkpt lat="47.65254" lon="-0.49091">
        <ele>20</ele>
        <time>2015-11-29T08:24:45Z</time>
      </trkpt>
      <trkpt lat="47.65252" lon="-0.49083">
        <ele>20</ele>
        <time>2015-11-29T08:24:50Z</time>
      </trkpt>
      <trkpt lat="47.65251" lon="-0.49075">
        <ele>20</ele>
        <time>2015-11-29T08:24:55Z</time>
      </trkpt>
      <trkpt lat="47.65249" lon="-0.49063">
        <ele>20</ele>
        <time>2015-11-29T08:25:00Z</time>
      </trkpt>
      <trkpt lat="47.65248" lon="-0.49053">
        <ele>20</ele>
        <time>2015-11-29T08:25:05Z</time>
      </trkpt>
      <trkpt lat="47.65245" lon="-0.49044">
        <ele>20</ele>
        <time>2015-11-29T08:25:10Z</time>
      </trkpt>
      <trkpt lat="47.65243" lon="-0.49036">
        <ele>20</ele>
        <time>2015-11-29T08:25:15Z</time>
      </trkpt>
      <trkpt lat="47.65239" lon="-0.4903">
        <ele>20</ele>
        <time>2015-11-29T08:25:20Z</time>
      </trkpt>
      <trkpt lat="47.65234" lon="-0.49023">
        <ele>21</ele>
        <time>2015-11-29T08:25:25Z</time>
      </trkpt>
      <trkpt lat="47.65229" lon="-0.49019">
        <ele>21</ele>
        <time>2015-11-29T08:25:30Z</time>
      </trkpt>
      <trkpt lat="47.65223" lon="-0.49014">
        <ele>21</ele>
        <time>2015-11-29T08:25:35Z</time>
      </trkpt>
      <trkpt lat="47.65217" lon="-0.4901">
        <ele>21</ele>
        <time>2015-11-29T08:25:40Z</time>
      </trkpt>
      <trkpt lat="47.65212" lon="-0.49005">
        <ele>22</ele>
        <time>2015-11-29T08:25:45Z</time>
      </trkpt>
      <trkpt lat="47.65208" lon="-0.49002">
        <ele>22</ele>
        <time>2015-11-29T08:25:50Z</time>
      </trkpt>
      <trkpt lat="47.65203" lon="-0.48997">
        <ele>22</ele>
        <time>2015-11-29T08:25:55Z</time>
      </trkpt>
      <trkpt lat="47.65197" lon="-0.48994">
        <ele>22</ele>
        <time>2015-11-29T08:26:00Z</time>
      </trkpt>
      <trkpt lat="47.65192" lon="-0.48989">
        <ele>22</ele>
        <time>2015-11-29T08:26:05Z</time>
      </trkpt>
      <trkpt lat="47.65187" lon="-0.48985">
        <ele>23</ele>
        <time>2015-11-29T08:26:10Z</time>
      </trkpt>
      <trkpt lat="47.65183" lon="-0.48985">
        <ele>23</ele>
        <time>2015-11-29T08:26:15Z</time>
      </trkpt>
      <trkpt lat="47.65181" lon="-0.48983">
        <ele>23</ele>
        <time>2015-11-29T08:26:20Z</time>
      </trkpt>
      <trkpt lat="47.65178" lon="-0.48981">
        <ele>23</ele>
        <time>2015-11-29T08:26:25Z</time>
      </trkpt>
      <trkpt lat="47.65176" lon="-0.48976">
        <ele>23</ele>
        <time>2015-11-29T08:26:30Z</time>
      </trkpt>
      <trkpt lat="47.65174" lon="-0.48974">
        <ele>23</ele>
        <time>2015-11-29T08:26:35Z</time>
      </trkpt>
      <trkpt lat="47.65172" lon="-0.48967">
        <ele>23</ele>
        <time>2015-11-29T08:26:40Z</time>
      </trkpt>
      <trkpt lat="47.6517" lon="-0.48961">
        <ele>23</ele>
        <time>2015-11-29T08:26:45Z</time>
      </trkpt>
      <trkpt lat="47.65169" lon="-0.48953">
        <ele>23</ele>
        <time>2015-11-29T08:26:50Z</time>
      </trkpt>
      <trkpt lat="47.65167" lon="-0.48945">
        <ele>23</ele>
        <time>2015-11-29T08:26:55Z</time>
      </trkpt>
      <trkpt lat="47.65164" lon="-0.48936">
        <ele>24</ele>
        <time>2015-11-29T08:27:00Z</time>
      </trkpt>
      <trkpt lat="47.65161" lon="-0.48931">
        <ele>24</ele>
        <time>2015-11-29T08:27:05Z</time>
      </trkpt>
      <trkpt lat="47.65158" lon="-0.48926">
        <ele>24</ele>
        <time>2015-11-29T08:27:10Z</time>
      </trkpt>
      <trkpt lat="47.65154" lon="-0.48921">
        <ele>24</ele>
        <time>2015-11-29T08:27:15Z</time>
      </trkpt>
      <trkpt lat="47.6515" lon="-0.48915">
        <ele>24</ele>
        <time>2015-11-29T08:27:20Z</time>
      </trkpt>
      <trkpt lat="47.65146" lon="-0.48912">
        <ele>24</ele>
        <time>2015-11-29T08:27:25Z</time>
      </trkpt>
      <trkpt lat="47.65142" lon="-0.48906">
        <ele>24</ele>
        <time>2015-11-29T08:27:30Z</time>
      </trkpt>
      <trkpt lat="47.65138" lon="-0.48901">
        <ele>24</ele>
        <time>2015-11-29T08:27:35Z</time>
      </trkpt>
      <trkpt lat="47.65133" lon="-0.48895">
        <ele>24</ele>
        <time>2015-11-29T08:27:40Z</time>
      </trkpt>
      <trkpt lat="47.65128" lon="-0.4889">
        <ele>24</ele>
        <time>2015-11-29T08:27:45Z</time>
      </trkpt>
      <trkpt lat="47.65122" lon="-0.48886">
        <ele>24</ele>
        <time>2015-11-29T08:27:50Z</time>
      </trkpt>
      <trkpt lat="47.65117" lon="-0.48884">
        <ele>24</ele>
        <time>2015-11-29T08:27:55Z</time>
      </trkpt>
      <trkpt lat="47.65109" lon="-0.4888">
        <ele>24</ele>
        <time>2015-11-29T08:28:00Z</time>
      </trkpt>
      <trkpt lat="47.65103" lon="-0.48878">
        <ele>24</ele>
        <time>2015-11-29T08:28:05Z</time>
      </trkpt>
      <trkpt lat="47.65096" lon="-0.48878">
        <ele>24</ele>
        <time>2015-11-29T08:28:10Z</time>
      </trkpt>
      <trkpt lat="47.65091" lon="-0.48877">
        <ele>23</ele>
        <time>2015-11-29T08:28:15Z</time>
      </trkpt>
      <trkpt lat="47.65084" lon="-0.48877">
        <ele>23</ele>
        <time>2015-11-29T08:28:20Z</time>
      </trkpt>
      <trkpt lat="47.65077" lon="-0.48878">
        <ele>23</ele>
        <time>2015-11-29T08:28:25Z</time>
      </trkpt>
      <trkpt lat="47.65072" lon="-0.48879">
        <ele>23</ele>
        <time>2015-11-29T08:28:30Z</time>
      </trkpt>
      <trkpt lat="47.65064" lon="-0.4888">
        <ele>23</ele>
        <time>2015-11-29T08:28:35Z</time>
      </trkpt>
      <trkpt lat="47.65058" lon="-0.48881">
        <ele>22</ele>
        <time>2015-11-29T08:28:40Z</time>
      </trkpt>
      <trkpt lat="47.65052" lon="-0.48881">
        <ele>22</ele>
        <time>2015-11-29T08:28:45Z</time>
      </trkpt>
      <trkpt lat="47.65046" lon="-0.48881">
        <ele>22</ele>
        <time>2015-11-29T08:28:50Z</time>
      </trkpt>
      <trkpt lat="47.6504" lon="-0.48882">
        <ele>22</ele>
        <time>2015-11-29T08:28:55Z</time>
      </trkpt>
      <trkpt lat="47.65035" lon="-0.48882">
        <ele>22</ele>
        <time>2015-11-29T08:29:00Z</time>
      </trkpt>
      <trkpt lat="47.65029" lon="-0.48882">
        <ele>22</ele>
        <time>2015-11-29T08:29:05Z</time>
      </trkpt>
      <trkpt lat="47.65023" lon="-0.4888">
        <ele>22</ele>
        <time>2015-11-29T08:29:10Z</time>
      </trkpt>
      <trkpt lat="47.65017" lon="-0.48877">
        <ele>22</ele>
        <time>2015-11-29T08:29:15Z</time>
      </trkpt>
      <trkpt lat="47.65011" lon="-0.48874">
        <ele>22</ele>
        <time>2015-11-29T08:29:20Z</time>
      </trkpt>
      <trkpt lat="47.65006" lon="-0.4887">
        <ele>22</ele>
        <time>2015-11-29T08:29:25Z</time>
      </trkpt>
      <trkpt lat="47.65001" lon="-0.48867">
        <ele>22</ele>
        <time>2015-11-29T08:29:30Z</time>
      </trkpt>
      <trkpt lat="47.64997" lon="-0.48864">
        <ele>22</ele>
        <time>2015-11-29T08:29:35Z</time>
      </trkpt>
      <trkpt lat="47.6499" lon="-0.48859">
        <ele>22</ele>
        <time>2015-11-29T08:29:40Z</time>
      </trkpt>
      <trkpt lat="47.64984" lon="-0.48856">
        <ele>22</ele>
        <time>2015-11-29T08:29:45Z</time>
      </trkpt>
      <trkpt lat="47.64978" lon="-0.48853">
        <ele>22</ele>
        <time>2015-11-29T08:29:50Z</time>
      </trkpt>
      <trkpt lat="47.64972" lon="-0.4885">
        <ele>22</ele>
        <time>2015-11-29T08:29:55Z</time>
      </trkpt>
      <trkpt lat="47.64966" lon="-0.48846">
        <ele>22</ele>
        <time>2015-11-29T08:30:00Z</time>
      </trkpt>
      <trkpt lat="47.64962" lon="-0.48844">
        <ele>22</ele>
        <time>2015-11-29T08:30:05Z</time>
      </trkpt>
      <trkpt lat="47.64955" lon="-0.4884">
        <ele>22</ele>
        <time>2015-11-29T08:30:10Z</time>
      </trkpt>
      <trkpt lat="47.6495" lon="-0.48836">
        <ele>22</ele>
        <time>2015-11-29T08:30:15Z</time>
      </trkpt>
      <trkpt lat="47.64944" lon="-0.48834">
        <ele>22</ele>
        <time>2015-11-29T08:30:20Z</time>
      </trkpt>
      <trkpt lat="47.64937" lon="-0.48831">
        <ele>22</ele>
        <time>2015-11-29T08:30:25Z</time>
      </trkpt>
      <trkpt lat="47.6493" lon="-0.48829">
        <ele>22</ele>
        <time>2015-11-29T08:30:30Z</time>
      </trkpt>
      <trkpt lat="47.64924" lon="-0.48825">
        <ele>22</ele>
        <time>2015-11-29T08:30:35Z</time>
      </trkpt>
      <trkpt lat="47.64919" lon="-0.48822">
        <ele>22</ele>
        <time>2015-11-29T08:30:40Z</time>
      </trkpt>
      <trkpt lat="47.64915" lon="-0.4882">
        <ele>22</ele>
        <time>2015-11-29T08:30:45Z</time>
      </trkpt>
      <trkpt lat="47.64907" lon="-0.48818">
        <ele>22</ele>
        <time>2015-11-29T08:30:50Z</time>
      </trkpt>
      <trkpt lat="47.649" lon="-0.48815">
        <ele>22</ele>
        <time>2015-11-29T08:30:55Z</time>
      </trkpt>
      <trkpt lat="47.64893" lon="-0.48812">
        <ele>22</ele>
        <time>2015-11-29T08:31:00Z</time>
      </trkpt>
      <trkpt lat="47.64887" lon="-0.48808">
        <ele>21</ele>
        <time>2015-11-29T08:31:05Z</time>
      </trkpt>
      <trkpt lat="47.64881" lon="-0.48806">
        <ele>21</ele>
        <time>2015-11-29T08:31:10Z</time>
      </trkpt>
      <trkpt lat="47.64875" lon="-0.48803">
        <ele>21</ele>
        <time>2015-11-29T08:31:15Z</time>
      </trkpt>
      <trkpt lat="47.64869" lon="-0.48801">
        <ele>21</ele>
        <time>2015-11-29T08:31:20Z</time>
      </trkpt>
      <trkpt lat="47.64862" lon="-0.48798">
        <ele>21</ele>
        <time>2015-11-29T08:31:25Z</time>
      </trkpt>
      <trkpt lat="47.64855" lon="-0.48796">
        <ele>21</ele>
        <time>2015-11-29T08:31:30Z</time>
      </trkpt>
      <trkpt lat="47.64849" lon="-0.48794">
        <ele>21</ele>
        <time>2015-11-29T08:31:35Z</time>
      </trkpt>
      <trkpt lat="47.64843" lon="-0.48793">
        <ele>21</ele>
        <time>2015-11-29T08:31:40Z</time>
      </trkpt>
      <trkpt lat="47.64838" lon="-0.48792">
        <ele>21</ele>
        <time>2015-11-29T08:31:45Z</time>
      </trkpt>
      <trkpt lat="47.6483" lon="-0.4879">
        <ele>21</ele>
        <time>2015-11-29T08:31:50Z</time>
      </trkpt>
      <trkpt lat="47.64823" lon="-0.48788">
        <ele>21</ele>
        <time>2015-11-29T08:31:55Z</time>
      </trkpt>
      <trkpt lat="47.64817" lon="-0.48787">
        <ele>21</ele>
        <time>2015-11-29T08:32:00Z</time>
      </trkpt>
      <trkpt lat="47.64811" lon="-0.48786">
        <ele>21</ele>
        <time>2015-11-29T08:32:05Z</time>
      </trkpt>
      <trkpt lat="47.64802" lon="-0.48784">
        <ele>21</ele>
        <time>2015-11-29T08:32:10Z</time>
      </trkpt>
      <trkpt lat="47.64795" lon="-0.48783">
        <ele>20</ele>
        <time>2015-11-29T08:32:15Z</time>
      </trkpt>
      <trkpt lat="47.64788" lon="-0.48781">
        <ele>20</ele>
        <time>2015-11-29T08:32:20Z</time>
      </trkpt>
      <trkpt lat="47.64781" lon="-0.48779">
        <ele>20</ele>
        <time>2015-11-29T08:32:25Z</time>
      </trkpt>
      <trkpt lat="47.64775" lon="-0.48778">
        <ele>20</ele>
        <time>2015-11-29T08:32:30Z</time>
      </trkpt>
      <trkpt lat="47.64767" lon="-0.48775">
        <ele>20</ele>
        <time>2015-11-29T08:32:35Z</time>
      </trkpt>
      <trkpt lat="47.6476" lon="-0.48773">
        <ele>21</ele>
        <time>2015-11-29T08:32:40Z</time>
      </trkpt>
      <trkpt lat="47.64753" lon="-0.48771">
        <ele>21</ele>
        <time>2015-11-29T08:32:45Z</time>
      </trkpt>
      <trkpt lat="47.64748" lon="-0.48769">
        <ele>21</ele>
        <time>2015-11-29T08:32:50Z</time>
      </trkpt>
      <trkpt lat="47.6474" lon="-0.48766">
        <ele>21</ele>
        <time>2015-11-29T08:32:55Z</time>
      </trkpt>
      <trkpt lat="47.64734" lon="-0.48764">
        <ele>21</ele>
        <time>2015-11-29T08:33:00Z</time>
      </trkpt>
      <trkpt lat="47.64728" lon="-0.48761">
        <ele>21</ele>
        <time>2015-11-29T08:33:05Z</time>
      </trkpt>
      <trkpt lat="47.64722" lon="-0.48758">
        <ele>22</ele>
        <time>2015-11-29T08:33:10Z</time>
      </trkpt>
      <trkpt lat="47.64716" lon="-0.48754">
        <ele>22</ele>
        <time>2015-11-29T08:33:15Z</time>
      </trkpt>
      <trkpt lat="47.6471" lon="-0.4875">
        <ele>22</ele>
        <time>2015-11-29T08:33:20Z</time>
      </trkpt>
      <trkpt lat="47.64704" lon="-0.48746">
        <ele>22</ele>
        <time>2015-11-29T08:33:25Z</time>
      </trkpt>
      <trkpt lat="47.64698" lon="-0.48742">
        <ele>22</ele>
        <time>2015-11-29T08:33:30Z</time>
      </trkpt>
      <trkpt lat="47.64693" lon="-0.48739">
        <ele>22</ele>
        <time>2015-11-29T08:33:35Z</time>
      </trkpt>
      <trkpt lat="47.64689" lon="-0.48736">
        <ele>22</ele>
        <time>2015-11-29T08:33:40Z</time>
      </trkpt>
      <trkpt lat="47.64682" lon="-0.48731">
        <ele>22</ele>
        <time>2015-11-29T08:33:45Z</time>
      </trkpt>
      <trkpt lat="47.64676" lon="-0.48728">
        <ele>22</ele>
        <time>2015-11-29T08:33:50Z</time>
      </trkpt>
      <trkpt lat="47.64671" lon="-0.48724">
        <ele>22</ele>
        <time>2015-11-29T08:33:55Z</time>
      </trkpt>
      <trkpt lat="47.64666" lon="-0.4872">
        <ele>22</ele>
        <time>2015-11-29T08:34:00Z</time>
      </trkpt>
      <trkpt lat="47.6466" lon="-0.48716">
        <ele>22</ele>
        <time>2015-11-29T08:34:05Z</time>
      </trkpt>
      <trkpt lat="47.64655" lon="-0.48712">
        <ele>22</ele>
        <time>2015-11-29T08:34:10Z</time>
      </trkpt>
      <trkpt lat="47.64651" lon="-0.48707">
        <ele>22</ele>
        <time>2015-11-29T08:34:15Z</time>
      </trkpt>
      <trkpt lat="47.64649" lon="-0.48706">
        <ele>22</ele>
        <time>2015-11-29T08:34:20Z</time>
      </trkpt>
      <trkpt lat="47.64646" lon="-0.48703">
        <ele>22</ele>
        <time>2015-11-29T08:34:25Z</time>
      </trkpt>
      <trkpt lat="47.64642" lon="-0.48701">
        <ele>22</ele>
        <time>2015-11-29T08:34:30Z</time>
      </trkpt>
      <trkpt lat="47.64636" lon="-0.48697">
        <ele>22</ele>
        <time>2015-11-29T08:34:35Z</time>
      </trkpt>
      <trkpt lat="47.6463" lon="-0.48692">
        <ele>22</ele>
        <time>2015-11-29T08:34:40Z</time>
      </trkpt>
      <trkpt lat="47.64626" lon="-0.48689">
        <ele>22</ele>
        <time>2015-11-29T08:34:45Z</time>
      </trkpt>
      <trkpt lat="47.64619" lon="-0.48684">
        <ele>22</ele>
        <time>2015-11-29T08:34:50Z</time>
      </trkpt>
      <trkpt lat="47.64614" lon="-0.48681">
        <ele>22</ele>
        <time>2015-11-29T08:34:55Z</time>
      </trkpt>
      <trkpt lat="47.64606" lon="-0.48677">
        <ele>22</ele>
        <time>2015-11-29T08:35:00Z</time>
      </trkpt>
      <trkpt lat="47.64599" lon="-0.48672">
        <ele>21</ele>
        <time>2015-11-29T08:35:05Z</time>
      </trkpt>
      <trkpt lat="47.64595" lon="-0.48669">
        <ele>21</ele>
        <time>2015-11-29T08:35:10Z</time>
      </trkpt>
      <trkpt lat="47.64589" lon="-0.48665">
        <ele>21</ele>
        <time>2015-11-29T08:35:15Z</time>
      </trkpt>
      <trkpt lat="47.64584" lon="-0.48664">
        <ele>21</ele>
        <time>2015-11-29T08:35:20Z</time>
      </trkpt>
      <trkpt lat="47.64578" lon="-0.48662">
        <ele>21</ele>
        <time>2015-11-29T08:35:25Z</time>
      </trkpt>
      <trkpt lat="47.64572" lon="-0.48658">
        <ele>21</ele>
        <time>2015-11-29T08:35:30Z</time>
      </trkpt>
      <trkpt lat="47.64565" lon="-0.48656">
        <ele>21</ele>
        <time>2015-11-29T08:35:35Z</time>
      </trkpt>
      <trkpt lat="47.64561" lon="-0.48653">
        <ele>21</ele>
        <time>2015-11-29T08:35:40Z</time>
      </trkpt>
      <trkpt lat="47.64554" lon="-0.4865">
        <ele>21</ele>
        <time>2015-11-29T08:35:45Z</time>
      </trkpt>
      <trkpt lat="47.64548" lon="-0.48648">
        <ele>21</ele>
        <time>2015-11-29T08:35:50Z</time>
      </trkpt>
      <trkpt lat="47.64542" lon="-0.48645">
        <ele>21</ele>
        <time>2015-11-29T08:35:55Z</time>
      </trkpt>
      <trkpt lat="47.64536" lon="-0.48642">
        <ele>21</ele>
        <time>2015-11-29T08:36:00Z</time>
      </trkpt>
      <trkpt lat="47.64531" lon="-0.4864">
        <ele>21</ele>
        <time>2015-11-29T08:36:05Z</time>
      </trkpt>
      <trkpt lat="47.64524" lon="-0.48637">
        <ele>21</ele>
        <time>2015-11-29T08:36:10Z</time>
      </trkpt>
      <trkpt lat="47.64518" lon="-0.48634">
        <ele>21</ele>
        <time>2015-11-29T08:36:15Z</time>
      </trkpt>
      <trkpt lat="47.64512" lon="-0.48631">
        <ele>21</ele>
        <time>2015-11-29T08:36:20Z</time>
      </trkpt>
      <trkpt lat="47.64506" lon="-0.48628">
        <ele>21</ele>
        <time>2015-11-29T08:36:25Z</time>
      </trkpt>
      <trkpt lat="47.64501" lon="-0.48626">
        <ele>21</ele>
        <time>2015-11-29T08:36:30Z</time>
      </trkpt>
      <trkpt lat="47.64493" lon="-0.48623">
        <ele>21</ele>
        <time>2015-11-29T08:36:35Z</time>
      </trkpt>
      <trkpt lat="47.64487" lon="-0.4862">
        <ele>21</ele>
        <time>2015-11-29T08:36:40Z</time>
      </trkpt>
      <trkpt lat="47.64481" lon="-0.48618">
        <ele>21</ele>
        <time>2015-11-29T08:36:45Z</time>
      </trkpt>
      <trkpt lat="47.64475" lon="-0.48616">
        <ele>20</ele>
        <time>2015-11-29T08:36:50Z</time>
      </trkpt>
      <trkpt lat="47.64469" lon="-0.48614">
        <ele>20</ele>
        <time>2015-11-29T08:36:55Z</time>
      </trkpt>
      <trkpt lat="47.64463" lon="-0.48613">
        <ele>20</ele>
        <time>2015-11-29T08:37:00Z</time>
      </trkpt>
      <trkpt lat="47.64458" lon="-0.48613">
        <ele>20</ele>
        <time>2015-11-29T08:37:05Z</time>
      </trkpt>
      <trkpt lat="47.64451" lon="-0.48612">
        <ele>20</ele>
        <time>2015-11-29T08:37:10Z</time>
      </trkpt>
      <trkpt lat="47.64445" lon="-0.48611">
        <ele>20</ele>
        <time>2015-11-29T08:37:15Z</time>
      </trkpt>
      <trkpt lat="47.64439" lon="-0.48609">
        <ele>19</ele>
        <time>2015-11-29T08:37:20Z</time>
      </trkpt>
      <trkpt lat="47.64432" lon="-0.48608">
        <ele>19</ele>
        <time>2015-11-29T08:37:25Z</time>
      </trkpt>
      <trkpt lat="47.64425" lon="-0.48607">
        <ele>19</ele>
        <time>2015-11-29T08:37:30Z</time>
      </trkpt>
      <trkpt lat="47.64419" lon="-0.48605">
        <ele>19</ele>
        <time>2015-11-29T08:37:35Z</time>
      </trkpt>
      <trkpt lat="47.64413" lon="-0.48603">
        <ele>19</ele>
        <time>2015-11-29T08:37:40Z</time>
      </trkpt>
      <trkpt lat="47.64406" lon="-0.48602">
        <ele>19</ele>
        <time>2015-11-29T08:37:45Z</time>
      </trkpt>
      <trkpt lat="47.64399" lon="-0.486">
        <ele>19</ele>
        <time>2015-11-29T08:37:50Z</time>
      </trkpt>
      <trkpt lat="47.64393" lon="-0.486">
        <ele>19</ele>
        <time>2015-11-29T08:37:55Z</time>
      </trkpt>
      <trkpt lat="47.64388" lon="-0.48599">
        <ele>19</ele>
        <time>2015-11-29T08:38:00Z</time>
      </trkpt>
      <trkpt lat="47.64382" lon="-0.48597">
        <ele>19</ele>
        <time>2015-11-29T08:38:05Z</time>
      </trkpt>
      <trkpt lat="47.64375" lon="-0.48594">
        <ele>19</ele>
        <time>2015-11-29T08:38:10Z</time>
      </trkpt>
      <trkpt lat="47.6437" lon="-0.48592">
        <ele>18</ele>
        <time>2015-11-29T08:38:15Z</time>
      </trkpt>
      <trkpt lat="47.64364" lon="-0.4859">
        <ele>18</ele>
        <time>2015-11-29T08:38:20Z</time>
      </trkpt>
      <trkpt lat="47.64359" lon="-0.48589">
        <ele>18</ele>
        <time>2015-11-29T08:38:25Z</time>
      </trkpt>
      <trkpt lat="47.64352" lon="-0.48588">
        <ele>18</ele>
        <time>2015-11-29T08:38:30Z</time>
      </trkpt>
      <trkpt lat="47.64346" lon="-0.48586">
        <ele>19</ele>
        <time>2015-11-29T08:38:35Z</time>
      </trkpt>
      <trkpt lat="47.64341" lon="-0.48584">
        <ele>19</ele>
        <time>2015-11-29T08:38:40Z</time>
      </trkpt>
      <trkpt lat="47.64336" lon="-0.48582">
        <ele>19</ele>
        <time>2015-11-29T08:38:45Z</time>
      </trkpt>
      <trkpt lat="47.6433" lon="-0.4858">
        <ele>19</ele>
        <time>2015-11-29T08:38:50Z</time>
      </trkpt>
      <trkpt lat="47.64323" lon="-0.48576">
        <ele>19</ele>
        <time>2015-11-29T08:38:55Z</time>
      </trkpt>
      <trkpt lat="47.64317" lon="-0.48575">
        <ele>19</ele>
        <time>2015-11-29T08:39:00Z</time>
      </trkpt>
      <trkpt lat="47.6431" lon="-0.48574">
        <ele>19</ele>
        <time>2015-11-29T08:39:05Z</time>
      </trkpt>
      <trkpt lat="47.64305" lon="-0.48573">
        <ele>19</ele>
        <time>2015-11-29T08:39:10Z</time>
      </trkpt>
      <trkpt lat="47.643" lon="-0.48572">
        <ele>19</ele>
        <time>2015-11-29T08:39:15Z</time>
      </trkpt>
      <trkpt lat="47.64294" lon="-0.4857">
        <ele>19</ele>
        <time>2015-11-29T08:39:20Z</time>
      </trkpt>
      <trkpt lat="47.64286" lon="-0.48568">
        <ele>19</ele>
        <time>2015-11-29T08:39:25Z</time>
      </trkpt>
      <trkpt lat="47.6428" lon="-0.48567">
        <ele>19</ele>
        <time>2015-11-29T08:39:30Z</time>
      </trkpt>
      <trkpt lat="47.64272" lon="-0.48564">
        <ele>19</ele>
        <time>2015-11-29T08:39:35Z</time>
      </trkpt>
      <trkpt lat="47.64266" lon="-0.48563">
        <ele>19</ele>
        <time>2015-11-29T08:39:40Z</time>
      </trkpt>
      <trkpt lat="47.6426" lon="-0.48561">
        <ele>20</ele>
        <time>2015-11-29T08:39:45Z</time>
      </trkpt>
      <trkpt lat="47.64254" lon="-0.48559">
        <ele>20</ele>
        <time>2015-11-29T08:39:50Z</time>
      </trkpt>
      <trkpt lat="47.64249" lon="-0.48558">
        <ele>20</ele>
        <time>2015-11-29T08:39:55Z</time>
      </trkpt>
      <trkpt lat="47.64243" lon="-0.48557">
        <ele>20</ele>
        <time>2015-11-29T08:40:00Z</time>
      </trkpt>
      <trkpt lat="47.64236" lon="-0.48555">
        <ele>20</ele>
        <time>2015-11-29T08:40:05Z</time>
      </trkpt>
      <trkpt lat="47.6423" lon="-0.48552">
        <ele>20</ele>
        <time>2015-11-29T08:40:10Z</time>
      </trkpt>
      <trkpt lat="47.64224" lon="-0.48551">
        <ele>20</ele>
        <time>2015-11-29T08:40:15Z</time>
      </trkpt>
      <trkpt lat="47.6422" lon="-0.4855">
        <ele>20</ele>
        <time>2015-11-29T08:40:20Z</time>
      </trkpt>
      <trkpt lat="47.64212" lon="-0.48548">
        <ele>20</ele>
        <time>2015-11-29T08:40:25Z</time>
      </trkpt>
      <trkpt lat="47.64207" lon="-0.48548">
        <ele>20</ele>
        <time>2015-11-29T08:40:30Z</time>
      </trkpt>
      <trkpt lat="47.64202" lon="-0.48546">
        <ele>20</ele>
        <time>2015-11-29T08:40:35Z</time>
      </trkpt>
      <trkpt lat="47.64197" lon="-0.48544">
        <ele>20</ele>
        <time>2015-11-29T08:40:40Z</time>
      </trkpt>
      <trkpt lat="47.6419" lon="-0.48541">
        <ele>20</ele>
        <time>2015-11-29T08:40:45Z</time>
      </trkpt>
      <trkpt lat="47.64183" lon="-0.48538">
        <ele>21</ele>
        <time>2015-11-29T08:40:50Z</time>
      </trkpt>
      <trkpt lat="47.64178" lon="-0.48536">
        <ele>21</ele>
        <time>2015-11-29T08:40:55Z</time>
      </trkpt>
      <trkpt lat="47.6417" lon="-0.48535">
        <ele>21</ele>
        <time>2015-11-29T08:41:00Z</time>
      </trkpt>
      <trkpt lat="47.64164" lon="-0.48533">
        <ele>21</ele>
        <time>2015-11-29T08:41:05Z</time>
      </trkpt>
      <trkpt lat="47.64159" lon="-0.48532">
        <ele>21</ele>
        <time>2015-11-29T08:41:10Z</time>
      </trkpt>
      <trkpt lat="47.64153" lon="-0.4853">
        <ele>21</ele>
        <time>2015-11-29T08:41:15Z</time>
      </trkpt>
      <trkpt lat="47.64147" lon="-0.48529">
        <ele>21</ele>
        <time>2015-11-29T08:41:20Z</time>
      </trkpt>
      <trkpt lat="47.6414" lon="-0.48528">
        <ele>21</ele>
        <time>2015-11-29T08:41:25Z</time>
      </trkpt>
      <trkpt lat="47.64134" lon="-0.48528">
        <ele>21</ele>
        <time>2015-11-29T08:41:30Z</time>
      </trkpt>
      <trkpt lat="47.64128" lon="-0.48528">
        <ele>21</ele>
        <time>2015-11-29T08:41:35Z</time>
      </trkpt>
      <trkpt lat="47.64122" lon="-0.48528">
        <ele>21</ele>
        <time>2015-11-29T08:41:40Z</time>
      </trkpt>
      <trkpt lat="47.64116" lon="-0.48528">
        <ele>21</ele>
        <time>2015-11-29T08:41:45Z</time>
      </trkpt>
      <trkpt lat="47.64109" lon="-0.48527">
        <ele>21</ele>
        <time>2015-11-29T08:41:50Z</time>
      </trkpt>
      <trkpt lat="47.64104" lon="-0.48527">
        <ele>21</ele>
        <time>2015-11-29T08:41:55Z</time>
      </trkpt>
      <trkpt lat="47.64096" lon="-0.48527">
        <ele>21</ele>
        <time>2015-11-29T08:42:00Z</time>
      </trkpt>
      <trkpt lat="47.6409" lon="-0.48527">
        <ele>21</ele>
        <time>2015-11-29T08:42:05Z</time>
      </trkpt>
      <trkpt lat="47.64083" lon="-0.48528">
        <ele>21</ele>
        <time>2015-11-29T08:42:10Z</time>
      </trkpt>
      <trkpt lat="47.64076" lon="-0.48529">
        <ele>21</ele>
        <time>2015-11-29T08:42:15Z</time>
      </trkpt>
      <trkpt lat="47.64069" lon="-0.48531">
        <ele>21</ele>
        <time>2015-11-29T08:42:20Z</time>
      </trkpt>
      <trkpt lat="47.64064" lon="-0.48534">
        <ele>21</ele>
        <time>2015-11-29T08:42:25Z</time>
      </trkpt>
      <trkpt lat="47.64057" lon="-0.48537">
        <ele>21</ele>
        <time>2015-11-29T08:42:30Z</time>
      </trkpt>
      <trkpt lat="47.64051" lon="-0.4854">
        <ele>21</ele>
        <time>2015-11-29T08:42:35Z</time>
      </trkpt>
      <trkpt lat="47.64047" lon="-0.48543">
        <ele>22</ele>
        <time>2015-11-29T08:42:40Z</time>
      </trkpt>
      <trkpt lat="47.64041" lon="-0.48547">
        <ele>22</ele>
        <time>2015-11-29T08:42:45Z</time>
      </trkpt>
      <trkpt lat="47.64034" lon="-0.48552">
        <ele>22</ele>
        <time>2015-11-29T08:42:50Z</time>
      </trkpt>
      <trkpt lat="47.64026" lon="-0.4856">
        <ele>22</ele>
        <time>2015-11-29T08:42:55Z</time>
      </trkpt>
      <trkpt lat="47.64021" lon="-0.48565">
        <ele>22</ele>
        <time>2015-11-29T08:43:00Z</time>
      </trkpt>
      <trkpt lat="47.64017" lon="-0.48567">
        <ele>22</ele>
        <time>2015-11-29T08:43:05Z</time>
      </trkpt>
      <trkpt lat="47.64014" lon="-0.48567">
        <ele>22</ele>
        <time>2015-11-29T08:43:10Z</time>
      </trkpt>
      <trkpt lat="47.64013" lon="-0.48567">
        <ele>22</ele>
        <time>2015-11-29T08:43:15Z</time>
      </trkpt>
      <trkpt lat="47.64013" lon="-0.48567">
        <ele>22</ele>
        <time>2015-11-29T08:43:20Z</time>
      </trkpt>
      <trkpt lat="47.64013" lon="-0.48568">
        <ele>22</ele>
        <time>2015-11-29T08:43:25Z</time>
      </trkpt>
      <trkpt lat="47.64012" lon="-0.48571">
        <ele>22</ele>
        <time>2015-11-29T08:43:30Z</time>
      </trkpt>
      <trkpt lat="47.64012" lon="-0.48573">
        <ele>22</ele>
        <time>2015-11-29T08:43:35Z</time>
      </trkpt>
      <trkpt lat="47.64012" lon="-0.48576">
        <ele>22</ele>
        <time>2015-11-29T08:43:40Z</time>
      </trkpt>
      <trkpt lat="47.64014" lon="-0.4858">
        <ele>22</ele>
        <time>2015-11-29T08:43:45Z</time>
      </trkpt>
      <trkpt lat="47.64019" lon="-0.48589">
        <ele>22</ele>
        <time>2015-11-29T08:43:50Z</time>
      </trkpt>
      <trkpt lat="47.64022" lon="-0.48598">
        <ele>22</ele>
        <time>2015-11-29T08:43:55Z</time>
      </trkpt>
      <trkpt lat="47.64024" lon="-0.48605">
        <ele>22</ele>
        <time>2015-11-29T08:44:00Z</time>
      </trkpt>
      <trkpt lat="47.64026" lon="-0.48615">
        <ele>22</ele>
        <time>2015-11-29T08:44:05Z</time>
      </trkpt>
      <trkpt lat="47.64028" lon="-0.48626">
        <ele>22</ele>
        <time>2015-11-29T08:44:10Z</time>
      </trkpt>
      <trkpt lat="47.64029" lon="-0.48635">
        <ele>22</ele>
        <time>2015-11-29T08:44:15Z</time>
      </trkpt>
      <trkpt lat="47.64031" lon="-0.48644">
        <ele>21</ele>
        <time>2015-11-29T08:44:20Z</time>
      </trkpt>
      <trkpt lat="47.64032" lon="-0.48651">
        <ele>21</ele>
        <time>2015-11-29T08:44:25Z</time>
      </trkpt>
      <trkpt lat="47.64034" lon="-0.4866">
        <ele>21</ele>
        <time>2015-11-29T08:44:30Z</time>
      </trkpt>
      <trkpt lat="47.64036" lon="-0.4867">
        <ele>21</ele>
        <time>2015-11-29T08:44:35Z</time>
      </trkpt>
      <trkpt lat="47.64037" lon="-0.48679">
        <ele>21</ele>
        <time>2015-11-29T08:44:40Z</time>
      </trkpt>
      <trkpt lat="47.64037" lon="-0.48688">
        <ele>21</ele>
        <time>2015-11-29T08:44:45Z</time>
      </trkpt>
      <trkpt lat="47.64039" lon="-0.48696">
        <ele>21</ele>
        <time>2015-11-29T08:44:50Z</time>
      </trkpt>
      <trkpt lat="47.64039" lon="-0.48708">
        <ele>21</ele>
        <time>2015-11-29T08:44:55Z</time>
      </trkpt>
      <trkpt lat="47.64039" lon="-0.48719">
        <ele>21</ele>
        <time>2015-11-29T08:45:00Z</time>
      </trkpt>
      <trkpt lat="47.6404" lon="-0.48729">
        <ele>21</ele>
        <time>2015-11-29T08:45:05Z</time>
      </trkpt>
      <trkpt lat="47.64041" lon="-0.48739">
        <ele>21</ele>
        <time>2015-11-29T08:45:10Z</time>
      </trkpt>
      <trkpt lat="47.64042" lon="-0.48746">
        <ele>21</ele>
        <time>2015-11-29T08:45:15Z</time>
      </trkpt>
      <trkpt lat="47.64044" lon="-0.48756">
        <ele>21</ele>
        <time>2015-11-29T08:45:20Z</time>
      </trkpt>
      <trkpt lat="47.64045" lon="-0.48765">
        <ele>21</ele>
        <time>2015-11-29T08:45:25Z</time>
      </trkpt>
      <trkpt lat="47.64046" lon="-0.48777">
        <ele>21</ele>
        <time>2015-11-29T08:45:30Z</time>
      </trkpt>
      <trkpt lat="47.64047" lon="-0.48784">
        <ele>21</ele>
        <time>2015-11-29T08:45:35Z</time>
      </trkpt>
      <trkpt lat="47.64046" lon="-0.48795">
        <ele>21</ele>
        <time>2015-11-29T08:45:40Z</time>
      </trkpt>
      <trkpt lat="47.64047" lon="-0.48804">
        <ele>21</ele>
        <time>2015-11-29T08:45:45Z</time>
      </trkpt>
      <trkpt lat="47.64048" lon="-0.48811">
        <ele>21</ele>
        <time>2015-11-29T08:45:50Z</time>
      </trkpt>
      <trkpt lat="47.6405" lon="-0.4882">
        <ele>21</ele>
        <time>2015-11-29T08:45:55Z</time>
      </trkpt>
      <trkpt lat="47.6405" lon="-0.48831">
        <ele>21</ele>
        <time>2015-11-29T08:46:00Z</time>
      </trkpt>
      <trkpt lat="47.64051" lon="-0.4884">
        <ele>21</ele>
        <time>2015-11-29T08:46:05Z</time>
      </trkpt>
      <trkpt lat="47.64051" lon="-0.48849">
        <ele>21</ele>
        <time>2015-11-29T08:46:10Z</time>
      </trkpt>
      <trkpt lat="47.64052" lon="-0.48857">
        <ele>22</ele>
        <time>2015-11-29T08:46:15Z</time>
      </trkpt>
      <trkpt lat="47.64052" lon="-0.48864">
        <ele>22</ele>
        <time>2015-11-29T08:46:20Z</time>
      </trkpt>
      <trkpt lat="47.64053" lon="-0.48873">
        <ele>22</ele>
        <time>2015-11-29T08:46:25Z</time>
      </trkpt>
      <trkpt lat="47.64054" lon="-0.48884">
        <ele>22</ele>
        <time>2015-11-29T08:46:30Z</time>
      </trkpt>
      <trkpt lat="47.64055" lon="-0.48892">
        <ele>22</ele>
        <time>2015-11-29T08:46:35Z</time>
      </trkpt>
      <trkpt lat="47.64056" lon="-0.48902">
        <ele>22</ele>
        <time>2015-11-29T08:46:40Z</time>
      </trkpt>
      <trkpt lat="47.64057" lon="-0.48912">
        <ele>22</ele>
        <time>2015-11-29T08:46:45Z</time>
      </trkpt>
      <trkpt lat="47.64058" lon="-0.48922">
        <ele>22</ele>
        <time>2015-11-29T08:46:50Z</time>
      </trkpt>
      <trkpt lat="47.6406" lon="-0.4893">
        <ele>22</ele>
        <time>2015-11-29T08:46:55Z</time>
      </trkpt>
      <trkpt lat="47.64061" lon="-0.48939">
        <ele>22</ele>
        <time>2015-11-29T08:47:00Z</time>
      </trkpt>
      <trkpt lat="47.64062" lon="-0.48948">
        <ele>22</ele>
        <time>2015-11-29T08:47:05Z</time>
      </trkpt>
      <trkpt lat="47.64063" lon="-0.48957">
        <ele>22</ele>
        <time>2015-11-29T08:47:10Z</time>
      </trkpt>
      <trkpt lat="47.64064" lon="-0.48964">
        <ele>22</ele>
        <time>2015-11-29T08:47:15Z</time>
      </trkpt>
      <trkpt lat="47.64065" lon="-0.48973">
        <ele>22</ele>
        <time>2015-11-29T08:47:20Z</time>
      </trkpt>
      <trkpt lat="47.64066" lon="-0.48984">
        <ele>22</ele>
        <time>2015-11-29T08:47:25Z</time>
      </trkpt>
      <trkpt lat="47.64067" lon="-0.48994">
        <ele>21</ele>
        <time>2015-11-29T08:47:30Z</time>
      </trkpt>
      <trkpt lat="47.64067" lon="-0.49001">
        <ele>21</ele>
        <time>2015-11-29T08:47:35Z</time>
      </trkpt>
      <trkpt lat="47.64067" lon="-0.4901">
        <ele>21</ele>
        <time>2015-11-29T08:47:40Z</time>
      </trkpt>
      <trkpt lat="47.64067" lon="-0.49018">
        <ele>21</ele>
        <time>2015-11-29T08:47:45Z</time>
      </trkpt>
      <trkpt lat="47.64065" lon="-0.49029">
        <ele>21</ele>
        <time>2015-11-29T08:47:50Z</time>
      </trkpt>
      <trkpt lat="47.64063" lon="-0.49038">
        <ele>21</ele>
        <time>2015-11-29T08:47:55Z</time>
      </trkpt>
      <trkpt lat="47.64061" lon="-0.49046">
        <ele>21</ele>
        <time>2015-11-29T08:48:00Z</time>
      </trkpt>
      <trkpt lat="47.64059" lon="-0.49052">
        <ele>21</ele>
        <time>2015-11-29T08:48:05Z</time>
      </trkpt>
      <trkpt lat="47.64054" lon="-0.4906">
        <ele>21</ele>
        <time>2015-11-29T08:48:10Z</time>
      </trkpt>
      <trkpt lat="47.64048" lon="-0.49064">
        <ele>20</ele>
        <time>2015-11-29T08:48:15Z</time>
      </trkpt>
      <trkpt lat="47.64043" lon="-0.49065">
        <ele>20</ele>
        <time>2015-11-29T08:48:20Z</time>
      </trkpt>
      <trkpt lat="47.64037" lon="-0.49066">
        <ele>20</ele>
        <time>2015-11-29T08:48:25Z</time>
      </trkpt>
      <trkpt lat="47.64032" lon="-0.49066">
        <ele>20</ele>
        <time>2015-11-29T08:48:30Z</time>
      </trkpt>
      <trkpt lat="47.64026" lon="-0.49066">
        <ele>20</ele>
        <time>2015-11-29T08:48:35Z</time>
      </trkpt>
      <trkpt lat="47.64019" lon="-0.49067">
        <ele>20</ele>
        <time>2015-11-29T08:48:40Z</time>
      </trkpt>
      <trkpt lat="47.64013" lon="-0.49068">
        <ele>20</ele>
        <time>2015-11-29T08:48:45Z</time>
      </trkpt>
      <trkpt lat="47.64006" lon="-0.49068">
        <ele>20</ele>
        <time>2015-11-29T08:48:50Z</time>
      </trkpt>
      <trkpt lat="47.64001" lon="-0.4907">
        <ele>20</ele>
        <time>2015-11-29T08:48:55Z</time>
      </trkpt>
      <trkpt lat="47.63994" lon="-0.4907">
        <ele>20</ele>
        <time>2015-11-29T08:49:00Z</time>
      </trkpt>
      <trkpt lat="47.63988" lon="-0.49072">
        <ele>20</ele>
        <time>2015-11-29T08:49:05Z</time>
      </trkpt>
      <trkpt lat="47.63981" lon="-0.49077">
        <ele>20</ele>
        <time>2015-11-29T08:49:10Z</time>
      </trkpt>
      <trkpt lat="47.63976" lon="-0.49082">
        <ele>20</ele>
        <time>2015-11-29T08:49:15Z</time>
      </trkpt>
      <trkpt lat="47.63972" lon="-0.49089">
        <ele>20</ele>
        <time>2015-11-29T08:49:20Z</time>
      </trkpt>
      <trkpt lat="47.6397" lon="-0.49095">
        <ele>20</ele>
        <time>2015-11-29T08:49:25Z</time>
      </trkpt>
      <trkpt lat="47.63968" lon="-0.49106">
        <ele>20</ele>
        <time>2015-11-29T08:49:30Z</time>
      </trkpt>
      <trkpt lat="47.63967" lon="-0.49113">
        <ele>20</ele>
        <time>2015-11-29T08:49:35Z</time>
      </trkpt>
      <trkpt lat="47.63965" lon="-0.49122">
        <ele>20</ele>
        <time>2015-11-29T08:49:40Z</time>
      </trkpt>
      <trkpt lat="47.63964" lon="-0.49131">
        <ele>20</ele>
        <time>2015-11-29T08:49:45Z</time>
      </trkpt>
      <trkpt lat="47.63962" lon="-0.49139">
        <ele>20</ele>
        <time>2015-11-29T08:49:50Z</time>
      </trkpt>
      <trkpt lat="47.63958" lon="-0.49148">
        <ele>20</ele>
        <time>2015-11-29T08:49:55Z</time>
      </trkpt>
      <trkpt lat="47.63956" lon="-0.49153">
        <ele>20</ele>
        <time>2015-11-29T08:50:00Z</time>
      </trkpt>
      <trkpt lat="47.63951" lon="-0.49158">
        <ele>20</ele>
        <time>2015-11-29T08:50:05Z</time>
      </trkpt>
      <trkpt lat="47.63946" lon="-0.49163">
        <ele>20</ele>
        <time>2015-11-29T08:50:10Z</time>
      </trkpt>
      <trkpt lat="47.63939" lon="-0.49169">
        <ele>20</ele>
        <time>2015-11-29T08:50:15Z</time>
      </trkpt>
      <trkpt lat="47.63935" lon="-0.49173">
        <ele>20</ele>
        <time>2015-11-29T08:50:20Z</time>
      </trkpt>
      <trkpt lat="47.63929" lon="-0.49177">
        <ele>20</ele>
        <time>2015-11-29T08:50:25Z</time>
      </trkpt>
      <trkpt lat="47.63924" lon="-0.49181">
        <ele>20</ele>
        <time>2015-11-29T08:50:30Z</time>
      </trkpt>
      <trkpt lat="47.63918" lon="-0.49185">
        <ele>20</ele>
        <time>2015-11-29T08:50:35Z</time>
      </trkpt>
      <trkpt lat="47.63913" lon="-0.49188">
        <ele>20</ele>
        <time>2015-11-29T08:50:40Z</time>
      </trkpt>
      <trkpt lat="47.63909" lon="-0.49191">
        <ele>20</ele>
        <time>2015-11-29T08:50:45Z</time>
      </trkpt>
      <trkpt lat="47.63904" lon="-0.49195">
        <ele>20</ele>
        <time>2015-11-29T08:50:50Z</time>
      </trkpt>
      <trkpt lat="47.63899" lon="-0.49202">
        <ele>20</ele>
        <time>2015-11-29T08:50:55Z</time>
      </trkpt>
      <trkpt lat="47.63894" lon="-0.4921">
        <ele>20</ele>
        <time>2015-11-29T08:51:00Z</time>
      </trkpt>
      <trkpt lat="47.63892" lon="-0.49219">
        <ele>20</ele>
        <time>2015-11-29T08:51:05Z</time>
      </trkpt>
      <trkpt lat="47.63891" lon="-0.49225">
        <ele>20</ele>
        <time>2015-11-29T08:51:10Z</time>
      </trkpt>
      <trkpt lat="47.6389" lon="-0.49234">
        <ele>20</ele>
        <time>2015-11-29T08:51:15Z</time>
      </trkpt>
      <trkpt lat="47.63889" lon="-0.49245">
        <ele>20</ele>
        <time>2015-11-29T08:51:20Z</time>
      </trkpt>
      <trkpt lat="47.63888" lon="-0.49252">
        <ele>20</ele>
        <time>2015-11-29T08:51:25Z</time>
      </trkpt>
      <trkpt lat="47.63887" lon="-0.49261">
        <ele>20</ele>
        <time>2015-11-29T08:51:30Z</time>
      </trkpt>
      <trkpt lat="47.63887" lon="-0.49269">
        <ele>20</ele>
        <time>2015-11-29T08:51:35Z</time>
      </trkpt>
      <trkpt lat="47.63886" lon="-0.49279">
        <ele>20</ele>
        <time>2015-11-29T08:51:40Z</time>
      </trkpt>
      <trkpt lat="47.63885" lon="-0.49288">
        <ele>20</ele>
        <time>2015-11-29T08:51:45Z</time>
      </trkpt>
      <trkpt lat="47.63885" lon="-0.49295">
        <ele>20</ele>
        <time>2015-11-29T08:51:50Z</time>
      </trkpt>
      <trkpt lat="47.63883" lon="-0.49303">
        <ele>20</ele>
        <time>2015-11-29T08:51:55Z</time>
      </trkpt>
      <trkpt lat="47.63882" lon="-0.49312">
        <ele>20</ele>
        <time>2015-11-29T08:52:00Z</time>
      </trkpt>
      <trkpt lat="47.63882" lon="-0.4932">
        <ele>20</ele>
        <time>2015-11-29T08:52:05Z</time>
      </trkpt>
      <trkpt lat="47.63882" lon="-0.49325">
        <ele>20</ele>
        <time>2015-11-29T08:52:10Z</time>
      </trkpt>
      <trkpt lat="47.63882" lon="-0.49328">
        <ele>20</ele>
        <time>2015-11-29T08:52:15Z</time>
      </trkpt>
      <trkpt lat="47.63882" lon="-0.49329">
        <ele>20</ele>
        <time>2015-11-29T08:52:20Z</time>
      </trkpt>
      <trkpt lat="47.63882" lon="-0.49329">
        <ele>20</ele>
        <time>2015-11-29T08:52:25Z</time>
      </trkpt>
      <trkpt lat="47.63882" lon="-0.49329">
        <ele>20</ele>
        <time>2015-11-29T08:52:30Z</time>
      </trkpt>
      <trkpt lat="47.63882" lon="-0.49329">
        <ele>20</ele>
        <time>2015-11-29T08:52:35Z</time>
      </trkpt>
      <trkpt lat="47.63882" lon="-0.49328">
        <ele>20</ele>
        <time>2015-11-29T08:52:40Z</time>
      </trkpt>
      <trkpt lat="47.63882" lon="-0.49328">
        <ele>20</ele>
        <time>2015-11-29T08:52:45Z</time>
      </trkpt>
      <trkpt lat="47.63882" lon="-0.49328">
        <ele>20</ele>
        <time>2015-11-29T08:52:50Z</time>
      </trkpt>
      <trkpt lat="47.63884" lon="-0.49331">
        <ele>20</ele>
        <time>2015-11-29T08:52:55Z</time>
      </trkpt>
      <trkpt lat="47.63888" lon="-0.49334">
        <ele>20</ele>
        <time>2015-11-29T08:53:00Z</time>
      </trkpt>
      <trkpt lat="47.63893" lon="-0.49337">
        <ele>21</ele>
        <time>2015-11-29T08:53:05Z</time>
      </trkpt>
      <trkpt lat="47.63898" lon="-0.49339">
        <ele>21</ele>
        <time>2015-11-29T08:53:10Z</time>
      </trkpt>
      <trkpt lat="47.63904" lon="-0.49342">
        <ele>21</ele>
        <time>2015-11-29T08:53:15Z</time>
      </trkpt>
      <trkpt lat="47.63909" lon="-0.49344">
        <ele>21</ele>
        <time>2015-11-29T08:53:20Z</time>
      </trkpt>
      <trkpt lat="47.63916" lon="-0.49347">
        <ele>21</ele>
        <time>2015-11-29T08:53:25Z</time>
      </trkpt>
      <trkpt lat="47.63921" lon="-0.4935">
        <ele>21</ele>
        <time>2015-11-29T08:53:30Z</time>
      </trkpt>
      <trkpt lat="47.63929" lon="-0.49354">
        <ele>21</ele>
        <time>2015-11-29T08:53:35Z</time>
      </trkpt>
      <trkpt lat="47.63933" lon="-0.49356">
        <ele>21</ele>
        <time>2015-11-29T08:53:40Z</time>
      </trkpt>
      <trkpt lat="47.6394" lon="-0.49359">
        <ele>21</ele>
        <time>2015-11-29T08:53:45Z</time>
      </trkpt>
      <trkpt lat="47.63946" lon="-0.49363">
        <ele>21</ele>
        <time>2015-11-29T08:53:50Z</time>
      </trkpt>
      <trkpt lat="47.63952" lon="-0.49367">
        <ele>21</ele>
        <time>2015-11-29T08:53:55Z</time>
      </trkpt>
      <trkpt lat="47.63958" lon="-0.49369">
        <ele>21</ele>
        <time>2015-11-29T08:54:00Z</time>
      </trkpt>
      <trkpt lat="47.63963" lon="-0.49372">
        <ele>21</ele>
        <time>2015-11-29T08:54:05Z</time>
      </trkpt>
      <trkpt lat="47.63968" lon="-0.49374">
        <ele>21</ele>
        <time>2015-11-29T08:54:10Z</time>
      </trkpt>
      <trkpt lat="47.63974" lon="-0.49376">
        <ele>21</ele>
        <time>2015-11-29T08:54:15Z</time>
      </trkpt>
      <trkpt lat="47.63982" lon="-0.49379">
        <ele>22</ele>
        <time>2015-11-29T08:54:20Z</time>
      </trkpt>
      <trkpt lat="47.63986" lon="-0.49381">
        <ele>22</ele>
        <time>2015-11-29T08:54:25Z</time>
      </trkpt>
      <trkpt lat="47.63993" lon="-0.49384">
        <ele>22</ele>
        <time>2015-11-29T08:54:30Z</time>
      </trkpt>
      <trkpt lat="47.63998" lon="-0.49386">
        <ele>22</ele>
        <time>2015-11-29T08:54:35Z</time>
      </trkpt>
      <trkpt lat="47.64006" lon="-0.49388">
        <ele>22</ele>
        <time>2015-11-29T08:54:40Z</time>
      </trkpt>
      <trkpt lat="47.64011" lon="-0.4939">
        <ele>22</ele>
        <time>2015-11-29T08:54:45Z</time>
      </trkpt>
      <trkpt lat="47.64019" lon="-0.49392">
        <ele>22</ele>
        <time>2015-11-29T08:54:50Z</time>
      </trkpt>
      <trkpt lat="47.64024" lon="-0.49393">
        <ele>22</ele>
        <time>2015-11-29T08:54:55Z</time>
      </trkpt>
      <trkpt lat="47.6403" lon="-0.49395">
        <ele>22</ele>
        <time>2015-11-29T08:55:00Z</time>
      </trkpt>
      <trkpt lat="47.64036" lon="-0.49396">
        <ele>22</ele>
        <time>2015-11-29T08:55:05Z</time>
      </trkpt>
      <trkpt lat="47.64042" lon="-0.49398">
        <ele>22</ele>
        <time>2015-11-29T08:55:10Z</time>
      </trkpt>
      <trkpt lat="47.64049" lon="-0.49401">
        <ele>22</ele>
        <time>2015-11-29T08:55:15Z</time>
      </trkpt>
      <trkpt lat="47.64053" lon="-0.49402">
        <ele>22</ele>
        <time>2015-11-29T08:55:20Z</time>
      </trkpt>
      <trkpt lat="47.64059" lon="-0.49404">
        <ele>22</ele>
        <time>2015-11-29T08:55:25Z</time>
      </trkpt>
      <trkpt lat="47.64066" lon="-0.49406">
        <ele>22</ele>
        <time>2015-11-29T08:55:30Z</time>
      </trkpt>
      <trkpt lat="47.64072" lon="-0.49408">
        <ele>22</ele>
        <time>2015-11-29T08:55:35Z</time>
      </trkpt>
      <trkpt lat="47.64078" lon="-0.4941">
        <ele>22</ele>
        <time>2015-11-29T08:55:40Z</time>
      </trkpt>
      <trkpt lat="47.64083" lon="-0.49412">
        <ele>21</ele>
        <time>2015-11-29T08:55:45Z</time>
      </trkpt>
      <trkpt lat="47.6409" lon="-0.49415">
        <ele>21</ele>
        <time>2015-11-29T08:55:50Z</time>
      </trkpt>
      <trkpt lat="47.64095" lon="-0.49416">
        <ele>21</ele>
        <time>2015-11-29T08:55:55Z</time>
      </trkpt>
      <trkpt lat="47.64102" lon="-0.4942">
        <ele>21</ele>
        <time>2015-11-29T08:56:00Z</time>
      </trkpt>
      <trkpt lat="47.64106" lon="-0.49422">
        <ele>21</ele>
        <time>2015-11-29T08:56:05Z</time>
      </trkpt>
      <trkpt lat="47.64108" lon="-0.49422">
        <ele>21</ele>
        <time>2015-11-29T08:56:10Z</time>
      </trkpt>
      <trkpt lat="47.64108" lon="-0.49422">
        <ele>21</ele>
        <time>2015-11-29T08:56:15Z</time>
      </trkpt>
      <trkpt lat="47.64107" lon="-0.49423">
        <ele>21</ele>
        <time>2015-11-29T08:56:20Z</time>
      </trkpt>
      <trkpt lat="47.64107" lon="-0.49423">
        <ele>21</ele>
        <time>2015-11-29T08:56:25Z</time>
      </trkpt>
      <trkpt lat="47.64107" lon="-0.49423">
        <ele>21</ele>
        <time>2015-11-29T08:56:30Z</time>
      </trkpt>
      <trkpt lat="47.64107" lon="-0.49423">
        <ele>21</ele>
        <time>2015-11-29T08:56:35Z</time>
      </trkpt>
      <trkpt lat="47.64107" lon="-0.49423">
        <ele>21</ele>
        <time>2015-11-29T08:56:40Z</time>
      </trkpt>
      <trkpt lat="47.64107" lon="-0.49423">
        <ele>21</ele>
        <time>2015-11-29T08:56:45Z</time>
      </trkpt>
      <trkpt lat="47.64107" lon="-0.49429">
        <ele>21</ele>
        <time>2015-11-29T08:56:50Z</time>
      </trkpt>
      <trkpt lat="47.64106" lon="-0.49438">
        <ele>21</ele>
        <time>2015-11-29T08:56:55Z</time>
      </trkpt>
      <trkpt lat="47.64105" lon="-0.49444">
        <ele>21</ele>
        <time>2015-11-29T08:57:00Z</time>
      </trkpt>
      <trkpt lat="47.64103" lon="-0.49454">
        <ele>21</ele>
        <time>2015-11-29T08:57:05Z</time>
      </trkpt>
      <trkpt lat="47.64101" lon="-0.49461">
        <ele>21</ele>
        <time>2015-11-29T08:57:10Z</time>
      </trkpt>
      <trkpt lat="47.641" lon="-0.4947">
        <ele>21</ele>
        <time>2015-11-29T08:57:15Z</time>
      </trkpt>
      <trkpt lat="47.64099" lon="-0.49479">
        <ele>21</ele>
        <time>2015-11-29T08:57:20Z</time>
      </trkpt>
      <trkpt lat="47.64099" lon="-0.49488">
        <ele>22</ele>
        <time>2015-11-29T08:57:25Z</time>
      </trkpt>
      <trkpt lat="47.64098" lon="-0.49496">
        <ele>22</ele>
        <time>2015-11-29T08:57:30Z</time>
      </trkpt>
      <trkpt lat="47.64096" lon="-0.49505">
        <ele>22</ele>
        <time>2015-11-29T08:57:35Z</time>
      </trkpt>
      <trkpt lat="47.64095" lon="-0.4951">
        <ele>22</ele>
        <time>2015-11-29T08:57:40Z</time>
      </trkpt>
      <trkpt lat="47.64094" lon="-0.49519">
        <ele>22</ele>
        <time>2015-11-29T08:57:45Z</time>
      </trkpt>
      <trkpt lat="47.64092" lon="-0.49526">
        <ele>22</ele>
        <time>2015-11-29T08:57:50Z</time>
      </trkpt>
      <trkpt lat="47.64091" lon="-0.49534">
        <ele>23</ele>
        <time>2015-11-29T08:57:55Z</time>
      </trkpt>
      <trkpt lat="47.6409" lon="-0.49541">
        <ele>23</ele>
        <time>2015-11-29T08:58:00Z</time>
      </trkpt>
      <trkpt lat="47.64089" lon="-0.49546">
        <ele>23</ele>
        <time>2015-11-29T08:58:05Z</time>
      </trkpt>
      <trkpt lat="47.64088" lon="-0.49554">
        <ele>23</ele>
        <time>2015-11-29T08:58:10Z</time>
      </trkpt>
      <trkpt lat="47.64087" lon="-0.49563">
        <ele>24</ele>
        <time>2015-11-29T08:58:15Z</time>
      </trkpt>
      <trkpt lat="47.64085" lon="-0.49571">
        <ele>24</ele>
        <time>2015-11-29T08:58:20Z</time>
      </trkpt>
      <trkpt lat="47.64084" lon="-0.4958">
        <ele>24</ele>
        <time>2015-11-29T08:58:25Z</time>
      </trkpt>
      <trkpt lat="47.64083" lon="-0.49589">
        <ele>25</ele>
        <time>2015-11-29T08:58:30Z</time>
      </trkpt>
      <trkpt lat="47.64084" lon="-0.49597">
        <ele>25</ele>
        <time>2015-11-29T08:58:35Z</time>
      </trkpt>
      <trkpt lat="47.64084" lon="-0.49602">
        <ele>25</ele>
        <time>2015-11-29T08:58:40Z</time>
      </trkpt>
      <trkpt lat="47.64084" lon="-0.49611">
        <ele>26</ele>
        <time>2015-11-29T08:58:45Z</time>
      </trkpt>
      <trkpt lat="47.64084" lon="-0.49617">
        <ele>26</ele>
        <time>2015-11-29T08:58:50Z</time>
      </trkpt>
      <trkpt lat="47.64084" lon="-0.49625">
        <ele>26</ele>
        <time>2015-11-29T08:58:55Z</time>
      </trkpt>
      <trkpt lat="47.64084" lon="-0.49632">
        <ele>26</ele>
        <time>2015-11-29T08:59:00Z</time>
      </trkpt>
      <trkpt lat="47.64084" lon="-0.49637">
        <ele>27</ele>
        <time>2015-11-29T08:59:05Z</time>
      </trkpt>
      <trkpt lat="47.64083" lon="-0.49645">
        <ele>27</ele>
        <time>2015-11-29T08:59:10Z</time>
      </trkpt>
      <trkpt lat="47.64082" lon="-0.49651">
        <ele>27</ele>
        <time>2015-11-29T08:59:15Z</time>
      </trkpt>
      <trkpt lat="47.64081" lon="-0.49658">
        <ele>28</ele>
        <time>2015-11-29T08:59:20Z</time>
      </trkpt>
      <trkpt lat="47.64079" lon="-0.49665">
        <ele>28</ele>
        <time>2015-11-29T08:59:25Z</time>
      </trkpt>
      <trkpt lat="47.64077" lon="-0.49672">
        <ele>28</ele>
        <time>2015-11-29T08:59:30Z</time>
      </trkpt>
      <trkpt lat="47.64074" lon="-0.4968">
        <ele>29</ele>
        <time>2015-11-29T08:59:35Z</time>
      </trkpt>
      <trkpt lat="47.64073" lon="-0.49686">
        <ele>29</ele>
        <time>2015-11-29T08:59:40Z</time>
      </trkpt>
      <trkpt lat="47.64071" lon="-0.49694">
        <ele>29</ele>
        <time>2015-11-29T08:59:45Z</time>
      </trkpt>
      <trkpt lat="47.64069" lon="-0.49704">
        <ele>30</ele>
        <time>2015-11-29T08:59:50Z</time>
      </trkpt>
      <trkpt lat="47.64068" lon="-0.49712">
        <ele>30</ele>
        <time>2015-11-29T08:59:55Z</time>
      </trkpt>
      <trkpt lat="47.64067" lon="-0.4972">
        <ele>30</ele>
        <time>2015-11-29T09:00:00Z</time>
      </trkpt>
      <trkpt lat="47.64066" lon="-0.49726">
        <ele>30</ele>
        <time>2015-11-29T09:00:05Z</time>
      </trkpt>
      <trkpt lat="47.64065" lon="-0.49733">
        <ele>30</ele>
        <time>2015-11-29T09:00:10Z</time>
      </trkpt>
      <trkpt lat="47.64066" lon="-0.49739">
        <ele>31</ele>
        <time>2015-11-29T09:00:15Z</time>
      </trkpt>
      <trkpt lat="47.64066" lon="-0.49748">
        <ele>31</ele>
        <time>2015-11-29T09:00:20Z</time>
      </trkpt>
      <trkpt lat="47.64068" lon="-0.49752">
        <ele>31</ele>
        <time>2015-11-29T09:00:25Z</time>
      </trkpt>
      <trkpt lat="47.64071" lon="-0.49759">
        <ele>31</ele>
        <time>2015-11-29T09:00:30Z</time>
      </trkpt>
      <trkpt lat="47.64075" lon="-0.49764">
        <ele>31</ele>
        <time>2015-11-29T09:00:35Z</time>
      </trkpt>
      <trkpt lat="47.64079" lon="-0.49769">
        <ele>31</ele>
        <time>2015-11-29T09:00:40Z</time>
      </trkpt>
      <trkpt lat="47.64082" lon="-0.49775">
        <ele>31</ele>
        <time>2015-11-29T09:00:45Z</time>
      </trkpt>
      <trkpt lat="47.64088" lon="-0.4978">
        <ele>31</ele>
        <time>2015-11-29T09:00:50Z</time>
      </trkpt>
      <trkpt lat="47.64093" lon="-0.49783">
        <ele>31</ele>
        <time>2015-11-29T09:00:55Z</time>
      </trkpt>
      <trkpt lat="47.64097" lon="-0.49785">
        <ele>31</ele>
        <time>2015-11-29T09:01:00Z</time>
      </trkpt>
      <trkpt lat="47.64102" lon="-0.49787">
        <ele>31</ele>
        <time>2015-11-29T09:01:05Z</time>
      </trkpt>
      <trkpt lat="47.64108" lon="-0.4979">
        <ele>31</ele>
        <time>2015-11-29T09:01:10Z</time>
      </trkpt>
      <trkpt lat="47.64113" lon="-0.49793">
        <ele>31</ele>
        <time>2015-11-29T09:01:15Z</time>
      </trkpt>
      <trkpt lat="47.64117" lon="-0.49795">
        <ele>31</ele>
        <time>2015-11-29T09:01:20Z</time>
      </trkpt>
      <trkpt lat="47.64121" lon="-0.498">
        <ele>32</ele>
        <time>2015-11-29T09:01:25Z</time>
      </trkpt>
      <trkpt lat="47.64124" lon="-0.49806">
        <ele>32</ele>
        <time>2015-11-29T09:01:30Z</time>
      </trkpt>
      <trkpt lat="47.64125" lon="-0.49813">
        <ele>32</ele>
        <time>2015-11-29T09:01:35Z</time>
      </trkpt>
      <trkpt lat="47.64127" lon="-0.4982">
        <ele>32</ele>
        <time>2015-11-29T09:01:40Z</time>
      </trkpt>
      <trkpt lat="47.64128" lon="-0.49826">
        <ele>32</ele>
        <time>2015-11-29T09:01:45Z</time>
      </trkpt>
      <trkpt lat="47.6413" lon="-0.49832">
        <ele>32</ele>
        <time>2015-11-29T09:01:50Z</time>
      </trkpt>
      <trkpt lat="47.64131" lon="-0.49838">
        <ele>33</ele>
        <time>2015-11-29T09:01:55Z</time>
      </trkpt>
      <trkpt lat="47.64133" lon="-0.49848">
        <ele>33</ele>
        <time>2015-11-29T09:02:00Z</time>
      </trkpt>
      <trkpt lat="47.64136" lon="-0.49852">
        <ele>33</ele>
        <time>2015-11-29T09:02:05Z</time>
      </trkpt>
      <trkpt lat="47.64141" lon="-0.49856">
        <ele>33</ele>
        <time>2015-11-29T09:02:10Z</time>
      </trkpt>
      <trkpt lat="47.64146" lon="-0.49861">
        <ele>33</ele>
        <time>2015-11-29T09:02:15Z</time>
      </trkpt>
      <trkpt lat="47.6415" lon="-0.49866">
        <ele>33</ele>
        <time>2015-11-29T09:02:20Z</time>
      </trkpt>
      <trkpt lat="47.64154" lon="-0.49871">
        <ele>33</ele>
        <time>2015-11-29T09:02:25Z</time>
      </trkpt>
      <trkpt lat="47.64158" lon="-0.49873">
        <ele>33</ele>
        <time>2015-11-29T09:02:30Z</time>
      </trkpt>
      <trkpt lat="47.6416" lon="-0.49878">
        <ele>33</ele>
        <time>2015-11-29T09:02:35Z</time>
      </trkpt>
      <trkpt lat="47.64159" lon="-0.49881">
        <ele>33</ele>
        <time>2015-11-29T09:02:40Z</time>
      </trkpt>
      <trkpt lat="47.64159" lon="-0.49881">
        <ele>33</ele>
        <time>2015-11-29T09:02:45Z</time>
      </trkpt>
      <trkpt lat="47.64159" lon="-0.49885">
        <ele>33</ele>
        <time>2015-11-29T09:02:50Z</time>
      </trkpt>
      <trkpt lat="47.64159" lon="-0.4989">
        <ele>33</ele>
        <time>2015-11-29T09:02:55Z</time>
      </trkpt>
      <trkpt lat="47.64157" lon="-0.49895">
        <ele>34</ele>
        <time>2015-11-29T09:03:00Z</time>
      </trkpt>
      <trkpt lat="47.64155" lon="-0.49901">
        <ele>34</ele>
        <time>2015-11-29T09:03:05Z</time>
      </trkpt>
      <trkpt lat="47.64151" lon="-0.49908">
        <ele>34</ele>
        <time>2015-11-29T09:03:10Z</time>
      </trkpt>
      <trkpt lat="47.64149" lon="-0.49916">
        <ele>34</ele>
        <time>2015-11-29T09:03:15Z</time>
      </trkpt>
      <trkpt lat="47.64146" lon="-0.49925">
        <ele>34</ele>
        <time>2015-11-29T09:03:20Z</time>
      </trkpt>
      <trkpt lat="47.64144" lon="-0.49931">
        <ele>34</ele>
        <time>2015-11-29T09:03:25Z</time>
      </trkpt>
      <trkpt lat="47.64141" lon="-0.49939">
        <ele>35</ele>
        <time>2015-11-29T09:03:30Z</time>
      </trkpt>
      <trkpt lat="47.64138" lon="-0.49945">
        <ele>35</ele>
        <time>2015-11-29T09:03:35Z</time>
      </trkpt>
      <trkpt lat="47.64134" lon="-0.49953">
        <ele>35</ele>
        <time>2015-11-29T09:03:40Z</time>
      </trkpt>
      <trkpt lat="47.64131" lon="-0.49959">
        <ele>35</ele>
        <time>2015-11-29T09:03:45Z</time>
      </trkpt>
      <trkpt lat="47.64128" lon="-0.49967">
        <ele>36</ele>
        <time>2015-11-29T09:03:50Z</time>
      </trkpt>
      <trkpt lat="47.64124" lon="-0.49973">
        <ele>36</ele>
        <time>2015-11-29T09:03:55Z</time>
      </trkpt>
      <trkpt lat="47.64121" lon="-0.49979">
        <ele>36</ele>
        <time>2015-11-29T09:04:00Z</time>
      </trkpt>
      <trkpt lat="47.64117" lon="-0.49985">
        <ele>36</ele>
        <time>2015-11-29T09:04:05Z</time>
      </trkpt>
      <trkpt lat="47.64113" lon="-0.49984">
        <ele>36</ele>
        <time>2015-11-29T09:04:10Z</time>
      </trkpt>
      <trkpt lat="47.64108" lon="-0.49982">
        <ele>36</ele>
        <time>2015-11-29T09:04:15Z</time>
      </trkpt>
      <trkpt lat="47.64101" lon="-0.49978">
        <ele>36</ele>
        <time>2015-11-29T09:04:20Z</time>
      </trkpt>
      <trkpt lat="47.64095" lon="-0.49973">
        <ele>36</ele>
        <time>2015-11-29T09:04:25Z</time>
      </trkpt>
      <trkpt lat="47.64091" lon="-0.49969">
        <ele>36</ele>
        <time>2015-11-29T09:04:30Z</time>
      </trkpt>
      <trkpt lat="47.64087" lon="-0.49965">
        <ele>36</ele>
        <time>2015-11-29T09:04:35Z</time>
      </trkpt>
      <trkpt lat="47.64082" lon="-0.4996">
        <ele>36</ele>
        <time>2015-11-29T09:04:40Z</time>
      </trkpt>
      <trkpt lat="47.64076" lon="-0.49955">
        <ele>35</ele>
        <time>2015-11-29T09:04:45Z</time>
      </trkpt>
      <trkpt lat="47.64071" lon="-0.4995">
        <ele>35</ele>
        <time>2015-11-29T09:04:50Z</time>
      </trkpt>
      <trkpt lat="47.64066" lon="-0.49944">
        <ele>35</ele>
        <time>2015-11-29T09:04:55Z</time>
      </trkpt>
      <trkpt lat="47.64062" lon="-0.49939">
        <ele>35</ele>
        <time>2015-11-29T09:05:00Z</time>
      </trkpt>
      <trkpt lat="47.64057" lon="-0.49933">
        <ele>35</ele>
        <time>2015-11-29T09:05:05Z</time>
      </trkpt>
      <trkpt lat="47.64053" lon="-0.49925">
        <ele>35</ele>
        <time>2015-11-29T09:05:10Z</time>
      </trkpt>
      <trkpt lat="47.64048" lon="-0.49919">
        <ele>35</ele>
        <time>2015-11-29T09:05:15Z</time>
      </trkpt>
      <trkpt lat="47.64044" lon="-0.49913">
        <ele>35</ele>
        <time>2015-11-29T09:05:20Z</time>
      </trkpt>
      <trkpt lat="47.64039" lon="-0.49907">
        <ele>35</ele>
        <time>2015-11-29T09:05:25Z</time>
      </trkpt>
      <trkpt lat="47.64036" lon="-0.49902">
        <ele>35</ele>
        <time>2015-11-29T09:05:30Z</time>
      </trkpt>
      <trkpt lat="47.64031" lon="-0.49898">
        <ele>35</ele>
        <time>2015-11-29T09:05:35Z</time>
      </trkpt>
      <trkpt lat="47.64025" lon="-0.49893">
        <ele>35</ele>
        <time>2015-11-29T09:05:40Z</time>
      </trkpt>
      <trkpt lat="47.6402" lon="-0.49891">
        <ele>35</ele>
        <time>2015-11-29T09:05:45Z</time>
      </trkpt>
      <trkpt lat="47.64014" lon="-0.49891">
        <ele>35</ele>
        <time>2015-11-29T09:05:50Z</time>
      </trkpt>
      <trkpt lat="47.64008" lon="-0.49894">
        <ele>35</ele>
        <time>2015-11-29T09:05:55Z</time>
      </trkpt>
      <trkpt lat="47.64004" lon="-0.499">
        <ele>35</ele>
        <time>2015-11-29T09:06:00Z</time>
      </trkpt>
      <trkpt lat="47.63999" lon="-0.49905">
        <ele>35</ele>
        <time>2015-11-29T09:06:05Z</time>
      </trkpt>
      <trkpt lat="47.63996" lon="-0.49909">
        <ele>35</ele>
        <time>2015-11-29T09:06:10Z</time>
      </trkpt>
      <trkpt lat="47.63991" lon="-0.49915">
        <ele>35</ele>
        <time>2015-11-29T09:06:15Z</time>
      </trkpt>
      <trkpt lat="47.63986" lon="-0.49922">
        <ele>35</ele>
        <time>2015-11-29T09:06:20Z</time>
      </trkpt>
      <trkpt lat="47.63981" lon="-0.49927">
        <ele>34</ele>
        <time>2015-11-29T09:06:25Z</time>
      </trkpt>
      <trkpt lat="47.63978" lon="-0.49932">
        <ele>34</ele>
        <time>2015-11-29T09:06:30Z</time>
      </trkpt>
      <trkpt lat="47.63973" lon="-0.49937">
        <ele>34</ele>
        <time>2015-11-29T09:06:35Z</time>
      </trkpt>
      <trkpt lat="47.63968" lon="-0.49942">
        <ele>34</ele>
        <time>2015-11-29T09:06:40Z</time>
      </trkpt>
      <trkpt lat="47.63962" lon="-0.49947">
        <ele>34</ele>
        <time>2015-11-29T09:06:45Z</time>
      </trkpt>
      <trkpt lat="47.63957" lon="-0.49952">
        <ele>34</ele>
        <time>2015-11-29T09:06:50Z</time>
      </trkpt>
      <trkpt lat="47.6395" lon="-0.49959">
        <ele>33</ele>
        <time>2015-11-29T09:06:55Z</time>
      </trkpt>
      <trkpt lat="47.63945" lon="-0.49964">
        <ele>33</ele>
        <time>2015-11-29T09:07:00Z</time>
      </trkpt>
      <trkpt lat="47.6394" lon="-0.49968">
        <ele>33</ele>
        <time>2015-11-29T09:07:05Z</time>
      </trkpt>
      <trkpt lat="47.63933" lon="-0.49974">
        <ele>33</ele>
        <time>2015-11-29T09:07:10Z</time>
      </trkpt>
      <trkpt lat="47.63927" lon="-0.49979">
        <ele>33</ele>
        <time>2015-11-29T09:07:15Z</time>
      </trkpt>
      <trkpt lat="47.63923" lon="-0.49984">
        <ele>33</ele>
        <time>2015-11-29T09:07:20Z</time>
      </trkpt>
      <trkpt lat="47.63918" lon="-0.49987">
        <ele>33</ele>
        <time>2015-11-29T09:07:25Z</time>
      </trkpt>
      <trkpt lat="47.63913" lon="-0.49991">
        <ele>33</ele>
        <time>2015-11-29T09:07:30Z</time>
      </trkpt>
      <trkpt lat="47.63908" lon="-0.49995">
        <ele>33</ele>
        <time>2015-11-29T09:07:35Z</time>
      </trkpt>
      <trkpt lat="47.63902" lon="-0.50001">
        <ele>33</ele>
        <time>2015-11-29T09:07:40Z</time>
      </trkpt>
      <trkpt lat="47.63898" lon="-0.50006">
        <ele>33</ele>
        <time>2015-11-29T09:07:45Z</time>
      </trkpt>
      <trkpt lat="47.63894" lon="-0.5001">
        <ele>33</ele>
        <time>2015-11-29T09:07:50Z</time>
      </trkpt>
      <trkpt lat="47.63888" lon="-0.50016">
        <ele>33</ele>
        <time>2015-11-29T09:07:55Z</time>
      </trkpt>
      <trkpt lat="47.63884" lon="-0.5002">
        <ele>33</ele>
        <time>2015-11-29T09:08:00Z</time>
      </trkpt>
      <trkpt lat="47.63879" lon="-0.50026">
        <ele>34</ele>
        <time>2015-11-29T09:08:05Z</time>
      </trkpt>
      <trkpt lat="47.63874" lon="-0.50031">
        <ele>34</ele>
        <time>2015-11-29T09:08:10Z</time>
      </trkpt>
      <trkpt lat="47.63867" lon="-0.50037">
        <ele>34</ele>
        <time>2015-11-29T09:08:15Z</time>
      </trkpt>
      <trkpt lat="47.63862" lon="-0.50042">
        <ele>34</ele>
        <time>2015-11-29T09:08:20Z</time>
      </trkpt>
      <trkpt lat="47.63857" lon="-0.50046">
        <ele>34</ele>
        <time>2015-11-29T09:08:25Z</time>
      </trkpt>
      <trkpt lat="47.63855" lon="-0.5005">
        <ele>35</ele>
        <time>2015-11-29T09:08:30Z</time>
      </trkpt>
      <trkpt lat="47.63853" lon="-0.50051">
        <ele>35</ele>
        <time>2015-11-29T09:08:35Z</time>
      </trkpt>
      <trkpt lat="47.63853" lon="-0.50051">
        <ele>35</ele>
        <time>2015-11-29T09:08:40Z</time>
      </trkpt>
      <trkpt lat="47.63853" lon="-0.50051">
        <ele>35</ele>
        <time>2015-11-29T09:08:45Z</time>
      </trkpt>
      <trkpt lat="47.63853" lon="-0.50051">
        <ele>35</ele>
        <time>2015-11-29T09:08:50Z</time>
      </trkpt>
      <trkpt lat="47.63853" lon="-0.50051">
        <ele>35</ele>
        <time>2015-11-29T09:08:55Z</time>
      </trkpt>
      <trkpt lat="47.63853" lon="-0.50051">
        <ele>35</ele>
        <time>2015-11-29T09:09:00Z</time>
      </trkpt>
      <trkpt lat="47.63851" lon="-0.50051">
        <ele>35</ele>
        <time>2015-11-29T09:09:05Z</time>
      </trkpt>
      <trkpt lat="47.63846" lon="-0.50052">
        <ele>35</ele>
        <time>2015-11-29T09:09:10Z</time>
      </trkpt>
      <trkpt lat="47.63839" lon="-0.50053">
        <ele>35</ele>
        <time>2015-11-29T09:09:15Z</time>
      </trkpt>
      <trkpt lat="47.63834" lon="-0.50053">
        <ele>35</ele>
        <time>2015-11-29T09:09:20Z</time>
      </trkpt>
      <trkpt lat="47.63827" lon="-0.50054">
        <ele>35</ele>
        <time>2015-11-29T09:09:25Z</time>
      </trkpt>
      <trkpt lat="47.63822" lon="-0.50055">
        <ele>36</ele>
        <time>2015-11-29T09:09:30Z</time>
      </trkpt>
      <trkpt lat="47.63816" lon="-0.50055">
        <ele>36</ele>
        <time>2015-11-29T09:09:35Z</time>
      </trkpt>
      <trkpt lat="47.63809" lon="-0.50055">
        <ele>36</ele>
        <time>2015-11-29T09:09:40Z</time>
      </trkpt>
      <trkpt lat="47.63804" lon="-0.50055">
        <ele>36</ele>
        <time>2015-11-29T09:09:45Z</time>
      </trkpt>
      <trkpt lat="47.63799" lon="-0.50054">
        <ele>36</ele>
        <time>2015-11-29T09:09:50Z</time>
      </trkpt>
      <trkpt lat="47.63793" lon="-0.50054">
        <ele>36</ele>
        <time>2015-11-29T09:09:55Z</time>
      </trkpt>
      <trkpt lat="47.63786" lon="-0.50053">
        <ele>37</ele>
        <time>2015-11-29T09:10:00Z</time>
      </trkpt>
      <trkpt lat="47.63781" lon="-0.50054">
        <ele>37</ele>
        <time>2015-11-29T09:10:05Z</time>
      </trkpt>
      <trkpt lat="47.63776" lon="-0.50055">
        <ele>37</ele>
        <time>2015-11-29T09:10:10Z</time>
      </trkpt>
      <trkpt lat="47.63771" lon="-0.50056">
        <ele>37</ele>
        <time>2015-11-29T09:10:15Z</time>
      </trkpt>
      <trkpt lat="47.63766" lon="-0.50059">
        <ele>37</ele>
        <time>2015-11-29T09:10:20Z</time>
      </trkpt>
      <trkpt lat="47.6376" lon="-0.50064">
        <ele>37</ele>
        <time>2015-11-29T09:10:25Z</time>
      </trkpt>
      <trkpt lat="47.63755" lon="-0.50067">
        <ele>37</ele>
        <time>2015-11-29T09:10:30Z</time>
      </trkpt>
      <trkpt lat="47.63751" lon="-0.50071">
        <ele>38</ele>
        <time>2015-11-29T09:10:35Z</time>
      </trkpt>
      <trkpt lat="47.63746" lon="-0.50074">
        <ele>38</ele>
        <time>2015-11-29T09:10:40Z</time>
      </trkpt>
      <trkpt lat="47.63742" lon="-0.50077">
        <ele>38</ele>
        <time>2015-11-29T09:10:45Z</time>
      </trkpt>
      <trkpt lat="47.63738" lon="-0.50082">
        <ele>38</ele>
        <time>2015-11-29T09:10:50Z</time>
      </trkpt>
      <trkpt lat="47.63734" lon="-0.50087">
        <ele>38</ele>
        <time>2015-11-29T09:10:55Z</time>
      </trkpt>
      <trkpt lat="47.6373" lon="-0.5009">
        <ele>37</ele>
        <time>2015-11-29T09:11:00Z</time>
      </trkpt>
      <trkpt lat="47.63724" lon="-0.50097">
        <ele>37</ele>
        <time>2015-11-29T09:11:05Z</time>
      </trkpt>
      <trkpt lat="47.63719" lon="-0.50103">
        <ele>37</ele>
        <time>2015-11-29T09:11:10Z</time>
      </trkpt>
      <trkpt lat="47.63716" lon="-0.50107">
        <ele>37</ele>
        <time>2015-11-29T09:11:15Z</time>
      </trkpt>
      <trkpt lat="47.63712" lon="-0.50113">
        <ele>37</ele>
        <time>2015-11-29T09:11:20Z</time>
      </trkpt>
      <trkpt lat="47.63707" lon="-0.50118">
        <ele>37</ele>
        <time>2015-11-29T09:11:25Z</time>
      </trkpt>
      <trkpt lat="47.63703" lon="-0.50124">
        <ele>37</ele>
        <time>2015-11-29T09:11:30Z</time>
      </trkpt>
      <trkpt lat="47.63699" lon="-0.5013">
        <ele>37</ele>
        <time>2015-11-29T09:11:35Z</time>
      </trkpt>
      <trkpt lat="47.63694" lon="-0.50135">
        <ele>37</ele>
        <time>2015-11-29T09:11:40Z</time>
      </trkpt>
      <trkpt lat="47.6369" lon="-0.5014">
        <ele>37</ele>
        <time>2015-11-29T09:11:45Z</time>
      </trkpt>
      <trkpt lat="47.63686" lon="-0.50146">
        <ele>37</ele>
        <time>2015-11-29T09:11:50Z</time>
      </trkpt>
      <trkpt lat="47.63684" lon="-0.50149">
        <ele>37</ele>
        <time>2015-11-29T09:11:55Z</time>
      </trkpt>
      <trkpt lat="47.63679" lon="-0.50153">
        <ele>37</ele>
        <time>2015-11-29T09:12:00Z</time>
      </trkpt>
      <trkpt lat="47.63676" lon="-0.50158">
        <ele>37</ele>
        <time>2015-11-29T09:12:05Z</time>
      </trkpt>
      <trkpt lat="47.63671" lon="-0.50163">
        <ele>37</ele>
        <time>2015-11-29T09:12:10Z</time>
      </trkpt>
      <trkpt lat="47.63667" lon="-0.50167">
        <ele>37</ele>
        <time>2015-11-29T09:12:15Z</time>
      </trkpt>
      <trkpt lat="47.63663" lon="-0.50169">
        <ele>37</ele>
        <time>2015-11-29T09:12:20Z</time>
      </trkpt>
      <trkpt lat="47.6366" lon="-0.50175">
        <ele>38</ele>
        <time>2015-11-29T09:12:25Z</time>
      </trkpt>
      <trkpt lat="47.63656" lon="-0.50182">
        <ele>38</ele>
        <time>2015-11-29T09:12:30Z</time>
      </trkpt>
      <trkpt lat="47.63652" lon="-0.50186">
        <ele>38</ele>
        <time>2015-11-29T09:12:35Z</time>
      </trkpt>
      <trkpt lat="47.63649" lon="-0.50188">
        <ele>38</ele>
        <time>2015-11-29T09:12:40Z</time>
      </trkpt>
      <trkpt lat="47.63645" lon="-0.50193">
        <ele>38</ele>
        <time>2015-11-29T09:12:45Z</time>
      </trkpt>
      <trkpt lat="47.63642" lon="-0.50195">
        <ele>38</ele>
        <time>2015-11-29T09:12:50Z</time>
      </trkpt>
      <trkpt lat="47.63637" lon="-0.50202">
        <ele>39</ele>
        <time>2015-11-29T09:12:55Z</time>
      </trkpt>
      <trkpt lat="47.63631" lon="-0.50206">
        <ele>39</ele>
        <time>2015-11-29T09:13:00Z</time>
      </trkpt>
      <trkpt lat="47.63627" lon="-0.50211">
        <ele>39</ele>
        <time>2015-11-29T09:13:05Z</time>
      </trkpt>
      <trkpt lat="47.63622" lon="-0.50214">
        <ele>39</ele>
        <time>2015-11-29T09:13:10Z</time>
      </trkpt>
      <trkpt lat="47.63619" lon="-0.50217">
        <ele>40</ele>
        <time>2015-11-29T09:13:15Z</time>
      </trkpt>
      <trkpt lat="47.63616" lon="-0.50218">
        <ele>40</ele>
        <time>2015-11-29T09:13:20Z</time>
      </trkpt>
      <trkpt lat="47.63612" lon="-0.5022">
        <ele>40</ele>
        <time>2015-11-29T09:13:25Z</time>
      </trkpt>
      <trkpt lat="47.63608" lon="-0.50224">
        <ele>40</ele>
        <time>2015-11-29T09:13:30Z</time>
      </trkpt>
      <trkpt lat="47.63603" lon="-0.50226">
        <ele>40</ele>
        <time>2015-11-29T09:13:35Z</time>
      </trkpt>
      <trkpt lat="47.63599" lon="-0.50231">
        <ele>41</ele>
        <time>2015-11-29T09:13:40Z</time>
      </trkpt>
      <trkpt lat="47.63594" lon="-0.50234">
        <ele>41</ele>
        <time>2015-11-29T09:13:45Z</time>
      </trkpt>
      <trkpt lat="47.63589" lon="-0.50237">
        <ele>41</ele>
        <time>2015-11-29T09:13:50Z</time>
      </trkpt>
      <trkpt lat="47.63585" lon="-0.5024">
        <ele>41</ele>
        <time>2015-11-29T09:13:55Z</time>
      </trkpt>
      <trkpt lat="47.6358" lon="-0.50244">
        <ele>41</ele>
        <time>2015-11-29T09:14:00Z</time>
      </trkpt>
      <trkpt lat="47.63574" lon="-0.5025">
        <ele>41</ele>
        <time>2015-11-29T09:14:05Z</time>
      </trkpt>
      <trkpt lat="47.63569" lon="-0.50255">
        <ele>41</ele>
        <time>2015-11-29T09:14:10Z</time>
      </trkpt>
      <trkpt lat="47.63564" lon="-0.5026">
        <ele>42</ele>
        <time>2015-11-29T09:14:15Z</time>
      </trkpt>
      <trkpt lat="47.63559" lon="-0.50264">
        <ele>42</ele>
        <time>2015-11-29T09:14:20Z</time>
      </trkpt>
      <trkpt lat="47.63553" lon="-0.50268">
        <ele>42</ele>
        <time>2015-11-29T09:14:25Z</time>
      </trkpt>
      <trkpt lat="47.63548" lon="-0.50274">
        <ele>42</ele>
        <time>2015-11-29T09:14:30Z</time>
      </trkpt>
      <trkpt lat="47.63544" lon="-0.50275">
        <ele>42</ele>
        <time>2015-11-29T09:14:35Z</time>
      </trkpt>
      <trkpt lat="47.63539" lon="-0.50279">
        <ele>42</ele>
        <time>2015-11-29T09:14:40Z</time>
      </trkpt>
      <trkpt lat="47.63535" lon="-0.50281">
        <ele>42</ele>
        <time>2015-11-29T09:14:45Z</time>
      </trkpt>
      <trkpt lat="47.63531" lon="-0.50284">
        <ele>42</ele>
        <time>2015-11-29T09:14:50Z</time>
      </trkpt>
      <trkpt lat="47.63526" lon="-0.50288">
        <ele>42</ele>
        <time>2015-11-29T09:14:55Z</time>
      </trkpt>
      <trkpt lat="47.6352" lon="-0.50293">
        <ele>42</ele>
        <time>2015-11-29T09:15:00Z</time>
      </trkpt>
      <trkpt lat="47.63516" lon="-0.50297">
        <ele>42</ele>
        <time>2015-11-29T09:15:05Z</time>
      </trkpt>
      <trkpt lat="47.63511" lon="-0.50303">
        <ele>42</ele>
        <time>2015-11-29T09:15:10Z</time>
      </trkpt>
      <trkpt lat="47.63506" lon="-0.50307">
        <ele>42</ele>
        <time>2015-11-29T09:15:15Z</time>
      </trkpt>
      <trkpt lat="47.63501" lon="-0.5031">
        <ele>42</ele>
        <time>2015-11-29T09:15:20Z</time>
      </trkpt>
      <trkpt lat="47.63494" lon="-0.50316">
        <ele>42</ele>
        <time>2015-11-29T09:15:25Z</time>
      </trkpt>
      <trkpt lat="47.63489" lon="-0.50321">
        <ele>42</ele>
        <time>2015-11-29T09:15:30Z</time>
      </trkpt>
      <trkpt lat="47.63485" lon="-0.50325">
        <ele>42</ele>
        <time>2015-11-29T09:15:35Z</time>
      </trkpt>
      <trkpt lat="47.63481" lon="-0.50328">
        <ele>42</ele>
        <time>2015-11-29T09:15:40Z</time>
      </trkpt>
      <trkpt lat="47.63476" lon="-0.50331">
        <ele>42</ele>
        <time>2015-11-29T09:15:45Z</time>
      </trkpt>
      <trkpt lat="47.6347" lon="-0.50335">
        <ele>42</ele>
        <time>2015-11-29T09:15:50Z</time>
      </trkpt>
      <trkpt lat="47.63463" lon="-0.5034">
        <ele>42</ele>
        <time>2015-11-29T09:15:55Z</time>
      </trkpt>
      <trkpt lat="47.63459" lon="-0.50344">
        <ele>42</ele>
        <time>2015-11-29T09:16:00Z</time>
      </trkpt>
      <trkpt lat="47.63453" lon="-0.5035">
        <ele>42</ele>
        <time>2015-11-29T09:16:05Z</time>
      </trkpt>
      <trkpt lat="47.6345" lon="-0.50353">
        <ele>42</ele>
        <time>2015-11-29T09:16:10Z</time>
      </trkpt>
      <trkpt lat="47.63444" lon="-0.50358">
        <ele>42</ele>
        <time>2015-11-29T09:16:15Z</time>
      </trkpt>
      <trkpt lat="47.63439" lon="-0.50363">
        <ele>42</ele>
        <time>2015-11-29T09:16:20Z</time>
      </trkpt>
      <trkpt lat="47.63435" lon="-0.50366">
        <ele>42</ele>
        <time>2015-11-29T09:16:25Z</time>
      </trkpt>
      <trkpt lat="47.63431" lon="-0.50367">
        <ele>42</ele>
        <time>2015-11-29T09:16:30Z</time>
      </trkpt>
      <trkpt lat="47.63426" lon="-0.5037">
        <ele>42</ele>
        <time>2015-11-29T09:16:35Z</time>
      </trkpt>
      <trkpt lat="47.6342" lon="-0.50375">
        <ele>42</ele>
        <time>2015-11-29T09:16:40Z</time>
      </trkpt>
      <trkpt lat="47.63415" lon="-0.50382">
        <ele>42</ele>
        <time>2015-11-29T09:16:45Z</time>
      </trkpt>
      <trkpt lat="47.63411" lon="-0.50387">
        <ele>42</ele>
        <time>2015-11-29T09:16:50Z</time>
      </trkpt>
      <trkpt lat="47.63406" lon="-0.50394">
        <ele>42</ele>
        <time>2015-11-29T09:16:55Z</time>
      </trkpt>
      <trkpt lat="47.634" lon="-0.50398">
        <ele>42</ele>
        <time>2015-11-29T09:17:00Z</time>
      </trkpt>
      <trkpt lat="47.63395" lon="-0.50403">
        <ele>42</ele>
        <time>2015-11-29T09:17:05Z</time>
      </trkpt>
      <trkpt lat="47.63391" lon="-0.50407">
        <ele>42</ele>
        <time>2015-11-29T09:17:10Z</time>
      </trkpt>
      <trkpt lat="47.63387" lon="-0.50411">
        <ele>42</ele>
        <time>2015-11-29T09:17:15Z</time>
      </trkpt>
      <trkpt lat="47.63382" lon="-0.50414">
        <ele>42</ele>
        <time>2015-11-29T09:17:20Z</time>
      </trkpt>
      <trkpt lat="47.63376" lon="-0.50417">
        <ele>42</ele>
        <time>2015-11-29T09:17:25Z</time>
      </trkpt>
      <trkpt lat="47.63372" lon="-0.50421">
        <ele>42</ele>
        <time>2015-11-29T09:17:30Z</time>
      </trkpt>
      <trkpt lat="47.63366" lon="-0.50428">
        <ele>41</ele>
        <time>2015-11-29T09:17:35Z</time>
      </trkpt>
      <trkpt lat="47.63362" lon="-0.50433">
        <ele>41</ele>
        <time>2015-11-29T09:17:40Z</time>
      </trkpt>
      <trkpt lat="47.63356" lon="-0.50437">
        <ele>41</ele>
        <time>2015-11-29T09:17:45Z</time>
      </trkpt>
      <trkpt lat="47.63351" lon="-0.50443">
        <ele>41</ele>
        <time>2015-11-29T09:17:50Z</time>
      </trkpt>
      <trkpt lat="47.63349" lon="-0.50446">
        <ele>41</ele>
        <time>2015-11-29T09:17:55Z</time>
      </trkpt>
      <trkpt lat="47.63347" lon="-0.50451">
        <ele>41</ele>
        <time>2015-11-29T09:18:00Z</time>
      </trkpt>
      <trkpt lat="47.63345" lon="-0.50457">
        <ele>41</ele>
        <time>2015-11-29T09:18:05Z</time>
      </trkpt>
      <trkpt lat="47.63345" lon="-0.50461">
        <ele>40</ele>
        <time>2015-11-29T09:18:10Z</time>
      </trkpt>
      <trkpt lat="47.63345" lon="-0.50463">
        <ele>40</ele>
        <time>2015-11-29T09:18:15Z</time>
      </trkpt>
      <trkpt lat="47.63345" lon="-0.50467">
        <ele>40</ele>
        <time>2015-11-29T09:18:20Z</time>
      </trkpt>
      <trkpt lat="47.63347" lon="-0.50469">
        <ele>40</ele>
        <time>2015-11-29T09:18:25Z</time>
      </trkpt>
      <trkpt lat="47.63348" lon="-0.5047">
        <ele>40</ele>
        <time>2015-11-29T09:18:30Z</time>
      </trkpt>
      <trkpt lat="47.63347" lon="-0.5047">
        <ele>40</ele>
        <time>2015-11-29T09:18:35Z</time>
      </trkpt>
      <trkpt lat="47.63347" lon="-0.50469">
        <ele>40</ele>
        <time>2015-11-29T09:18:40Z</time>
      </trkpt>
      <trkpt lat="47.63347" lon="-0.50467">
        <ele>40</ele>
        <time>2015-11-29T09:18:45Z</time>
      </trkpt>
      <trkpt lat="47.63347" lon="-0.50467">
        <ele>40</ele>
        <time>2015-11-29T09:18:50Z</time>
      </trkpt>
      <trkpt lat="47.63347" lon="-0.50467">
        <ele>40</ele>
        <time>2015-11-29T09:18:55Z</time>
      </trkpt>
      <trkpt lat="47.63347" lon="-0.50467">
        <ele>40</ele>
        <time>2015-11-29T09:19:00Z</time>
      </trkpt>
      <trkpt lat="47.63347" lon="-0.50465">
        <ele>40</ele>
        <time>2015-11-29T09:19:05Z</time>
      </trkpt>
      <trkpt lat="47.63347" lon="-0.50464">
        <ele>40</ele>
        <time>2015-11-29T09:19:10Z</time>
      </trkpt>
      <trkpt lat="47.63347" lon="-0.50464">
        <ele>40</ele>
        <time>2015-11-29T09:19:15Z</time>
      </trkpt>
      <trkpt lat="47.63347" lon="-0.50464">
        <ele>40</ele>
        <time>2015-11-29T09:19:20Z</time>
      </trkpt>
      <trkpt lat="47.63346" lon="-0.50463">
        <ele>40</ele>
        <time>2015-11-29T09:19:25Z</time>
      </trkpt>
      <trkpt lat="47.63345" lon="-0.50463">
        <ele>40</ele>
        <time>2015-11-29T09:19:30Z</time>
      </trkpt>
      <trkpt lat="47.63345" lon="-0.50461">
        <ele>40</ele>
        <time>2015-11-29T09:19:35Z</time>
      </trkpt>
      <trkpt lat="47.63345" lon="-0.50461">
        <ele>40</ele>
        <time>2015-11-29T09:19:40Z</time>
      </trkpt>
      <trkpt lat="47.63345" lon="-0.5046">
        <ele>40</ele>
        <time>2015-11-29T09:19:45Z</time>
      </trkpt>
      <trkpt lat="47.63345" lon="-0.50461">
        <ele>40</ele>
        <time>2015-11-29T09:19:50Z</time>
      </trkpt>
      <trkpt lat="47.63345" lon="-0.5046">
        <ele>40</ele>
        <time>2015-11-29T09:19:55Z</time>
      </trkpt>
      <trkpt lat="47.63345" lon="-0.5046">
        <ele>40</ele>
        <time>2015-11-29T09:20:00Z</time>
      </trkpt>
      <trkpt lat="47.63344" lon="-0.5046">
        <ele>40</ele>
        <time>2015-11-29T09:20:05Z</time>
      </trkpt>
      <trkpt lat="47.63344" lon="-0.5046">
        <ele>40</ele>
        <time>2015-11-29T09:20:10Z</time>
      </trkpt>
      <trkpt lat="47.63344" lon="-0.5046">
        <ele>40</ele>
        <time>2015-11-29T09:20:15Z</time>
      </trkpt>
      <trkpt lat="47.63344" lon="-0.5046">
        <ele>40</ele>
        <time>2015-11-29T09:20:20Z</time>
      </trkpt>
      <trkpt lat="47.63344" lon="-0.50461">
        <ele>40</ele>
        <time>2015-11-29T09:20:25Z</time>
      </trkpt>
      <trkpt lat="47.63344" lon="-0.50461">
        <ele>40</ele>
        <time>2015-11-29T09:20:30Z</time>
      </trkpt>
      <trkpt lat="47.63344" lon="-0.50461">
        <ele>40</ele>
        <time>2015-11-29T09:20:35Z</time>
      </trkpt>
      <trkpt lat="47.63344" lon="-0.50461">
        <ele>40</ele>
        <time>2015-11-29T09:20:40Z</time>
      </trkpt>
      <trkpt lat="47.63344" lon="-0.50461">
        <ele>40</ele>
        <time>2015-11-29T09:20:45Z</time>
      </trkpt>
      <trkpt lat="47.63345" lon="-0.5046">
        <ele>40</ele>
        <time>2015-11-29T09:20:50Z</time>
      </trkpt>
      <trkpt lat="47.63345" lon="-0.5046">
        <ele>40</ele>
        <time>2015-11-29T09:20:55Z</time>
      </trkpt>
      <trkpt lat="47.63346" lon="-0.50461">
        <ele>40</ele>
        <time>2015-11-29T09:21:00Z</time>
      </trkpt>
      <trkpt lat="47.63346" lon="-0.50462">
        <ele>40</ele>
        <time>2015-11-29T09:21:05Z</time>
      </trkpt>
      <trkpt lat="47.63346" lon="-0.50464">
        <ele>40</ele>
        <time>2015-11-29T09:21:10Z</time>
      </trkpt>
      <trkpt lat="47.63347" lon="-0.50466">
        <ele>40</ele>
        <time>2015-11-29T09:21:15Z</time>
      </trkpt>
      <trkpt lat="47.63348" lon="-0.50467">
        <ele>40</ele>
        <time>2015-11-29T09:21:20Z</time>
      </trkpt>
      <trkpt lat="47.63349" lon="-0.5047">
        <ele>40</ele>
        <time>2015-11-29T09:21:25Z</time>
      </trkpt>
      <trkpt lat="47.6335" lon="-0.50471">
        <ele>40</ele>
        <time>2015-11-29T09:21:30Z</time>
      </trkpt>
      <trkpt lat="47.63351" lon="-0.50474">
        <ele>40</ele>
        <time>2015-11-29T09:21:35Z</time>
      </trkpt>
      <trkpt lat="47.63353" lon="-0.50477">
        <ele>40</ele>
        <time>2015-11-29T09:21:40Z</time>
      </trkpt>
      <trkpt lat="47.63355" lon="-0.50482">
        <ele>40</ele>
        <time>2015-11-29T09:21:45Z</time>
      </trkpt>
      <trkpt lat="47.63357" lon="-0.50487">
        <ele>40</ele>
        <time>2015-11-29T09:21:50Z</time>
      </trkpt>
      <trkpt lat="47.63358" lon="-0.50492">
        <ele>40</ele>
        <time>2015-11-29T09:21:55Z</time>
      </trkpt>
      <trkpt lat="47.6336" lon="-0.50498">
        <ele>39</ele>
        <time>2015-11-29T09:22:00Z</time>
      </trkpt>
      <trkpt lat="47.63362" lon="-0.50503">
        <ele>39</ele>
        <time>2015-11-29T09:22:05Z</time>
      </trkpt>
      <trkpt lat="47.63363" lon="-0.50507">
        <ele>39</ele>
        <time>2015-11-29T09:22:10Z</time>
      </trkpt>
      <trkpt lat="47.63365" lon="-0.50514">
        <ele>39</ele>
        <time>2015-11-29T09:22:15Z</time>
      </trkpt>
      <trkpt lat="47.63367" lon="-0.50522">
        <ele>39</ele>
        <time>2015-11-29T09:22:20Z</time>
      </trkpt>
      <trkpt lat="47.63369" lon="-0.50528">
        <ele>38</ele>
        <time>2015-11-29T09:22:25Z</time>
      </trkpt>
      <trkpt lat="47.63372" lon="-0.50535">
        <ele>38</ele>
        <time>2015-11-29T09:22:30Z</time>
      </trkpt>
      <trkpt lat="47.63374" lon="-0.50543">
        <ele>38</ele>
        <time>2015-11-29T09:22:35Z</time>
      </trkpt>
      <trkpt lat="47.63376" lon="-0.50551">
        <ele>38</ele>
        <time>2015-11-29T09:22:40Z</time>
      </trkpt>
      <trkpt lat="47.63379" lon="-0.50558">
        <ele>38</ele>
        <time>2015-11-29T09:22:45Z</time>
      </trkpt>
      <trkpt lat="47.63381" lon="-0.50565">
        <ele>38</ele>
        <time>2015-11-29T09:22:50Z</time>
      </trkpt>
      <trkpt lat="47.63383" lon="-0.50573">
        <ele>38</ele>
        <time>2015-11-29T09:22:55Z</time>
      </trkpt>
      <trkpt lat="47.63385" lon="-0.5058">
        <ele>38</ele>
        <time>2015-11-29T09:23:00Z</time>
      </trkpt>
      <trkpt lat="47.63388" lon="-0.50587">
        <ele>38</ele>
        <time>2015-11-29T09:23:05Z</time>
      </trkpt>
      <trkpt lat="47.63391" lon="-0.50596">
        <ele>38</ele>
        <time>2015-11-29T09:23:10Z</time>
      </trkpt>
      <trkpt lat="47.63392" lon="-0.50604">
        <ele>38</ele>
        <time>2015-11-29T09:23:15Z</time>
      </trkpt>
      <trkpt lat="47.63396" lon="-0.5061">
        <ele>38</ele>
        <time>2015-11-29T09:23:20Z</time>
      </trkpt>
      <trkpt lat="47.63399" lon="-0.50617">
        <ele>38</ele>
        <time>2015-11-29T09:23:25Z</time>
      </trkpt>
      <trkpt lat="47.63402" lon="-0.50625">
        <ele>38</ele>
        <time>2015-11-29T09:23:30Z</time>
      </trkpt>
      <trkpt lat="47.63405" lon="-0.50633">
        <ele>37</ele>
        <time>2015-11-29T09:23:35Z</time>
      </trkpt>
      <trkpt lat="47.63408" lon="-0.5064">
        <ele>37</ele>
        <time>2015-11-29T09:23:40Z</time>
      </trkpt>
      <trkpt lat="47.6341" lon="-0.50648">
        <ele>37</ele>
        <time>2015-11-29T09:23:45Z</time>
      </trkpt>
      <trkpt lat="47.63413" lon="-0.50658">
        <ele>37</ele>
        <time>2015-11-29T09:23:50Z</time>
      </trkpt>
      <trkpt lat="47.63414" lon="-0.50665">
        <ele>37</ele>
        <time>2015-11-29T09:23:55Z</time>
      </trkpt>
      <trkpt lat="47.63415" lon="-0.50673">
        <ele>36</ele>
        <time>2015-11-29T09:24:00Z</time>
      </trkpt>
      <trkpt lat="47.63417" lon="-0.50681">
        <ele>36</ele>
        <time>2015-11-29T09:24:05Z</time>
      </trkpt>
      <trkpt lat="47.6342" lon="-0.50692">
        <ele>36</ele>
        <time>2015-11-29T09:24:10Z</time>
      </trkpt>
      <trkpt lat="47.63424" lon="-0.50699">
        <ele>36</ele>
        <time>2015-11-29T09:24:15Z</time>
      </trkpt>
      <trkpt lat="47.63426" lon="-0.50705">
        <ele>36</ele>
        <time>2015-11-29T09:24:20Z</time>
      </trkpt>
      <trkpt lat="47.63431" lon="-0.50713">
        <ele>36</ele>
        <time>2015-11-29T09:24:25Z</time>
      </trkpt>
      <trkpt lat="47.63435" lon="-0.50721">
        <ele>37</ele>
        <time>2015-11-29T09:24:30Z</time>
      </trkpt>
      <trkpt lat="47.63438" lon="-0.50731">
        <ele>37</ele>
        <time>2015-11-29T09:24:35Z</time>
      </trkpt>
      <trkpt lat="47.63439" lon="-0.50738">
        <ele>37</ele>
        <time>2015-11-29T09:24:40Z</time>
      </trkpt>
      <trkpt lat="47.63441" lon="-0.50746">
        <ele>37</ele>
        <time>2015-11-29T09:24:45Z</time>
      </trkpt>
      <trkpt lat="47.63443" lon="-0.50753">
        <ele>37</ele>
        <time>2015-11-29T09:24:50Z</time>
      </trkpt>
      <trkpt lat="47.63446" lon="-0.50761">
        <ele>37</ele>
        <time>2015-11-29T09:24:55Z</time>
      </trkpt>
      <trkpt lat="47.63449" lon="-0.50768">
        <ele>37</ele>
        <time>2015-11-29T09:25:00Z</time>
      </trkpt>
      <trkpt lat="47.63452" lon="-0.50777">
        <ele>37</ele>
        <time>2015-11-29T09:25:05Z</time>
      </trkpt>
      <trkpt lat="47.63454" lon="-0.50785">
        <ele>37</ele>
        <time>2015-11-29T09:25:10Z</time>
      </trkpt>
      <trkpt lat="47.63456" lon="-0.50795">
        <ele>37</ele>
        <time>2015-11-29T09:25:15Z</time>
      </trkpt>
      <trkpt lat="47.63459" lon="-0.50805">
        <ele>37</ele>
        <time>2015-11-29T09:25:20Z</time>
      </trkpt>
      <trkpt lat="47.63461" lon="-0.50812">
        <ele>37</ele>
        <time>2015-11-29T09:25:25Z</time>
      </trkpt>
      <trkpt lat="47.63462" lon="-0.50821">
        <ele>37</ele>
        <time>2015-11-29T09:25:30Z</time>
      </trkpt>
      <trkpt lat="47.63466" lon="-0.50829">
        <ele>37</ele>
        <time>2015-11-29T09:25:35Z</time>
      </trkpt>
      <trkpt lat="47.6347" lon="-0.50836">
        <ele>37</ele>
        <time>2015-11-29T09:25:40Z</time>
      </trkpt>
      <trkpt lat="47.63473" lon="-0.50845">
        <ele>38</ele>
        <time>2015-11-29T09:25:45Z</time>
      </trkpt>
      <trkpt lat="47.63475" lon="-0.50852">
        <ele>38</ele>
        <time>2015-11-29T09:25:50Z</time>
      </trkpt>
      <trkpt lat="47.63477" lon="-0.50861">
        <ele>38</ele>
        <time>2015-11-29T09:25:55Z</time>
      </trkpt>
      <trkpt lat="47.63481" lon="-0.50866">
        <ele>38</ele>
        <time>2015-11-29T09:26:00Z</time>
      </trkpt>
      <trkpt lat="47.63483" lon="-0.50875">
        <ele>38</ele>
        <time>2015-11-29T09:26:05Z</time>
      </trkpt>
      <trkpt lat="47.63486" lon="-0.50882">
        <ele>38</ele>
        <time>2015-11-29T09:26:10Z</time>
      </trkpt>
      <trkpt lat="47.63488" lon="-0.50892">
        <ele>39</ele>
        <time>2015-11-29T09:26:15Z</time>
      </trkpt>
      <trkpt lat="47.63491" lon="-0.50901">
        <ele>39</ele>
        <time>2015-11-29T09:26:20Z</time>
      </trkpt>
      <trkpt lat="47.63493" lon="-0.50909">
        <ele>39</ele>
        <time>2015-11-29T09:26:25Z</time>
      </trkpt>
      <trkpt lat="47.63495" lon="-0.50917">
        <ele>39</ele>
        <time>2015-11-29T09:26:30Z</time>
      </trkpt>
      <trkpt lat="47.63497" lon="-0.50925">
        <ele>39</ele>
        <time>2015-11-29T09:26:35Z</time>
      </trkpt>
      <trkpt lat="47.63501" lon="-0.50931">
        <ele>39</ele>
        <time>2015-11-29T09:26:40Z</time>
      </trkpt>
      <trkpt lat="47.63504" lon="-0.50936">
        <ele>39</ele>
        <time>2015-11-29T09:26:45Z</time>
      </trkpt>
      <trkpt lat="47.63508" lon="-0.5094">
        <ele>39</ele>
        <time>2015-11-29T09:26:50Z</time>
      </trkpt>
      <trkpt lat="47.63514" lon="-0.50942">
        <ele>40</ele>
        <time>2015-11-29T09:26:55Z</time>
      </trkpt>
      <trkpt lat="47.63518" lon="-0.50942">
        <ele>40</ele>
        <time>2015-11-29T09:27:00Z</time>
      </trkpt>
      <trkpt lat="47.63522" lon="-0.50941">
        <ele>40</ele>
        <time>2015-11-29T09:27:05Z</time>
      </trkpt>
      <trkpt lat="47.63526" lon="-0.50939">
        <ele>40</ele>
        <time>2015-11-29T09:27:10Z</time>
      </trkpt>
      <trkpt lat="47.63531" lon="-0.50937">
        <ele>40</ele>
        <time>2015-11-29T09:27:15Z</time>
      </trkpt>
      <trkpt lat="47.63537" lon="-0.50936">
        <ele>40</ele>
        <time>2015-11-29T09:27:20Z</time>
      </trkpt>
      <trkpt lat="47.63542" lon="-0.50934">
        <ele>40</ele>
        <time>2015-11-29T09:27:25Z</time>
      </trkpt>
      <trkpt lat="47.63549" lon="-0.50931">
        <ele>40</ele>
        <time>2015-11-29T09:27:30Z</time>
      </trkpt>
      <trkpt lat="47.63555" lon="-0.50926">
        <ele>40</ele>
        <time>2015-11-29T09:27:35Z</time>
      </trkpt>
      <trkpt lat="47.6356" lon="-0.50924">
        <ele>40</ele>
        <time>2015-11-29T09:27:40Z</time>
      </trkpt>
      <trkpt lat="47.63564" lon="-0.50921">
        <ele>40</ele>
        <time>2015-11-29T09:27:45Z</time>
      </trkpt>
      <trkpt lat="47.63569" lon="-0.50918">
        <ele>40</ele>
        <time>2015-11-29T09:27:50Z</time>
      </trkpt>
      <trkpt lat="47.63575" lon="-0.50915">
        <ele>40</ele>
        <time>2015-11-29T09:27:55Z</time>
      </trkpt>
      <trkpt lat="47.6358" lon="-0.50912">
        <ele>40</ele>
        <time>2015-11-29T09:28:00Z</time>
      </trkpt>
      <trkpt lat="47.63585" lon="-0.50908">
        <ele>40</ele>
        <time>2015-11-29T09:28:05Z</time>
      </trkpt>
      <trkpt lat="47.63591" lon="-0.50905">
        <ele>40</ele>
        <time>2015-11-29T09:28:10Z</time>
      </trkpt>
      <trkpt lat="47.63596" lon="-0.50902">
        <ele>40</ele>
        <time>2015-11-29T09:28:15Z</time>
      </trkpt>
      <trkpt lat="47.63602" lon="-0.50899">
        <ele>40</ele>
        <time>2015-11-29T09:28:20Z</time>
      </trkpt>
      <trkpt lat="47.63609" lon="-0.50896">
        <ele>40</ele>
        <time>2015-11-29T09:28:25Z</time>
      </trkpt>
      <trkpt lat="47.63614" lon="-0.50893">
        <ele>40</ele>
        <time>2015-11-29T09:28:30Z</time>
      </trkpt>
      <trkpt lat="47.6362" lon="-0.5089">
        <ele>40</ele>
        <time>2015-11-29T09:28:35Z</time>
      </trkpt>
      <trkpt lat="47.63626" lon="-0.50888">
        <ele>40</ele>
        <time>2015-11-29T09:28:40Z</time>
      </trkpt>
      <trkpt lat="47.63631" lon="-0.50885">
        <ele>40</ele>
        <time>2015-11-29T09:28:45Z</time>
      </trkpt>
      <trkpt lat="47.63638" lon="-0.5088">
        <ele>39</ele>
        <time>2015-11-29T09:28:50Z</time>
      </trkpt>
      <trkpt lat="47.63642" lon="-0.50878">
        <ele>39</ele>
        <time>2015-11-29T09:28:55Z</time>
      </trkpt>
      <trkpt lat="47.63649" lon="-0.50875">
        <ele>39</ele>
        <time>2015-11-29T09:29:00Z</time>
      </trkpt>
      <trkpt lat="47.63652" lon="-0.50874">
        <ele>39</ele>
        <time>2015-11-29T09:29:05Z</time>
      </trkpt>
      <trkpt lat="47.63657" lon="-0.50871">
        <ele>39</ele>
        <time>2015-11-29T09:29:10Z</time>
      </trkpt>
      <trkpt lat="47.63663" lon="-0.50868">
        <ele>39</ele>
        <time>2015-11-29T09:29:15Z</time>
      </trkpt>
      <trkpt lat="47.63669" lon="-0.50865">
        <ele>39</ele>
        <time>2015-11-29T09:29:20Z</time>
      </trkpt>
      <trkpt lat="47.63673" lon="-0.50863">
        <ele>39</ele>
        <time>2015-11-29T09:29:25Z</time>
      </trkpt>
      <trkpt lat="47.63678" lon="-0.5086">
        <ele>39</ele>
        <time>2015-11-29T09:29:30Z</time>
      </trkpt>
      <trkpt lat="47.63683" lon="-0.50857">
        <ele>40</ele>
        <time>2015-11-29T09:29:35Z</time>
      </trkpt>
      <trkpt lat="47.63688" lon="-0.50856">
        <ele>40</ele>
        <time>2015-11-29T09:29:40Z</time>
      </trkpt>
      <trkpt lat="47.63696" lon="-0.50853">
        <ele>40</ele>
        <time>2015-11-29T09:29:45Z</time>
      </trkpt>
      <trkpt lat="47.637" lon="-0.5085">
        <ele>40</ele>
        <time>2015-11-29T09:29:50Z</time>
      </trkpt>
      <trkpt lat="47.63704" lon="-0.50848">
        <ele>40</ele>
        <time>2015-11-29T09:29:55Z</time>
      </trkpt>
      <trkpt lat="47.6371" lon="-0.50845">
        <ele>40</ele>
        <time>2015-11-29T09:30:00Z</time>
      </trkpt>
      <trkpt lat="47.63717" lon="-0.50842">
        <ele>41</ele>
        <time>2015-11-29T09:30:05Z</time>
      </trkpt>
      <trkpt lat="47.63722" lon="-0.50839">
        <ele>41</ele>
        <time>2015-11-29T09:30:10Z</time>
      </trkpt>
      <trkpt lat="47.63726" lon="-0.50836">
        <ele>41</ele>
        <time>2015-11-29T09:30:15Z</time>
      </trkpt>
      <trkpt lat="47.63732" lon="-0.50834">
        <ele>41</ele>
        <time>2015-11-29T09:30:20Z</time>
      </trkpt>
      <trkpt lat="47.63739" lon="-0.5083">
        <ele>41</ele>
        <time>2015-11-29T09:30:25Z</time>
      </trkpt>
      <trkpt lat="47.63744" lon="-0.50826">
        <ele>42</ele>
        <time>2015-11-29T09:30:30Z</time>
      </trkpt>
      <trkpt lat="47.63752" lon="-0.50823">
        <ele>42</ele>
        <time>2015-11-29T09:30:35Z</time>
      </trkpt>
      <trkpt lat="47.63758" lon="-0.50819">
        <ele>42</ele>
        <time>2015-11-29T09:30:40Z</time>
      </trkpt>
      <trkpt lat="47.63761" lon="-0.50817">
        <ele>42</ele>
        <time>2015-11-29T09:30:45Z</time>
      </trkpt>
      <trkpt lat="47.63767" lon="-0.50814">
        <ele>42</ele>
        <time>2015-11-29T09:30:50Z</time>
      </trkpt>
      <trkpt lat="47.63773" lon="-0.50812">
        <ele>42</ele>
        <time>2015-11-29T09:30:55Z</time>
      </trkpt>
      <trkpt lat="47.63778" lon="-0.50809">
        <ele>42</ele>
        <time>2015-11-29T09:31:00Z</time>
      </trkpt>
      <trkpt lat="47.63784" lon="-0.50806">
        <ele>43</ele>
        <time>2015-11-29T09:31:05Z</time>
      </trkpt>
      <trkpt lat="47.6379" lon="-0.50804">
        <ele>43</ele>
        <time>2015-11-29T09:31:10Z</time>
      </trkpt>
      <trkpt lat="47.63795" lon="-0.50803">
        <ele>43</ele>
        <time>2015-11-29T09:31:15Z</time>
      </trkpt>
      <trkpt lat="47.63801" lon="-0.50801">
        <ele>43</ele>
        <time>2015-11-29T09:31:20Z</time>
      </trkpt>
      <trkpt lat="47.63806" lon="-0.50798">
        <ele>43</ele>
        <time>2015-11-29T09:31:25Z</time>
      </trkpt>
      <trkpt lat="47.63813" lon="-0.50795">
        <ele>43</ele>
        <time>2015-11-29T09:31:30Z</time>
      </trkpt>
      <trkpt lat="47.63819" lon="-0.50793">
        <ele>43</ele>
        <time>2015-11-29T09:31:35Z</time>
      </trkpt>
      <trkpt lat="47.63825" lon="-0.5079">
        <ele>43</ele>
        <time>2015-11-29T09:31:40Z</time>
      </trkpt>
      <trkpt lat="47.6383" lon="-0.50787">
        <ele>42</ele>
        <time>2015-11-29T09:31:45Z</time>
      </trkpt>
      <trkpt lat="47.63835" lon="-0.50784">
        <ele>42</ele>
        <time>2015-11-29T09:31:50Z</time>
      </trkpt>
      <trkpt lat="47.6384" lon="-0.50783">
        <ele>42</ele>
        <time>2015-11-29T09:31:55Z</time>
      </trkpt>
      <trkpt lat="47.63846" lon="-0.5078">
        <ele>42</ele>
        <time>2015-11-29T09:32:00Z</time>
      </trkpt>
      <trkpt lat="47.63851" lon="-0.50779">
        <ele>42</ele>
        <time>2015-11-29T09:32:05Z</time>
      </trkpt>
      <trkpt lat="47.63857" lon="-0.50777">
        <ele>42</ele>
        <time>2015-11-29T09:32:10Z</time>
      </trkpt>
      <trkpt lat="47.63863" lon="-0.50775">
        <ele>42</ele>
        <time>2015-11-29T09:32:15Z</time>
      </trkpt>
      <trkpt lat="47.63869" lon="-0.50773">
        <ele>42</ele>
        <time>2015-11-29T09:32:20Z</time>
      </trkpt>
      <trkpt lat="47.63873" lon="-0.50772">
        <ele>42</ele>
        <time>2015-11-29T09:32:25Z</time>
      </trkpt>
      <trkpt lat="47.63879" lon="-0.50769">
        <ele>42</ele>
        <time>2015-11-29T09:32:30Z</time>
      </trkpt>
      <trkpt lat="47.63885" lon="-0.50768">
        <ele>42</ele>
        <time>2015-11-29T09:32:35Z</time>
      </trkpt>
      <trkpt lat="47.6389" lon="-0.50765">
        <ele>42</ele>
        <time>2015-11-29T09:32:40Z</time>
      </trkpt>
      <trkpt lat="47.63895" lon="-0.50763">
        <ele>42</ele>
        <time>2015-11-29T09:32:45Z</time>
      </trkpt>
      <trkpt lat="47.639" lon="-0.50762">
        <ele>42</ele>
        <time>2015-11-29T09:32:50Z</time>
      </trkpt>
      <trkpt lat="47.63906" lon="-0.5076">
        <ele>42</ele>
        <time>2015-11-29T09:32:55Z</time>
      </trkpt>
      <trkpt lat="47.63911" lon="-0.50758">
        <ele>42</ele>
        <time>2015-11-29T09:33:00Z</time>
      </trkpt>
      <trkpt lat="47.63916" lon="-0.50755">
        <ele>42</ele>
        <time>2015-11-29T09:33:05Z</time>
      </trkpt>
      <trkpt lat="47.63922" lon="-0.50754">
        <ele>42</ele>
        <time>2015-11-29T09:33:10Z</time>
      </trkpt>
      <trkpt lat="47.63927" lon="-0.50752">
        <ele>42</ele>
        <time>2015-11-29T09:33:15Z</time>
      </trkpt>
      <trkpt lat="47.63932" lon="-0.5075">
        <ele>42</ele>
        <time>2015-11-29T09:33:20Z</time>
      </trkpt>
      <trkpt lat="47.6394" lon="-0.50748">
        <ele>42</ele>
        <time>2015-11-29T09:33:25Z</time>
      </trkpt>
      <trkpt lat="47.63944" lon="-0.50748">
        <ele>42</ele>
        <time>2015-11-29T09:33:30Z</time>
      </trkpt>
      <trkpt lat="47.63945" lon="-0.50747">
        <ele>42</ele>
        <time>2015-11-29T09:33:35Z</time>
      </trkpt>
      <trkpt lat="47.63945" lon="-0.50748">
        <ele>42</ele>
        <time>2015-11-29T09:33:40Z</time>
      </trkpt>
      <trkpt lat="47.63945" lon="-0.50749">
        <ele>42</ele>
        <time>2015-11-29T09:33:45Z</time>
      </trkpt>
      <trkpt lat="47.63945" lon="-0.50748">
        <ele>42</ele>
        <time>2015-11-29T09:33:50Z</time>
      </trkpt>
      <trkpt lat="47.63945" lon="-0.50749">
        <ele>42</ele>
        <time>2015-11-29T09:33:55Z</time>
      </trkpt>
      <trkpt lat="47.63945" lon="-0.50749">
        <ele>42</ele>
        <time>2015-11-29T09:34:00Z</time>
      </trkpt>
      <trkpt lat="47.63945" lon="-0.50749">
        <ele>42</ele>
        <time>2015-11-29T09:34:05Z</time>
      </trkpt>
      <trkpt lat="47.63945" lon="-0.50749">
        <ele>42</ele>
        <time>2015-11-29T09:34:10Z</time>
      </trkpt>
      <trkpt lat="47.63945" lon="-0.50749">
        <ele>42</ele>
        <time>2015-11-29T09:34:15Z</time>
      </trkpt>
      <trkpt lat="47.63945" lon="-0.50748">
        <ele>42</ele>
        <time>2015-11-29T09:34:20Z</time>
      </trkpt>
      <trkpt lat="47.63945" lon="-0.50749">
        <ele>42</ele>
        <time>2015-11-29T09:34:25Z</time>
      </trkpt>
      <trkpt lat="47.63945" lon="-0.50748">
        <ele>42</ele>
        <time>2015-11-29T09:34:30Z</time>
      </trkpt>
      <trkpt lat="47.63945" lon="-0.50748">
        <ele>42</ele>
        <time>2015-11-29T09:34:35Z</time>
      </trkpt>
      <trkpt lat="47.63945" lon="-0.50748">
        <ele>42</ele>
        <time>2015-11-29T09:34:40Z</time>
      </trkpt>
      <trkpt lat="47.63945" lon="-0.50748">
        <ele>42</ele>
        <time>2015-11-29T09:34:45Z</time>
      </trkpt>
      <trkpt lat="47.63945" lon="-0.50748">
        <ele>42</ele>
        <time>2015-11-29T09:34:50Z</time>
      </trkpt>
      <trkpt lat="47.63945" lon="-0.50748">
        <ele>42</ele>
        <time>2015-11-29T09:34:55Z</time>
      </trkpt>
      <trkpt lat="47.63945" lon="-0.50748">
        <ele>42</ele>
        <time>2015-11-29T09:35:00Z</time>
      </trkpt>
      <trkpt lat="47.63945" lon="-0.50748">
        <ele>42</ele>
        <time>2015-11-29T09:35:05Z</time>
      </trkpt>
      <trkpt lat="47.63945" lon="-0.50748">
        <ele>42</ele>
        <time>2015-11-29T09:35:10Z</time>
      </trkpt>
      <trkpt lat="47.63945" lon="-0.50748">
        <ele>42</ele>
        <time>2015-11-29T09:35:15Z</time>
      </trkpt>
      <trkpt lat="47.63945" lon="-0.50749">
        <ele>42</ele>
        <time>2015-11-29T09:35:20Z</time>
      </trkpt>
      <trkpt lat="47.63945" lon="-0.50748">
        <ele>42</ele>
        <time>2015-11-29T09:35:25Z</time>
      </trkpt>
      <trkpt lat="47.63945" lon="-0.50748">
        <ele>42</ele>
        <time>2015-11-29T09:35:30Z</time>
      </trkpt>
      <trkpt lat="47.63946" lon="-0.50748">
        <ele>42</ele>
        <time>2015-11-29T09:35:35Z</time>
      </trkpt>
      <trkpt lat="47.63946" lon="-0.50748">
        <ele>42</ele>
        <time>2015-11-29T09:35:40Z</time>
      </trkpt>
      <trkpt lat="47.63946" lon="-0.50748">
        <ele>42</ele>
        <time>2015-11-29T09:35:45Z</time>
      </trkpt>
      <trkpt lat="47.63948" lon="-0.50746">
        <ele>42</ele>
        <time>2015-11-29T09:35:50Z</time>
      </trkpt>
      <trkpt lat="47.63951" lon="-0.50743">
        <ele>42</ele>
        <time>2015-11-29T09:35:55Z</time>
      </trkpt>
      <trkpt lat="47.63953" lon="-0.5074">
        <ele>42</ele>
        <time>2015-11-29T09:36:00Z</time>
      </trkpt>
      <trkpt lat="47.63954" lon="-0.50739">
        <ele>42</ele>
        <time>2015-11-29T09:36:05Z</time>
      </trkpt>
      <trkpt lat="47.63954" lon="-0.50737">
        <ele>42</ele>
        <time>2015-11-29T09:36:10Z</time>
      </trkpt>
      <trkpt lat="47.63954" lon="-0.50736">
        <ele>42</ele>
        <time>2015-11-29T09:36:15Z</time>
      </trkpt>
      <trkpt lat="47.63955" lon="-0.50735">
        <ele>42</ele>
        <time>2015-11-29T09:36:20Z</time>
      </trkpt>
      <trkpt lat="47.63955" lon="-0.50734">
        <ele>42</ele>
        <time>2015-11-29T09:36:25Z</time>
      </trkpt>
      <trkpt lat="47.63956" lon="-0.50733">
        <ele>42</ele>
        <time>2015-11-29T09:36:30Z</time>
      </trkpt>
      <trkpt lat="47.63956" lon="-0.50733">
        <ele>42</ele>
        <time>2015-11-29T09:36:35Z</time>
      </trkpt>
      <trkpt lat="47.63957" lon="-0.50734">
        <ele>42</ele>
        <time>2015-11-29T09:36:40Z</time>
      </trkpt>
      <trkpt lat="47.63956" lon="-0.50739">
        <ele>42</ele>
        <time>2015-11-29T09:36:45Z</time>
      </trkpt>
      <trkpt lat="47.63953" lon="-0.50748">
        <ele>42</ele>
        <time>2015-11-29T09:36:50Z</time>
      </trkpt>
      <trkpt lat="47.63949" lon="-0.50755">
        <ele>42</ele>
        <time>2015-11-29T09:36:55Z</time>
      </trkpt>
      <trkpt lat="47.63946" lon="-0.50762">
        <ele>42</ele>
        <time>2015-11-29T09:37:00Z</time>
      </trkpt>
      <trkpt lat="47.63943" lon="-0.5077">
        <ele>42</ele>
        <time>2015-11-29T09:37:05Z</time>
      </trkpt>
      <trkpt lat="47.6394" lon="-0.50777">
        <ele>42</ele>
        <time>2015-11-29T09:37:10Z</time>
      </trkpt>
      <trkpt lat="47.63937" lon="-0.50784">
        <ele>42</ele>
        <time>2015-11-29T09:37:15Z</time>
      </trkpt>
      <trkpt lat="47.63934" lon="-0.50791">
        <ele>42</ele>
        <time>2015-11-29T09:37:20Z</time>
      </trkpt>
      <trkpt lat="47.63931" lon="-0.50796">
        <ele>42</ele>
        <time>2015-11-29T09:37:25Z</time>
      </trkpt>
      <trkpt lat="47.63928" lon="-0.50803">
        <ele>42</ele>
        <time>2015-11-29T09:37:30Z</time>
      </trkpt>
      <trkpt lat="47.63925" lon="-0.50812">
        <ele>42</ele>
        <time>2015-11-29T09:37:35Z</time>
      </trkpt>
      <trkpt lat="47.63923" lon="-0.50819">
        <ele>42</ele>
        <time>2015-11-29T09:37:40Z</time>
      </trkpt>
      <trkpt lat="47.63919" lon="-0.50828">
        <ele>42</ele>
        <time>2015-11-29T09:37:45Z</time>
      </trkpt>
      <trkpt lat="47.63916" lon="-0.50834">
        <ele>42</ele>
        <time>2015-11-29T09:37:50Z</time>
      </trkpt>
      <trkpt lat="47.63914" lon="-0.50843">
        <ele>42</ele>
        <time>2015-11-29T09:37:55Z</time>
      </trkpt>
      <trkpt lat="47.6391" lon="-0.50853">
        <ele>42</ele>
        <time>2015-11-29T09:38:00Z</time>
      </trkpt>
      <trkpt lat="47.63907" lon="-0.50859">
        <ele>42</ele>
        <time>2015-11-29T09:38:05Z</time>
      </trkpt>
      <trkpt lat="47.63904" lon="-0.50868">
        <ele>42</ele>
        <time>2015-11-29T09:38:10Z</time>
      </trkpt>
      <trkpt lat="47.639" lon="-0.50876">
        <ele>42</ele>
        <time>2015-11-29T09:38:15Z</time>
      </trkpt>
      <trkpt lat="47.63896" lon="-0.50883">
        <ele>42</ele>
        <time>2015-11-29T09:38:20Z</time>
      </trkpt>
      <trkpt lat="47.63894" lon="-0.50891">
        <ele>42</ele>
        <time>2015-11-29T09:38:25Z</time>
      </trkpt>
      <trkpt lat="47.63891" lon="-0.50898">
        <ele>42</ele>
        <time>2015-11-29T09:38:30Z</time>
      </trkpt>
      <trkpt lat="47.63888" lon="-0.50908">
        <ele>42</ele>
        <time>2015-11-29T09:38:35Z</time>
      </trkpt>
      <trkpt lat="47.63884" lon="-0.50915">
        <ele>42</ele>
        <time>2015-11-29T09:38:40Z</time>
      </trkpt>
      <trkpt lat="47.6388" lon="-0.50923">
        <ele>42</ele>
        <time>2015-11-29T09:38:45Z</time>
      </trkpt>
      <trkpt lat="47.63877" lon="-0.50932">
        <ele>42</ele>
        <time>2015-11-29T09:38:50Z</time>
      </trkpt>
      <trkpt lat="47.63873" lon="-0.50942">
        <ele>42</ele>
        <time>2015-11-29T09:38:55Z</time>
      </trkpt>
      <trkpt lat="47.63869" lon="-0.50953">
        <ele>42</ele>
        <time>2015-11-29T09:39:00Z</time>
      </trkpt>
      <trkpt lat="47.63867" lon="-0.5096">
        <ele>42</ele>
        <time>2015-11-29T09:39:05Z</time>
      </trkpt>
      <trkpt lat="47.63864" lon="-0.5097">
        <ele>41</ele>
        <time>2015-11-29T09:39:10Z</time>
      </trkpt>
      <trkpt lat="47.63861" lon="-0.50979">
        <ele>41</ele>
        <time>2015-11-29T09:39:15Z</time>
      </trkpt>
      <trkpt lat="47.63858" lon="-0.50988">
        <ele>41</ele>
        <time>2015-11-29T09:39:20Z</time>
      </trkpt>
      <trkpt lat="47.63855" lon="-0.50997">
        <ele>41</ele>
        <time>2015-11-29T09:39:25Z</time>
      </trkpt>
      <trkpt lat="47.63852" lon="-0.51004">
        <ele>41</ele>
        <time>2015-11-29T09:39:30Z</time>
      </trkpt>
      <trkpt lat="47.63849" lon="-0.51013">
        <ele>41</ele>
        <time>2015-11-29T09:39:35Z</time>
      </trkpt>
      <trkpt lat="47.63846" lon="-0.51021">
        <ele>41</ele>
        <time>2015-11-29T09:39:40Z</time>
      </trkpt>
      <trkpt lat="47.63843" lon="-0.51029">
        <ele>40</ele>
        <time>2015-11-29T09:39:45Z</time>
      </trkpt>
      <trkpt lat="47.6384" lon="-0.51038">
        <ele>40</ele>
        <time>2015-11-29T09:39:50Z</time>
      </trkpt>
      <trkpt lat="47.63837" lon="-0.51046">
        <ele>40</ele>
        <time>2015-11-29T09:39:55Z</time>
      </trkpt>
      <trkpt lat="47.63834" lon="-0.51054">
        <ele>40</ele>
        <time>2015-11-29T09:40:00Z</time>
      </trkpt>
      <trkpt lat="47.63831" lon="-0.51062">
        <ele>40</ele>
        <time>2015-11-29T09:40:05Z</time>
      </trkpt>
      <trkpt lat="47.63829" lon="-0.5107">
        <ele>40</ele>
        <time>2015-11-29T09:40:10Z</time>
      </trkpt>
      <trkpt lat="47.63826" lon="-0.51078">
        <ele>40</ele>
        <time>2015-11-29T09:40:15Z</time>
      </trkpt>
      <trkpt lat="47.63823" lon="-0.51086">
        <ele>40</ele>
        <time>2015-11-29T09:40:20Z</time>
      </trkpt>
      <trkpt lat="47.6382" lon="-0.51094">
        <ele>40</ele>
        <time>2015-11-29T09:40:25Z</time>
      </trkpt>
      <trkpt lat="47.63817" lon="-0.51104">
        <ele>40</ele>
        <time>2015-11-29T09:40:30Z</time>
      </trkpt>
      <trkpt lat="47.63815" lon="-0.51113">
        <ele>40</ele>
        <time>2015-11-29T09:40:35Z</time>
      </trkpt>
      <trkpt lat="47.63812" lon="-0.51121">
        <ele>40</ele>
        <time>2015-11-29T09:40:40Z</time>
      </trkpt>
      <trkpt lat="47.63809" lon="-0.51129">
        <ele>41</ele>
        <time>2015-11-29T09:40:45Z</time>
      </trkpt>
      <trkpt lat="47.63806" lon="-0.51137">
        <ele>41</ele>
        <time>2015-11-29T09:40:50Z</time>
      </trkpt>
      <trkpt lat="47.63804" lon="-0.51145">
        <ele>41</ele>
        <time>2015-11-29T09:40:55Z</time>
      </trkpt>
      <trkpt lat="47.63801" lon="-0.51154">
        <ele>41</ele>
        <time>2015-11-29T09:41:00Z</time>
      </trkpt>
      <trkpt lat="47.63799" lon="-0.51159">
        <ele>41</ele>
        <time>2015-11-29T09:41:05Z</time>
      </trkpt>
      <trkpt lat="47.63796" lon="-0.51165">
        <ele>42</ele>
        <time>2015-11-29T09:41:10Z</time>
      </trkpt>
      <trkpt lat="47.63794" lon="-0.51174">
        <ele>42</ele>
        <time>2015-11-29T09:41:15Z</time>
      </trkpt>
      <trkpt lat="47.63791" lon="-0.5118">
        <ele>42</ele>
        <time>2015-11-29T09:41:20Z</time>
      </trkpt>
      <trkpt lat="47.63789" lon="-0.51188">
        <ele>42</ele>
        <time>2015-11-29T09:41:25Z</time>
      </trkpt>
      <trkpt lat="47.63786" lon="-0.51196">
        <ele>42</ele>
        <time>2015-11-29T09:41:30Z</time>
      </trkpt>
      <trkpt lat="47.63783" lon="-0.51204">
        <ele>43</ele>
        <time>2015-11-29T09:41:35Z</time>
      </trkpt>
      <trkpt lat="47.63781" lon="-0.51211">
        <ele>43</ele>
        <time>2015-11-29T09:41:40Z</time>
      </trkpt>
      <trkpt lat="47.63778" lon="-0.51219">
        <ele>43</ele>
        <time>2015-11-29T09:41:45Z</time>
      </trkpt>
      <trkpt lat="47.63775" lon="-0.51227">
        <ele>44</ele>
        <time>2015-11-29T09:41:50Z</time>
      </trkpt>
      <trkpt lat="47.63772" lon="-0.51235">
        <ele>44</ele>
        <time>2015-11-29T09:41:55Z</time>
      </trkpt>
      <trkpt lat="47.63769" lon="-0.51243">
        <ele>44</ele>
        <time>2015-11-29T09:42:00Z</time>
      </trkpt>
      <trkpt lat="47.63767" lon="-0.5125">
        <ele>44</ele>
        <time>2015-11-29T09:42:05Z</time>
      </trkpt>
      <trkpt lat="47.63765" lon="-0.51256">
        <ele>44</ele>
        <time>2015-11-29T09:42:10Z</time>
      </trkpt>
      <trkpt lat="47.63763" lon="-0.51263">
        <ele>44</ele>
        <time>2015-11-29T09:42:15Z</time>
      </trkpt>
      <trkpt lat="47.6376" lon="-0.51271">
        <ele>44</ele>
        <time>2015-11-29T09:42:20Z</time>
      </trkpt>
      <trkpt lat="47.63757" lon="-0.51279">
        <ele>44</ele>
        <time>2015-11-29T09:42:25Z</time>
      </trkpt>
      <trkpt lat="47.63755" lon="-0.51288">
        <ele>45</ele>
        <time>2015-11-29T09:42:30Z</time>
      </trkpt>
      <trkpt lat="47.63755" lon="-0.51295">
        <ele>45</ele>
        <time>2015-11-29T09:42:35Z</time>
      </trkpt>
      <trkpt lat="47.63754" lon="-0.51303">
        <ele>45</ele>
        <time>2015-11-29T09:42:40Z</time>
      </trkpt>
      <trkpt lat="47.63754" lon="-0.51311">
        <ele>45</ele>
        <time>2015-11-29T09:42:45Z</time>
      </trkpt>
      <trkpt lat="47.63753" lon="-0.5132">
        <ele>45</ele>
        <time>2015-11-29T09:42:50Z</time>
      </trkpt>
      <trkpt lat="47.63752" lon="-0.51328">
        <ele>45</ele>
        <time>2015-11-29T09:42:55Z</time>
      </trkpt>
      <trkpt lat="47.6375" lon="-0.51337">
        <ele>45</ele>
        <time>2015-11-29T09:43:00Z</time>
      </trkpt>
      <trkpt lat="47.6375" lon="-0.51348">
        <ele>45</ele>
        <time>2015-11-29T09:43:05Z</time>
      </trkpt>
      <trkpt lat="47.63749" lon="-0.51357">
        <ele>45</ele>
        <time>2015-11-29T09:43:10Z</time>
      </trkpt>
      <trkpt lat="47.63748" lon="-0.51366">
        <ele>45</ele>
        <time>2015-11-29T09:43:15Z</time>
      </trkpt>
      <trkpt lat="47.63746" lon="-0.51378">
        <ele>45</ele>
        <time>2015-11-29T09:43:20Z</time>
      </trkpt>
      <trkpt lat="47.63744" lon="-0.51387">
        <ele>45</ele>
        <time>2015-11-29T09:43:25Z</time>
      </trkpt>
      <trkpt lat="47.63744" lon="-0.51395">
        <ele>44</ele>
        <time>2015-11-29T09:43:30Z</time>
      </trkpt>
      <trkpt lat="47.63743" lon="-0.51404">
        <ele>44</ele>
        <time>2015-11-29T09:43:35Z</time>
      </trkpt>
      <trkpt lat="47.63741" lon="-0.51415">
        <ele>44</ele>
        <time>2015-11-29T09:43:40Z</time>
      </trkpt>
      <trkpt lat="47.6374" lon="-0.51424">
        <ele>44</ele>
        <time>2015-11-29T09:43:45Z</time>
      </trkpt>
      <trkpt lat="47.63739" lon="-0.51432">
        <ele>44</ele>
        <time>2015-11-29T09:43:50Z</time>
      </trkpt>
      <trkpt lat="47.63738" lon="-0.5144">
        <ele>44</ele>
        <time>2015-11-29T09:43:55Z</time>
      </trkpt>
      <trkpt lat="47.63737" lon="-0.51449">
        <ele>44</ele>
        <time>2015-11-29T09:44:00Z</time>
      </trkpt>
      <trkpt lat="47.63735" lon="-0.51462">
        <ele>44</ele>
        <time>2015-11-29T09:44:05Z</time>
      </trkpt>
      <trkpt lat="47.63734" lon="-0.51472">
        <ele>44</ele>
        <time>2015-11-29T09:44:10Z</time>
      </trkpt>
      <trkpt lat="47.63732" lon="-0.51482">
        <ele>44</ele>
        <time>2015-11-29T09:44:15Z</time>
      </trkpt>
      <trkpt lat="47.63732" lon="-0.5149">
        <ele>44</ele>
        <time>2015-11-29T09:44:20Z</time>
      </trkpt>
      <trkpt lat="47.6373" lon="-0.51499">
        <ele>44</ele>
        <time>2015-11-29T09:44:25Z</time>
      </trkpt>
      <trkpt lat="47.63729" lon="-0.51509">
        <ele>44</ele>
        <time>2015-11-29T09:44:30Z</time>
      </trkpt>
      <trkpt lat="47.63728" lon="-0.51518">
        <ele>44</ele>
        <time>2015-11-29T09:44:35Z</time>
      </trkpt>
      <trkpt lat="47.63727" lon="-0.51526">
        <ele>44</ele>
        <time>2015-11-29T09:44:40Z</time>
      </trkpt>
      <trkpt lat="47.63726" lon="-0.51535">
        <ele>44</ele>
        <time>2015-11-29T09:44:45Z</time>
      </trkpt>
      <trkpt lat="47.63725" lon="-0.51543">
        <ele>44</ele>
        <time>2015-11-29T09:44:50Z</time>
      </trkpt>
      <trkpt lat="47.63725" lon="-0.51551">
        <ele>44</ele>
        <time>2015-11-29T09:44:55Z</time>
      </trkpt>
      <trkpt lat="47.63723" lon="-0.51559">
        <ele>44</ele>
        <time>2015-11-29T09:45:00Z</time>
      </trkpt>
      <trkpt lat="47.63722" lon="-0.51568">
        <ele>44</ele>
        <time>2015-11-29T09:45:05Z</time>
      </trkpt>
      <trkpt lat="47.63721" lon="-0.51577">
        <ele>44</ele>
        <time>2015-11-29T09:45:10Z</time>
      </trkpt>
      <trkpt lat="47.63721" lon="-0.51585">
        <ele>44</ele>
        <time>2015-11-29T09:45:15Z</time>
      </trkpt>
      <trkpt lat="47.6372" lon="-0.51593">
        <ele>44</ele>
        <time>2015-11-29T09:45:20Z</time>
      </trkpt>
      <trkpt lat="47.63719" lon="-0.51602">
        <ele>44</ele>
        <time>2015-11-29T09:45:25Z</time>
      </trkpt>
      <trkpt lat="47.63718" lon="-0.51612">
        <ele>44</ele>
        <time>2015-11-29T09:45:30Z</time>
      </trkpt>
      <trkpt lat="47.63717" lon="-0.51621">
        <ele>44</ele>
        <time>2015-11-29T09:45:35Z</time>
      </trkpt>
      <trkpt lat="47.63715" lon="-0.51629">
        <ele>44</ele>
        <time>2015-11-29T09:45:40Z</time>
      </trkpt>
      <trkpt lat="47.63714" lon="-0.51637">
        <ele>44</ele>
        <time>2015-11-29T09:45:45Z</time>
      </trkpt>
      <trkpt lat="47.63713" lon="-0.51645">
        <ele>44</ele>
        <time>2015-11-29T09:45:50Z</time>
      </trkpt>
      <trkpt lat="47.63711" lon="-0.51653">
        <ele>44</ele>
        <time>2015-11-29T09:45:55Z</time>
      </trkpt>
      <trkpt lat="47.6371" lon="-0.51661">
        <ele>44</ele>
        <time>2015-11-29T09:46:00Z</time>
      </trkpt>
      <trkpt lat="47.63709" lon="-0.51669">
        <ele>44</ele>
        <time>2015-11-29T09:46:05Z</time>
      </trkpt>
      <trkpt lat="47.63708" lon="-0.51679">
        <ele>44</ele>
        <time>2015-11-29T09:46:10Z</time>
      </trkpt>
      <trkpt lat="47.63707" lon="-0.51688">
        <ele>44</ele>
        <time>2015-11-29T09:46:15Z</time>
      </trkpt>
      <trkpt lat="47.63706" lon="-0.51695">
        <ele>44</ele>
        <time>2015-11-29T09:46:20Z</time>
      </trkpt>
      <trkpt lat="47.63707" lon="-0.51703">
        <ele>44</ele>
        <time>2015-11-29T09:46:25Z</time>
      </trkpt>
      <trkpt lat="47.63707" lon="-0.5171">
        <ele>44</ele>
        <time>2015-11-29T09:46:30Z</time>
      </trkpt>
      <trkpt lat="47.63707" lon="-0.51714">
        <ele>44</ele>
        <time>2015-11-29T09:46:35Z</time>
      </trkpt>
      <trkpt lat="47.63707" lon="-0.51716">
        <ele>44</ele>
        <time>2015-11-29T09:46:40Z</time>
      </trkpt>
      <trkpt lat="47.63708" lon="-0.51717">
        <ele>44</ele>
        <time>2015-11-29T09:46:45Z</time>
      </trkpt>
      <trkpt lat="47.6371" lon="-0.51719">
        <ele>44</ele>
        <time>2015-11-29T09:46:50Z</time>
      </trkpt>
      <trkpt lat="47.63713" lon="-0.5172">
        <ele>44</ele>
        <time>2015-11-29T09:46:55Z</time>
      </trkpt>
      <trkpt lat="47.63718" lon="-0.51718">
        <ele>44</ele>
        <time>2015-11-29T09:47:00Z</time>
      </trkpt>
      <trkpt lat="47.63723" lon="-0.51714">
        <ele>44</ele>
        <time>2015-11-29T09:47:05Z</time>
      </trkpt>
      <trkpt lat="47.63728" lon="-0.51711">
        <ele>45</ele>
        <time>2015-11-29T09:47:10Z</time>
      </trkpt>
      <trkpt lat="47.63734" lon="-0.51707">
        <ele>45</ele>
        <time>2015-11-29T09:47:15Z</time>
      </trkpt>
      <trkpt lat="47.63739" lon="-0.51704">
        <ele>45</ele>
        <time>2015-11-29T09:47:20Z</time>
      </trkpt>
      <trkpt lat="47.63745" lon="-0.517">
        <ele>45</ele>
        <time>2015-11-29T09:47:25Z</time>
      </trkpt>
      <trkpt lat="47.63751" lon="-0.51696">
        <ele>45</ele>
        <time>2015-11-29T09:47:30Z</time>
      </trkpt>
      <trkpt lat="47.63757" lon="-0.51692">
        <ele>45</ele>
        <time>2015-11-29T09:47:35Z</time>
      </trkpt>
      <trkpt lat="47.63762" lon="-0.51688">
        <ele>45</ele>
        <time>2015-11-29T09:47:40Z</time>
      </trkpt>
      <trkpt lat="47.63768" lon="-0.51686">
        <ele>45</ele>
        <time>2015-11-29T09:47:45Z</time>
      </trkpt>
      <trkpt lat="47.63775" lon="-0.51682">
        <ele>45</ele>
        <time>2015-11-29T09:47:50Z</time>
      </trkpt>
      <trkpt lat="47.63779" lon="-0.5168">
        <ele>45</ele>
        <time>2015-11-29T09:47:55Z</time>
      </trkpt>
      <trkpt lat="47.63784" lon="-0.51676">
        <ele>45</ele>
        <time>2015-11-29T09:48:00Z</time>
      </trkpt>
      <trkpt lat="47.63788" lon="-0.51674">
        <ele>45</ele>
        <time>2015-11-29T09:48:05Z</time>
      </trkpt>
      <trkpt lat="47.63794" lon="-0.51671">
        <ele>45</ele>
        <time>2015-11-29T09:48:10Z</time>
      </trkpt>
      <trkpt lat="47.63799" lon="-0.51667">
        <ele>45</ele>
        <time>2015-11-29T09:48:15Z</time>
      </trkpt>
      <trkpt lat="47.63805" lon="-0.51663">
        <ele>45</ele>
        <time>2015-11-29T09:48:20Z</time>
      </trkpt>
      <trkpt lat="47.63811" lon="-0.5166">
        <ele>45</ele>
        <time>2015-11-29T09:48:25Z</time>
      </trkpt>
      <trkpt lat="47.63818" lon="-0.51655">
        <ele>45</ele>
        <time>2015-11-29T09:48:30Z</time>
      </trkpt>
      <trkpt lat="47.63823" lon="-0.51652">
        <ele>45</ele>
        <time>2015-11-29T09:48:35Z</time>
      </trkpt>
      <trkpt lat="47.63829" lon="-0.51649">
        <ele>45</ele>
        <time>2015-11-29T09:48:40Z</time>
      </trkpt>
      <trkpt lat="47.63835" lon="-0.51645">
        <ele>45</ele>
        <time>2015-11-29T09:48:45Z</time>
      </trkpt>
      <trkpt lat="47.63841" lon="-0.51641">
        <ele>45</ele>
        <time>2015-11-29T09:48:50Z</time>
      </trkpt>
      <trkpt lat="47.63847" lon="-0.51637">
        <ele>44</ele>
        <time>2015-11-29T09:48:55Z</time>
      </trkpt>
      <trkpt lat="47.63852" lon="-0.51633">
        <ele>44</ele>
        <time>2015-11-29T09:49:00Z</time>
      </trkpt>
      <trkpt lat="47.63858" lon="-0.51629">
        <ele>44</ele>
        <time>2015-11-29T09:49:05Z</time>
      </trkpt>
      <trkpt lat="47.63864" lon="-0.51625">
        <ele>44</ele>
        <time>2015-11-29T09:49:10Z</time>
      </trkpt>
      <trkpt lat="47.6387" lon="-0.51621">
        <ele>44</ele>
        <time>2015-11-29T09:49:15Z</time>
      </trkpt>
      <trkpt lat="47.63875" lon="-0.51618">
        <ele>44</ele>
        <time>2015-11-29T09:49:20Z</time>
      </trkpt>
      <trkpt lat="47.63881" lon="-0.51615">
        <ele>44</ele>
        <time>2015-11-29T09:49:25Z</time>
      </trkpt>
      <trkpt lat="47.63887" lon="-0.51611">
        <ele>44</ele>
        <time>2015-11-29T09:49:30Z</time>
      </trkpt>
      <trkpt lat="47.63892" lon="-0.51607">
        <ele>44</ele>
        <time>2015-11-29T09:49:35Z</time>
      </trkpt>
      <trkpt lat="47.63897" lon="-0.51604">
        <ele>44</ele>
        <time>2015-11-29T09:49:40Z</time>
      </trkpt>
      <trkpt lat="47.63902" lon="-0.516">
        <ele>43</ele>
        <time>2015-11-29T09:49:45Z</time>
      </trkpt>
      <trkpt lat="47.63908" lon="-0.51597">
        <ele>43</ele>
        <time>2015-11-29T09:49:50Z</time>
      </trkpt>
      <trkpt lat="47.63914" lon="-0.51593">
        <ele>43</ele>
        <time>2015-11-29T09:49:55Z</time>
      </trkpt>
      <trkpt lat="47.6392" lon="-0.51589">
        <ele>43</ele>
        <time>2015-11-29T09:50:00Z</time>
      </trkpt>
      <trkpt lat="47.63926" lon="-0.51586">
        <ele>43</ele>
        <time>2015-11-29T09:50:05Z</time>
      </trkpt>
      <trkpt lat="47.63932" lon="-0.51582">
        <ele>43</ele>
        <time>2015-11-29T09:50:10Z</time>
      </trkpt>
      <trkpt lat="47.63938" lon="-0.51579">
        <ele>43</ele>
        <time>2015-11-29T09:50:15Z</time>
      </trkpt>
      <trkpt lat="47.63943" lon="-0.51575">
        <ele>43</ele>
        <time>2015-11-29T09:50:20Z</time>
      </trkpt>
      <trkpt lat="47.63948" lon="-0.5157">
        <ele>43</ele>
        <time>2015-11-29T09:50:25Z</time>
      </trkpt>
      <trkpt lat="47.63953" lon="-0.51562">
        <ele>43</ele>
        <time>2015-11-29T09:50:30Z</time>
      </trkpt>
      <trkpt lat="47.63957" lon="-0.51555">
        <ele>43</ele>
        <time>2015-11-29T09:50:35Z</time>
      </trkpt>
      <trkpt lat="47.6396" lon="-0.51548">
        <ele>43</ele>
        <time>2015-11-29T09:50:40Z</time>
      </trkpt>
      <trkpt lat="47.63963" lon="-0.51539">
        <ele>43</ele>
        <time>2015-11-29T09:50:45Z</time>
      </trkpt>
      <trkpt lat="47.63965" lon="-0.5153">
        <ele>43</ele>
        <time>2015-11-29T09:50:50Z</time>
      </trkpt>
      <trkpt lat="47.63967" lon="-0.51521">
        <ele>43</ele>
        <time>2015-11-29T09:50:55Z</time>
      </trkpt>
      <trkpt lat="47.63969" lon="-0.51514">
        <ele>42</ele>
        <time>2015-11-29T09:51:00Z</time>
      </trkpt>
      <trkpt lat="47.63972" lon="-0.51506">
        <ele>42</ele>
        <time>2015-11-29T09:51:05Z</time>
      </trkpt>
      <trkpt lat="47.63975" lon="-0.51499">
        <ele>42</ele>
        <time>2015-11-29T09:51:10Z</time>
      </trkpt>
      <trkpt lat="47.63978" lon="-0.51494">
        <ele>42</ele>
        <time>2015-11-29T09:51:15Z</time>
      </trkpt>
      <trkpt lat="47.63979" lon="-0.51494">
        <ele>42</ele>
        <time>2015-11-29T09:51:20Z</time>
      </trkpt>
      <trkpt lat="47.63979" lon="-0.51494">
        <ele>42</ele>
        <time>2015-11-29T09:51:25Z</time>
      </trkpt>
      <trkpt lat="47.63979" lon="-0.51494">
        <ele>42</ele>
        <time>2015-11-29T09:51:30Z</time>
      </trkpt>
      <trkpt lat="47.63979" lon="-0.51494">
        <ele>42</ele>
        <time>2015-11-29T09:51:35Z</time>
      </trkpt>
      <trkpt lat="47.63979" lon="-0.51494">
        <ele>42</ele>
        <time>2015-11-29T09:51:40Z</time>
      </trkpt>
      <trkpt lat="47.6398" lon="-0.51493">
        <ele>42</ele>
        <time>2015-11-29T09:51:45Z</time>
      </trkpt>
      <trkpt lat="47.63984" lon="-0.51492">
        <ele>43</ele>
        <time>2015-11-29T09:51:50Z</time>
      </trkpt>
      <trkpt lat="47.63989" lon="-0.51494">
        <ele>43</ele>
        <time>2015-11-29T09:51:55Z</time>
      </trkpt>
      <trkpt lat="47.63995" lon="-0.51497">
        <ele>43</ele>
        <time>2015-11-29T09:52:00Z</time>
      </trkpt>
      <trkpt lat="47.64001" lon="-0.51499">
        <ele>43</ele>
        <time>2015-11-29T09:52:05Z</time>
      </trkpt>
      <trkpt lat="47.64007" lon="-0.51502">
        <ele>43</ele>
        <time>2015-11-29T09:52:10Z</time>
      </trkpt>
      <trkpt lat="47.64012" lon="-0.51505">
        <ele>43</ele>
        <time>2015-11-29T09:52:15Z</time>
      </trkpt>
      <trkpt lat="47.64018" lon="-0.5151">
        <ele>43</ele>
        <time>2015-11-29T09:52:20Z</time>
      </trkpt>
      <trkpt lat="47.64022" lon="-0.51514">
        <ele>43</ele>
        <time>2015-11-29T09:52:25Z</time>
      </trkpt>
      <trkpt lat="47.64025" lon="-0.51521">
        <ele>43</ele>
        <time>2015-11-29T09:52:30Z</time>
      </trkpt>
      <trkpt lat="47.64028" lon="-0.51528">
        <ele>43</ele>
        <time>2015-11-29T09:52:35Z</time>
      </trkpt>
      <trkpt lat="47.64027" lon="-0.51536">
        <ele>43</ele>
        <time>2015-11-29T09:52:40Z</time>
      </trkpt>
      <trkpt lat="47.64026" lon="-0.51545">
        <ele>43</ele>
        <time>2015-11-29T09:52:45Z</time>
      </trkpt>
      <trkpt lat="47.64025" lon="-0.51553">
        <ele>43</ele>
        <time>2015-11-29T09:52:50Z</time>
      </trkpt>
      <trkpt lat="47.64023" lon="-0.51563">
        <ele>43</ele>
        <time>2015-11-29T09:52:55Z</time>
      </trkpt>
      <trkpt lat="47.64022" lon="-0.51569">
        <ele>43</ele>
        <time>2015-11-29T09:53:00Z</time>
      </trkpt>
      <trkpt lat="47.6402" lon="-0.51576">
        <ele>43</ele>
        <time>2015-11-29T09:53:05Z</time>
      </trkpt>
      <trkpt lat="47.64019" lon="-0.51584">
        <ele>43</ele>
        <time>2015-11-29T09:53:10Z</time>
      </trkpt>
      <trkpt lat="47.64017" lon="-0.51591">
        <ele>43</ele>
        <time>2015-11-29T09:53:15Z</time>
      </trkpt>
      <trkpt lat="47.64016" lon="-0.51599">
        <ele>43</ele>
        <time>2015-11-29T09:53:20Z</time>
      </trkpt>
      <trkpt lat="47.64014" lon="-0.51606">
        <ele>44</ele>
        <time>2015-11-29T09:53:25Z</time>
      </trkpt>
      <trkpt lat="47.64012" lon="-0.51615">
        <ele>44</ele>
        <time>2015-11-29T09:53:30Z</time>
      </trkpt>
      <trkpt lat="47.6401" lon="-0.51623">
        <ele>44</ele>
        <time>2015-11-29T09:53:35Z</time>
      </trkpt>
      <trkpt lat="47.64009" lon="-0.51631">
        <ele>44</ele>
        <time>2015-11-29T09:53:40Z</time>
      </trkpt>
      <trkpt lat="47.64007" lon="-0.51637">
        <ele>44</ele>
        <time>2015-11-29T09:53:45Z</time>
      </trkpt>
      <trkpt lat="47.64005" lon="-0.51645">
        <ele>44</ele>
        <time>2015-11-29T09:53:50Z</time>
      </trkpt>
      <trkpt lat="47.64003" lon="-0.51653">
        <ele>44</ele>
        <time>2015-11-29T09:53:55Z</time>
      </trkpt>
      <trkpt lat="47.64002" lon="-0.51661">
        <ele>44</ele>
        <time>2015-11-29T09:54:00Z</time>
      </trkpt>
      <trkpt lat="47.64" lon="-0.5167">
        <ele>44</ele>
        <time>2015-11-29T09:54:05Z</time>
      </trkpt>
      <trkpt lat="47.63999" lon="-0.51678">
        <ele>44</ele>
        <time>2015-11-29T09:54:10Z</time>
      </trkpt>
      <trkpt lat="47.63999" lon="-0.51685">
        <ele>44</ele>
        <time>2015-11-29T09:54:15Z</time>
      </trkpt>
      <trkpt lat="47.63999" lon="-0.51691">
        <ele>44</ele>
        <time>2015-11-29T09:54:20Z</time>
      </trkpt>
      <trkpt lat="47.63998" lon="-0.51699">
        <ele>44</ele>
        <time>2015-11-29T09:54:25Z</time>
      </trkpt>
      <trkpt lat="47.63998" lon="-0.51707">
        <ele>44</ele>
        <time>2015-11-29T09:54:30Z</time>
      </trkpt>
      <trkpt lat="47.63999" lon="-0.51714">
        <ele>44</ele>
        <time>2015-11-29T09:54:35Z</time>
      </trkpt>
      <trkpt lat="47.64001" lon="-0.51721">
        <ele>44</ele>
        <time>2015-11-29T09:54:40Z</time>
      </trkpt>
      <trkpt lat="47.64002" lon="-0.51728">
        <ele>44</ele>
        <time>2015-11-29T09:54:45Z</time>
      </trkpt>
      <trkpt lat="47.64001" lon="-0.51739">
        <ele>44</ele>
        <time>2015-11-29T09:54:50Z</time>
      </trkpt>
      <trkpt lat="47.64" lon="-0.5175">
        <ele>45</ele>
        <time>2015-11-29T09:54:55Z</time>
      </trkpt>
      <trkpt lat="47.64001" lon="-0.51758">
        <ele>45</ele>
        <time>2015-11-29T09:55:00Z</time>
      </trkpt>
      <trkpt lat="47.64003" lon="-0.51768">
        <ele>45</ele>
        <time>2015-11-29T09:55:05Z</time>
      </trkpt>
      <trkpt lat="47.64005" lon="-0.51776">
        <ele>45</ele>
        <time>2015-11-29T09:55:10Z</time>
      </trkpt>
      <trkpt lat="47.64008" lon="-0.51784">
        <ele>45</ele>
        <time>2015-11-29T09:55:15Z</time>
      </trkpt>
      <trkpt lat="47.64011" lon="-0.51792">
        <ele>45</ele>
        <time>2015-11-29T09:55:20Z</time>
      </trkpt>
      <trkpt lat="47.64012" lon="-0.51802">
        <ele>45</ele>
        <time>2015-11-29T09:55:25Z</time>
      </trkpt>
      <trkpt lat="47.64014" lon="-0.51814">
        <ele>46</ele>
        <time>2015-11-29T09:55:30Z</time>
      </trkpt>
      <trkpt lat="47.64017" lon="-0.51822">
        <ele>46</ele>
        <time>2015-11-29T09:55:35Z</time>
      </trkpt>
      <trkpt lat="47.64021" lon="-0.51829">
        <ele>46</ele>
        <time>2015-11-29T09:55:40Z</time>
      </trkpt>
      <trkpt lat="47.64025" lon="-0.51837">
        <ele>46</ele>
        <time>2015-11-29T09:55:45Z</time>
      </trkpt>
      <trkpt lat="47.64029" lon="-0.51844">
        <ele>46</ele>
        <time>2015-11-29T09:55:50Z</time>
      </trkpt>
      <trkpt lat="47.64031" lon="-0.51851">
        <ele>46</ele>
        <time>2015-11-29T09:55:55Z</time>
      </trkpt>
      <trkpt lat="47.64033" lon="-0.5186">
        <ele>46</ele>
        <time>2015-11-29T09:56:00Z</time>
      </trkpt>
      <trkpt lat="47.64034" lon="-0.51867">
        <ele>46</ele>
        <time>2015-11-29T09:56:05Z</time>
      </trkpt>
      <trkpt lat="47.64036" lon="-0.51876">
        <ele>46</ele>
        <time>2015-11-29T09:56:10Z</time>
      </trkpt>
      <trkpt lat="47.64039" lon="-0.51884">
        <ele>46</ele>
        <time>2015-11-29T09:56:15Z</time>
      </trkpt>
      <trkpt lat="47.6404" lon="-0.51892">
        <ele>46</ele>
        <time>2015-11-29T09:56:20Z</time>
      </trkpt>
      <trkpt lat="47.64043" lon="-0.519">
        <ele>46</ele>
        <time>2015-11-29T09:56:25Z</time>
      </trkpt>
      <trkpt lat="47.64045" lon="-0.51907">
        <ele>46</ele>
        <time>2015-11-29T09:56:30Z</time>
      </trkpt>
      <trkpt lat="47.64046" lon="-0.51915">
        <ele>46</ele>
        <time>2015-11-29T09:56:35Z</time>
      </trkpt>
      <trkpt lat="47.64048" lon="-0.51923">
        <ele>46</ele>
        <time>2015-11-29T09:56:40Z</time>
      </trkpt>
      <trkpt lat="47.6405" lon="-0.51931">
        <ele>46</ele>
        <time>2015-11-29T09:56:45Z</time>
      </trkpt>
      <trkpt lat="47.64053" lon="-0.51939">
        <ele>46</ele>
        <time>2015-11-29T09:56:50Z</time>
      </trkpt>
      <trkpt lat="47.64055" lon="-0.51947">
        <ele>47</ele>
        <time>2015-11-29T09:56:55Z</time>
      </trkpt>
      <trkpt lat="47.64057" lon="-0.51953">
        <ele>47</ele>
        <time>2015-11-29T09:57:00Z</time>
      </trkpt>
      <trkpt lat="47.64059" lon="-0.51961">
        <ele>47</ele>
        <time>2015-11-29T09:57:05Z</time>
      </trkpt>
      <trkpt lat="47.6406" lon="-0.51968">
        <ele>47</ele>
        <time>2015-11-29T09:57:10Z</time>
      </trkpt>
      <trkpt lat="47.64062" lon="-0.51975">
        <ele>47</ele>
        <time>2015-11-29T09:57:15Z</time>
      </trkpt>
      <trkpt lat="47.64063" lon="-0.51982">
        <ele>47</ele>
        <time>2015-11-29T09:57:20Z</time>
      </trkpt>
      <trkpt lat="47.64064" lon="-0.51989">
        <ele>48</ele>
        <time>2015-11-29T09:57:25Z</time>
      </trkpt>
      <trkpt lat="47.64065" lon="-0.51998">
        <ele>48</ele>
        <time>2015-11-29T09:57:30Z</time>
      </trkpt>
      <trkpt lat="47.64067" lon="-0.52005">
        <ele>48</ele>
        <time>2015-11-29T09:57:35Z</time>
      </trkpt>
      <trkpt lat="47.64069" lon="-0.5201">
        <ele>48</ele>
        <time>2015-11-29T09:57:40Z</time>
      </trkpt>
      <trkpt lat="47.64069" lon="-0.52017">
        <ele>49</ele>
        <time>2015-11-29T09:57:45Z</time>
      </trkpt>
      <trkpt lat="47.64069" lon="-0.52025">
        <ele>49</ele>
        <time>2015-11-29T09:57:50Z</time>
      </trkpt>
      <trkpt lat="47.64074" lon="-0.52031">
        <ele>49</ele>
        <time>2015-11-29T09:57:55Z</time>
      </trkpt>
      <trkpt lat="47.64076" lon="-0.52042">
        <ele>49</ele>
        <time>2015-11-29T09:58:00Z</time>
      </trkpt>
      <trkpt lat="47.64078" lon="-0.52048">
        <ele>50</ele>
        <time>2015-11-29T09:58:05Z</time>
      </trkpt>
      <trkpt lat="47.64081" lon="-0.52053">
        <ele>50</ele>
        <time>2015-11-29T09:58:10Z</time>
      </trkpt>
      <trkpt lat="47.64087" lon="-0.52058">
        <ele>50</ele>
        <time>2015-11-29T09:58:15Z</time>
      </trkpt>
      <trkpt lat="47.6409" lon="-0.52062">
        <ele>50</ele>
        <time>2015-11-29T09:58:20Z</time>
      </trkpt>
      <trkpt lat="47.64095" lon="-0.52067">
        <ele>49</ele>
        <time>2015-11-29T09:58:25Z</time>
      </trkpt>
      <trkpt lat="47.64098" lon="-0.52075">
        <ele>49</ele>
        <time>2015-11-29T09:58:30Z</time>
      </trkpt>
      <trkpt lat="47.64102" lon="-0.52081">
        <ele>49</ele>
        <time>2015-11-29T09:58:35Z</time>
      </trkpt>
      <trkpt lat="47.64104" lon="-0.52087">
        <ele>49</ele>
        <time>2015-11-29T09:58:40Z</time>
      </trkpt>
      <trkpt lat="47.64108" lon="-0.52092">
        <ele>48</ele>
        <time>2015-11-29T09:58:45Z</time>
      </trkpt>
      <trkpt lat="47.64111" lon="-0.521">
        <ele>48</ele>
        <time>2015-11-29T09:58:50Z</time>
      </trkpt>
      <trkpt lat="47.64115" lon="-0.52107">
        <ele>48</ele>
        <time>2015-11-29T09:58:55Z</time>
      </trkpt>
      <trkpt lat="47.64119" lon="-0.52115">
        <ele>48</ele>
        <time>2015-11-29T09:59:00Z</time>
      </trkpt>
      <trkpt lat="47.64122" lon="-0.52121">
        <ele>48</ele>
        <time>2015-11-29T09:59:05Z</time>
      </trkpt>
      <trkpt lat="47.64125" lon="-0.52127">
        <ele>48</ele>
        <time>2015-11-29T09:59:10Z</time>
      </trkpt>
      <trkpt lat="47.64131" lon="-0.52132">
        <ele>47</ele>
        <time>2015-11-29T09:59:15Z</time>
      </trkpt>
      <trkpt lat="47.64135" lon="-0.52137">
        <ele>47</ele>
        <time>2015-11-29T09:59:20Z</time>
      </trkpt>
      <trkpt lat="47.64138" lon="-0.5214">
        <ele>47</ele>
        <time>2015-11-29T09:59:25Z</time>
      </trkpt>
      <trkpt lat="47.6414" lon="-0.52144">
        <ele>47</ele>
        <time>2015-11-29T09:59:30Z</time>
      </trkpt>
      <trkpt lat="47.64141" lon="-0.52149">
        <ele>47</ele>
        <time>2015-11-29T09:59:35Z</time>
      </trkpt>
      <trkpt lat="47.64141" lon="-0.52157">
        <ele>47</ele>
        <time>2015-11-29T09:59:40Z</time>
      </trkpt>
      <trkpt lat="47.64137" lon="-0.52163">
        <ele>47</ele>
        <time>2015-11-29T09:59:45Z</time>
      </trkpt>
      <trkpt lat="47.64136" lon="-0.52166">
        <ele>47</ele>
        <time>2015-11-29T09:59:50Z</time>
      </trkpt>
      <trkpt lat="47.64134" lon="-0.52171">
        <ele>47</ele>
        <time>2015-11-29T09:59:55Z</time>
      </trkpt>
      <trkpt lat="47.64133" lon="-0.52175">
        <ele>47</ele>
        <time>2015-11-29T10:00:00Z</time>
      </trkpt>
      <trkpt lat="47.64132" lon="-0.52182">
        <ele>47</ele>
        <time>2015-11-29T10:00:05Z</time>
      </trkpt>
      <trkpt lat="47.64131" lon="-0.52189">
        <ele>47</ele>
        <time>2015-11-29T10:00:10Z</time>
      </trkpt>
      <trkpt lat="47.6413" lon="-0.52197">
        <ele>47</ele>
        <time>2015-11-29T10:00:15Z</time>
      </trkpt>
      <trkpt lat="47.64129" lon="-0.52205">
        <ele>47</ele>
        <time>2015-11-29T10:00:20Z</time>
      </trkpt>
      <trkpt lat="47.64129" lon="-0.52213">
        <ele>47</ele>
        <time>2015-11-29T10:00:25Z</time>
      </trkpt>
      <trkpt lat="47.64128" lon="-0.52221">
        <ele>47</ele>
        <time>2015-11-29T10:00:30Z</time>
      </trkpt>
      <trkpt lat="47.64127" lon="-0.52233">
        <ele>47</ele>
        <time>2015-11-29T10:00:35Z</time>
      </trkpt>
      <trkpt lat="47.64126" lon="-0.52241">
        <ele>47</ele>
        <time>2015-11-29T10:00:40Z</time>
      </trkpt>
      <trkpt lat="47.64124" lon="-0.52252">
        <ele>47</ele>
        <time>2015-11-29T10:00:45Z</time>
      </trkpt>
      <trkpt lat="47.64124" lon="-0.52259">
        <ele>47</ele>
        <time>2015-11-29T10:00:50Z</time>
      </trkpt>
      <trkpt lat="47.64124" lon="-0.52259">
        <ele>47</ele>
        <time>2015-11-29T10:00:55Z</time>
      </trkpt>
      <trkpt lat="47.64125" lon="-0.5226">
        <ele>47</ele>
        <time>2015-11-29T10:01:00Z</time>
      </trkpt>
      <trkpt lat="47.64126" lon="-0.52265">
        <ele>47</ele>
        <time>2015-11-29T10:01:05Z</time>
      </trkpt>
      <trkpt lat="47.64126" lon="-0.52271">
        <ele>47</ele>
        <time>2015-11-29T10:01:10Z</time>
      </trkpt>
      <trkpt lat="47.64126" lon="-0.52272">
        <ele>47</ele>
        <time>2015-11-29T10:01:15Z</time>
      </trkpt>
      <trkpt lat="47.64126" lon="-0.52272">
        <ele>47</ele>
        <time>2015-11-29T10:01:20Z</time>
      </trkpt>
      <trkpt lat="47.64126" lon="-0.52272">
        <ele>47</ele>
        <time>2015-11-29T10:01:25Z</time>
      </trkpt>
      <trkpt lat="47.64126" lon="-0.52272">
        <ele>47</ele>
        <time>2015-11-29T10:01:30Z</time>
      </trkpt>
      <trkpt lat="47.64126" lon="-0.52272">
        <ele>47</ele>
        <time>2015-11-29T10:01:35Z</time>
      </trkpt>
      <trkpt lat="47.64126" lon="-0.52272">
        <ele>47</ele>
        <time>2015-11-29T10:01:40Z</time>
      </trkpt>
      <trkpt lat="47.64126" lon="-0.52272">
        <ele>47</ele>
        <time>2015-11-29T10:01:45Z</time>
      </trkpt>
      <trkpt lat="47.64126" lon="-0.52272">
        <ele>47</ele>
        <time>2015-11-29T10:01:50Z</time>
      </trkpt>
      <trkpt lat="47.64126" lon="-0.52272">
        <ele>47</ele>
        <time>2015-11-29T10:01:55Z</time>
      </trkpt>
      <trkpt lat="47.64126" lon="-0.52272">
        <ele>47</ele>
        <time>2015-11-29T10:02:00Z</time>
      </trkpt>
      <trkpt lat="47.64127" lon="-0.52272">
        <ele>47</ele>
        <time>2015-11-29T10:02:05Z</time>
      </trkpt>
      <trkpt lat="47.64127" lon="-0.52272">
        <ele>47</ele>
        <time>2015-11-29T10:02:10Z</time>
      </trkpt>
      <trkpt lat="47.64127" lon="-0.52272">
        <ele>47</ele>
        <time>2015-11-29T10:02:15Z</time>
      </trkpt>
      <trkpt lat="47.64127" lon="-0.52272">
        <ele>47</ele>
        <time>2015-11-29T10:02:20Z</time>
      </trkpt>
      <trkpt lat="47.64127" lon="-0.52272">
        <ele>47</ele>
        <time>2015-11-29T10:02:25Z</time>
      </trkpt>
      <trkpt lat="47.64127" lon="-0.52272">
        <ele>47</ele>
        <time>2015-11-29T10:02:30Z</time>
      </trkpt>
      <trkpt lat="47.64127" lon="-0.52272">
        <ele>47</ele>
        <time>2015-11-29T10:02:35Z</time>
      </trkpt>
      <trkpt lat="47.64127" lon="-0.52272">
        <ele>47</ele>
        <time>2015-11-29T10:02:40Z</time>
      </trkpt>
      <trkpt lat="47.64127" lon="-0.52272">
        <ele>47</ele>
        <time>2015-11-29T10:02:45Z</time>
      </trkpt>
      <trkpt lat="47.64127" lon="-0.52272">
        <ele>47</ele>
        <time>2015-11-29T10:02:50Z</time>
      </trkpt>
      <trkpt lat="47.64126" lon="-0.52271">
        <ele>47</ele>
        <time>2015-11-29T10:02:55Z</time>
      </trkpt>
      <trkpt lat="47.64126" lon="-0.52271">
        <ele>47</ele>
        <time>2015-11-29T10:03:00Z</time>
      </trkpt>
      <trkpt lat="47.64126" lon="-0.52271">
        <ele>47</ele>
        <time>2015-11-29T10:03:05Z</time>
      </trkpt>
      <trkpt lat="47.64126" lon="-0.5227">
        <ele>47</ele>
        <time>2015-11-29T10:03:10Z</time>
      </trkpt>
      <trkpt lat="47.64126" lon="-0.5227">
        <ele>47</ele>
        <time>2015-11-29T10:03:15Z</time>
      </trkpt>
      <trkpt lat="47.64126" lon="-0.5227">
        <ele>47</ele>
        <time>2015-11-29T10:03:20Z</time>
      </trkpt>
      <trkpt lat="47.64126" lon="-0.5227">
        <ele>47</ele>
        <time>2015-11-29T10:03:25Z</time>
      </trkpt>
      <trkpt lat="47.64126" lon="-0.5227">
        <ele>47</ele>
        <time>2015-11-29T10:03:30Z</time>
      </trkpt>
      <trkpt lat="47.64126" lon="-0.5227">
        <ele>47</ele>
        <time>2015-11-29T10:03:35Z</time>
      </trkpt>
      <trkpt lat="47.64126" lon="-0.5227">
        <ele>47</ele>
        <time>2015-11-29T10:03:40Z</time>
      </trkpt>
      <trkpt lat="47.64127" lon="-0.5227">
        <ele>47</ele>
        <time>2015-11-29T10:03:45Z</time>
      </trkpt>
      <trkpt lat="47.64127" lon="-0.5227">
        <ele>47</ele>
        <time>2015-11-29T10:03:50Z</time>
      </trkpt>
      <trkpt lat="47.64127" lon="-0.5227">
        <ele>47</ele>
        <time>2015-11-29T10:03:55Z</time>
      </trkpt>
      <trkpt lat="47.64127" lon="-0.52269">
        <ele>47</ele>
        <time>2015-11-29T10:04:00Z</time>
      </trkpt>
      <trkpt lat="47.64128" lon="-0.52269">
        <ele>47</ele>
        <time>2015-11-29T10:04:05Z</time>
      </trkpt>
      <trkpt lat="47.64128" lon="-0.52269">
        <ele>47</ele>
        <time>2015-11-29T10:04:10Z</time>
      </trkpt>
      <trkpt lat="47.64128" lon="-0.52269">
        <ele>47</ele>
        <time>2015-11-29T10:04:15Z</time>
      </trkpt>
      <trkpt lat="47.64128" lon="-0.52269">
        <ele>47</ele>
        <time>2015-11-29T10:04:20Z</time>
      </trkpt>
      <trkpt lat="47.64128" lon="-0.52269">
        <ele>47</ele>
        <time>2015-11-29T10:04:25Z</time>
      </trkpt>
      <trkpt lat="47.64128" lon="-0.52269">
        <ele>47</ele>
        <time>2015-11-29T10:04:30Z</time>
      </trkpt>
      <trkpt lat="47.64128" lon="-0.52269">
        <ele>47</ele>
        <time>2015-11-29T10:04:35Z</time>
      </trkpt>
      <trkpt lat="47.64128" lon="-0.52268">
        <ele>47</ele>
        <time>2015-11-29T10:04:40Z</time>
      </trkpt>
      <trkpt lat="47.64127" lon="-0.52268">
        <ele>47</ele>
        <time>2015-11-29T10:04:45Z</time>
      </trkpt>
      <trkpt lat="47.64127" lon="-0.52268">
        <ele>47</ele>
        <time>2015-11-29T10:04:50Z</time>
      </trkpt>
      <trkpt lat="47.64126" lon="-0.52268">
        <ele>47</ele>
        <time>2015-11-29T10:04:55Z</time>
      </trkpt>
      <trkpt lat="47.64126" lon="-0.52268">
        <ele>47</ele>
        <time>2015-11-29T10:05:00Z</time>
      </trkpt>
      <trkpt lat="47.64126" lon="-0.52268">
        <ele>47</ele>
        <time>2015-11-29T10:05:05Z</time>
      </trkpt>
      <trkpt lat="47.64125" lon="-0.52268">
        <ele>47</ele>
        <time>2015-11-29T10:05:10Z</time>
      </trkpt>
      <trkpt lat="47.64125" lon="-0.52268">
        <ele>47</ele>
        <time>2015-11-29T10:05:15Z</time>
      </trkpt>
      <trkpt lat="47.64125" lon="-0.52269">
        <ele>47</ele>
        <time>2015-11-29T10:05:20Z</time>
      </trkpt>
      <trkpt lat="47.64125" lon="-0.52269">
        <ele>47</ele>
        <time>2015-11-29T10:05:25Z</time>
      </trkpt>
      <trkpt lat="47.64125" lon="-0.52269">
        <ele>47</ele>
        <time>2015-11-29T10:05:30Z</time>
      </trkpt>
      <trkpt lat="47.64125" lon="-0.52269">
        <ele>47</ele>
        <time>2015-11-29T10:05:35Z</time>
      </trkpt>
      <trkpt lat="47.64125" lon="-0.52269">
        <ele>47</ele>
        <time>2015-11-29T10:05:40Z</time>
      </trkpt>
      <trkpt lat="47.64125" lon="-0.52269">
        <ele>47</ele>
        <time>2015-11-29T10:05:45Z</time>
      </trkpt>
      <trkpt lat="47.64124" lon="-0.5227">
        <ele>47</ele>
        <time>2015-11-29T10:05:50Z</time>
      </trkpt>
      <trkpt lat="47.64124" lon="-0.5227">
        <ele>47</ele>
        <time>2015-11-29T10:05:55Z</time>
      </trkpt>
      <trkpt lat="47.64125" lon="-0.52271">
        <ele>47</ele>
        <time>2015-11-29T10:06:00Z</time>
      </trkpt>
      <trkpt lat="47.64125" lon="-0.52271">
        <ele>47</ele>
        <time>2015-11-29T10:06:05Z</time>
      </trkpt>
      <trkpt lat="47.64124" lon="-0.52272">
        <ele>47</ele>
        <time>2015-11-29T10:06:10Z</time>
      </trkpt>
      <trkpt lat="47.64124" lon="-0.52271">
        <ele>47</ele>
        <time>2015-11-29T10:06:15Z</time>
      </trkpt>
      <trkpt lat="47.64124" lon="-0.52267">
        <ele>47</ele>
        <time>2015-11-29T10:06:20Z</time>
      </trkpt>
      <trkpt lat="47.64126" lon="-0.52267">
        <ele>47</ele>
        <time>2015-11-29T10:06:25Z</time>
      </trkpt>
      <trkpt lat="47.64129" lon="-0.52271">
        <ele>47</ele>
        <time>2015-11-29T10:06:30Z</time>
      </trkpt>
      <trkpt lat="47.64133" lon="-0.52273">
        <ele>47</ele>
        <time>2015-11-29T10:06:35Z</time>
      </trkpt>
      <trkpt lat="47.64137" lon="-0.52277">
        <ele>46</ele>
        <time>2015-11-29T10:06:40Z</time>
      </trkpt>
      <trkpt lat="47.64142" lon="-0.52281">
        <ele>46</ele>
        <time>2015-11-29T10:06:45Z</time>
      </trkpt>
      <trkpt lat="47.64147" lon="-0.52284">
        <ele>46</ele>
        <time>2015-11-29T10:06:50Z</time>
      </trkpt>
      <trkpt lat="47.64152" lon="-0.52287">
        <ele>46</ele>
        <time>2015-11-29T10:06:55Z</time>
      </trkpt>
      <trkpt lat="47.64156" lon="-0.5229">
        <ele>46</ele>
        <time>2015-11-29T10:07:00Z</time>
      </trkpt>
      <trkpt lat="47.6416" lon="-0.52292">
        <ele>45</ele>
        <time>2015-11-29T10:07:05Z</time>
      </trkpt>
      <trkpt lat="47.64165" lon="-0.52294">
        <ele>45</ele>
        <time>2015-11-29T10:07:10Z</time>
      </trkpt>
      <trkpt lat="47.64169" lon="-0.52295">
        <ele>45</ele>
        <time>2015-11-29T10:07:15Z</time>
      </trkpt>
      <trkpt lat="47.64173" lon="-0.52299">
        <ele>44</ele>
        <time>2015-11-29T10:07:20Z</time>
      </trkpt>
      <trkpt lat="47.64176" lon="-0.52302">
        <ele>44</ele>
        <time>2015-11-29T10:07:25Z</time>
      </trkpt>
      <trkpt lat="47.64179" lon="-0.52304">
        <ele>44</ele>
        <time>2015-11-29T10:07:30Z</time>
      </trkpt>
      <trkpt lat="47.64183" lon="-0.52306">
        <ele>44</ele>
        <time>2015-11-29T10:07:35Z</time>
      </trkpt>
      <trkpt lat="47.64187" lon="-0.52307">
        <ele>43</ele>
        <time>2015-11-29T10:07:40Z</time>
      </trkpt>
      <trkpt lat="47.64191" lon="-0.52309">
        <ele>43</ele>
        <time>2015-11-29T10:07:45Z</time>
      </trkpt>
      <trkpt lat="47.64195" lon="-0.52312">
        <ele>43</ele>
        <time>2015-11-29T10:07:50Z</time>
      </trkpt>
      <trkpt lat="47.64199" lon="-0.52314">
        <ele>43</ele>
        <time>2015-11-29T10:07:55Z</time>
      </trkpt>
      <trkpt lat="47.64202" lon="-0.52313">
        <ele>42</ele>
        <time>2015-11-29T10:08:00Z</time>
      </trkpt>
      <trkpt lat="47.64205" lon="-0.52315">
        <ele>42</ele>
        <time>2015-11-29T10:08:05Z</time>
      </trkpt>
      <trkpt lat="47.64207" lon="-0.52316">
        <ele>42</ele>
        <time>2015-11-29T10:08:10Z</time>
      </trkpt>
      <trkpt lat="47.64206" lon="-0.52316">
        <ele>42</ele>
        <time>2015-11-29T10:08:15Z</time>
      </trkpt>
      <trkpt lat="47.64206" lon="-0.52316">
        <ele>42</ele>
        <time>2015-11-29T10:08:20Z</time>
      </trkpt>
      <trkpt lat="47.64206" lon="-0.52317">
        <ele>42</ele>
        <time>2015-11-29T10:08:25Z</time>
      </trkpt>
      <trkpt lat="47.64206" lon="-0.52317">
        <ele>42</ele>
        <time>2015-11-29T10:08:30Z</time>
      </trkpt>
      <trkpt lat="47.64208" lon="-0.52317">
        <ele>42</ele>
        <time>2015-11-29T10:08:35Z</time>
      </trkpt>
      <trkpt lat="47.64212" lon="-0.52319">
        <ele>42</ele>
        <time>2015-11-29T10:08:40Z</time>
      </trkpt>
      <trkpt lat="47.64216" lon="-0.52321">
        <ele>41</ele>
        <time>2015-11-29T10:08:45Z</time>
      </trkpt>
      <trkpt lat="47.64219" lon="-0.52323">
        <ele>41</ele>
        <time>2015-11-29T10:08:50Z</time>
      </trkpt>
      <trkpt lat="47.64221" lon="-0.52329">
        <ele>41</ele>
        <time>2015-11-29T10:08:55Z</time>
      </trkpt>
      <trkpt lat="47.64223" lon="-0.52333">
        <ele>41</ele>
        <time>2015-11-29T10:09:00Z</time>
      </trkpt>
      <trkpt lat="47.64225" lon="-0.52334">
        <ele>40</ele>
        <time>2015-11-29T10:09:05Z</time>
      </trkpt>
      <trkpt lat="47.64225" lon="-0.52334">
        <ele>40</ele>
        <time>2015-11-29T10:09:10Z</time>
      </trkpt>
      <trkpt lat="47.64225" lon="-0.52332">
        <ele>40</ele>
        <time>2015-11-29T10:09:15Z</time>
      </trkpt>
      <trkpt lat="47.64225" lon="-0.52329">
        <ele>40</ele>
        <time>2015-11-29T10:09:20Z</time>
      </trkpt>
      <trkpt lat="47.64226" lon="-0.52328">
        <ele>40</ele>
        <time>2015-11-29T10:09:25Z</time>
      </trkpt>
      <trkpt lat="47.64226" lon="-0.52328">
        <ele>40</ele>
        <time>2015-11-29T10:09:30Z</time>
      </trkpt>
      <trkpt lat="47.64226" lon="-0.52327">
        <ele>41</ele>
        <time>2015-11-29T10:09:35Z</time>
      </trkpt>
      <trkpt lat="47.64228" lon="-0.52326">
        <ele>40</ele>
        <time>2015-11-29T10:09:40Z</time>
      </trkpt>
      <trkpt lat="47.6423" lon="-0.52325">
        <ele>40</ele>
        <time>2015-11-29T10:09:45Z</time>
      </trkpt>
      <trkpt lat="47.64232" lon="-0.52325">
        <ele>40</ele>
        <time>2015-11-29T10:09:50Z</time>
      </trkpt>
      <trkpt lat="47.64234" lon="-0.52327">
        <ele>40</ele>
        <time>2015-11-29T10:09:55Z</time>
      </trkpt>
      <trkpt lat="47.64235" lon="-0.52327">
        <ele>40</ele>
        <time>2015-11-29T10:10:00Z</time>
      </trkpt>
      <trkpt lat="47.64235" lon="-0.52327">
        <ele>40</ele>
        <time>2015-11-29T10:10:05Z</time>
      </trkpt>
      <trkpt lat="47.64235" lon="-0.52327">
        <ele>40</ele>
        <time>2015-11-29T10:10:10Z</time>
      </trkpt>
      <trkpt lat="47.64235" lon="-0.52327">
        <ele>40</ele>
        <time>2015-11-29T10:10:15Z</time>
      </trkpt>
      <trkpt lat="47.64235" lon="-0.52327">
        <ele>40</ele>
        <time>2015-11-29T10:10:20Z</time>
      </trkpt>
      <trkpt lat="47.64235" lon="-0.52327">
        <ele>40</ele>
        <time>2015-11-29T10:10:25Z</time>
      </trkpt>
      <trkpt lat="47.64234" lon="-0.52327">
        <ele>40</ele>
        <time>2015-11-29T10:10:30Z</time>
      </trkpt>
      <trkpt lat="47.64234" lon="-0.52327">
        <ele>40</ele>
        <time>2015-11-29T10:10:35Z</time>
      </trkpt>
      <trkpt lat="47.64234" lon="-0.52327">
        <ele>40</ele>
        <time>2015-11-29T10:10:40Z</time>
      </trkpt>
      <trkpt lat="47.64234" lon="-0.52327">
        <ele>40</ele>
        <time>2015-11-29T10:10:45Z</time>
      </trkpt>
      <trkpt lat="47.64234" lon="-0.52327">
        <ele>40</ele>
        <time>2015-11-29T10:10:50Z</time>
      </trkpt>
      <trkpt lat="47.64234" lon="-0.52327">
        <ele>40</ele>
        <time>2015-11-29T10:10:55Z</time>
      </trkpt>
      <trkpt lat="47.64234" lon="-0.52327">
        <ele>40</ele>
        <time>2015-11-29T10:11:00Z</time>
      </trkpt>
      <trkpt lat="47.64234" lon="-0.52327">
        <ele>40</ele>
        <time>2015-11-29T10:11:05Z</time>
      </trkpt>
      <trkpt lat="47.64235" lon="-0.52327">
        <ele>40</ele>
        <time>2015-11-29T10:11:10Z</time>
      </trkpt>
      <trkpt lat="47.64237" lon="-0.52327">
        <ele>40</ele>
        <time>2015-11-29T10:11:15Z</time>
      </trkpt>
      <trkpt lat="47.64238" lon="-0.52327">
        <ele>40</ele>
        <time>2015-11-29T10:11:20Z</time>
      </trkpt>
      <trkpt lat="47.6424" lon="-0.52328">
        <ele>39</ele>
        <time>2015-11-29T10:11:25Z</time>
      </trkpt>
      <trkpt lat="47.64241" lon="-0.52328">
        <ele>39</ele>
        <time>2015-11-29T10:11:30Z</time>
      </trkpt>
      <trkpt lat="47.64241" lon="-0.52329">
        <ele>39</ele>
        <time>2015-11-29T10:11:35Z</time>
      </trkpt>
      <trkpt lat="47.64242" lon="-0.52329">
        <ele>39</ele>
        <time>2015-11-29T10:11:40Z</time>
      </trkpt>
      <trkpt lat="47.64243" lon="-0.52329">
        <ele>39</ele>
        <time>2015-11-29T10:11:45Z</time>
      </trkpt>
      <trkpt lat="47.64247" lon="-0.52331">
        <ele>39</ele>
        <time>2015-11-29T10:11:50Z</time>
      </trkpt>
      <trkpt lat="47.64252" lon="-0.52333">
        <ele>39</ele>
        <time>2015-11-29T10:11:55Z</time>
      </trkpt>
      <trkpt lat="47.64256" lon="-0.52337">
        <ele>38</ele>
        <time>2015-11-29T10:12:00Z</time>
      </trkpt>
      <trkpt lat="47.64263" lon="-0.52339">
        <ele>38</ele>
        <time>2015-11-29T10:12:05Z</time>
      </trkpt>
      <trkpt lat="47.64268" lon="-0.52341">
        <ele>37</ele>
        <time>2015-11-29T10:12:10Z</time>
      </trkpt>
      <trkpt lat="47.64273" lon="-0.52344">
        <ele>37</ele>
        <time>2015-11-29T10:12:15Z</time>
      </trkpt>
      <trkpt lat="47.64278" lon="-0.52347">
        <ele>36</ele>
        <time>2015-11-29T10:12:20Z</time>
      </trkpt>
      <trkpt lat="47.64282" lon="-0.52351">
        <ele>36</ele>
        <time>2015-11-29T10:12:25Z</time>
      </trkpt>
      <trkpt lat="47.64287" lon="-0.52355">
        <ele>36</ele>
        <time>2015-11-29T10:12:30Z</time>
      </trkpt>
      <trkpt lat="47.64292" lon="-0.5236">
        <ele>35</ele>
        <time>2015-11-29T10:12:35Z</time>
      </trkpt>
      <trkpt lat="47.64297" lon="-0.52364">
        <ele>35</ele>
        <time>2015-11-29T10:12:40Z</time>
      </trkpt>
      <trkpt lat="47.64301" lon="-0.52367">
        <ele>35</ele>
        <time>2015-11-29T10:12:45Z</time>
      </trkpt>
      <trkpt lat="47.64305" lon="-0.52371">
        <ele>35</ele>
        <time>2015-11-29T10:12:50Z</time>
      </trkpt>
      <trkpt lat="47.64309" lon="-0.52375">
        <ele>34</ele>
        <time>2015-11-29T10:12:55Z</time>
      </trkpt>
      <trkpt lat="47.64314" lon="-0.5238">
        <ele>34</ele>
        <time>2015-11-29T10:13:00Z</time>
      </trkpt>
      <trkpt lat="47.64321" lon="-0.52384">
        <ele>34</ele>
        <time>2015-11-29T10:13:05Z</time>
      </trkpt>
      <trkpt lat="47.64326" lon="-0.5239">
        <ele>33</ele>
        <time>2015-11-29T10:13:10Z</time>
      </trkpt>
      <trkpt lat="47.64332" lon="-0.52394">
        <ele>33</ele>
        <time>2015-11-29T10:13:15Z</time>
      </trkpt>
      <trkpt lat="47.64337" lon="-0.52399">
        <ele>33</ele>
        <time>2015-11-29T10:13:20Z</time>
      </trkpt>
      <trkpt lat="47.64342" lon="-0.52404">
        <ele>33</ele>
        <time>2015-11-29T10:13:25Z</time>
      </trkpt>
      <trkpt lat="47.64347" lon="-0.52409">
        <ele>33</ele>
        <time>2015-11-29T10:13:30Z</time>
      </trkpt>
      <trkpt lat="47.64352" lon="-0.52413">
        <ele>32</ele>
        <time>2015-11-29T10:13:35Z</time>
      </trkpt>
      <trkpt lat="47.64356" lon="-0.52419">
        <ele>32</ele>
        <time>2015-11-29T10:13:40Z</time>
      </trkpt>
      <trkpt lat="47.6436" lon="-0.52425">
        <ele>32</ele>
        <time>2015-11-29T10:13:45Z</time>
      </trkpt>
      <trkpt lat="47.64363" lon="-0.5243">
        <ele>32</ele>
        <time>2015-11-29T10:13:50Z</time>
      </trkpt>
      <trkpt lat="47.64367" lon="-0.52435">
        <ele>32</ele>
        <time>2015-11-29T10:13:55Z</time>
      </trkpt>
      <trkpt lat="47.64371" lon="-0.5244">
        <ele>31</ele>
        <time>2015-11-29T10:14:00Z</time>
      </trkpt>
      <trkpt lat="47.64375" lon="-0.52446">
        <ele>31</ele>
        <time>2015-11-29T10:14:05Z</time>
      </trkpt>
      <trkpt lat="47.6438" lon="-0.5245">
        <ele>31</ele>
        <time>2015-11-29T10:14:10Z</time>
      </trkpt>
      <trkpt lat="47.64385" lon="-0.52456">
        <ele>30</ele>
        <time>2015-11-29T10:14:15Z</time>
      </trkpt>
      <trkpt lat="47.64392" lon="-0.52462">
        <ele>30</ele>
        <time>2015-11-29T10:14:20Z</time>
      </trkpt>
      <trkpt lat="47.64396" lon="-0.52468">
        <ele>30</ele>
        <time>2015-11-29T10:14:25Z</time>
      </trkpt>
      <trkpt lat="47.644" lon="-0.52474">
        <ele>30</ele>
        <time>2015-11-29T10:14:30Z</time>
      </trkpt>
      <trkpt lat="47.64404" lon="-0.52481">
        <ele>29</ele>
        <time>2015-11-29T10:14:35Z</time>
      </trkpt>
      <trkpt lat="47.64407" lon="-0.52487">
        <ele>29</ele>
        <time>2015-11-29T10:14:40Z</time>
      </trkpt>
      <trkpt lat="47.64413" lon="-0.52493">
        <ele>29</ele>
        <time>2015-11-29T10:14:45Z</time>
      </trkpt>
      <trkpt lat="47.64416" lon="-0.52499">
        <ele>29</ele>
        <time>2015-11-29T10:14:50Z</time>
      </trkpt>
      <trkpt lat="47.64421" lon="-0.52505">
        <ele>28</ele>
        <time>2015-11-29T10:14:55Z</time>
      </trkpt>
      <trkpt lat="47.64424" lon="-0.52511">
        <ele>28</ele>
        <time>2015-11-29T10:15:00Z</time>
      </trkpt>
      <trkpt lat="47.64428" lon="-0.52518">
        <ele>28</ele>
        <time>2015-11-29T10:15:05Z</time>
      </trkpt>
      <trkpt lat="47.64432" lon="-0.52524">
        <ele>28</ele>
        <time>2015-11-29T10:15:10Z</time>
      </trkpt>
      <trkpt lat="47.64434" lon="-0.5253">
        <ele>28</ele>
        <time>2015-11-29T10:15:15Z</time>
      </trkpt>
      <trkpt lat="47.64437" lon="-0.52537">
        <ele>28</ele>
        <time>2015-11-29T10:15:20Z</time>
      </trkpt>
      <trkpt lat="47.6444" lon="-0.52544">
        <ele>28</ele>
        <time>2015-11-29T10:15:25Z</time>
      </trkpt>
      <trkpt lat="47.64445" lon="-0.5255">
        <ele>28</ele>
        <time>2015-11-29T10:15:30Z</time>
      </trkpt>
      <trkpt lat="47.6445" lon="-0.52556">
        <ele>28</ele>
        <time>2015-11-29T10:15:35Z</time>
      </trkpt>
      <trkpt lat="47.64455" lon="-0.52562">
        <ele>28</ele>
        <time>2015-11-29T10:15:40Z</time>
      </trkpt>
      <trkpt lat="47.64459" lon="-0.52567">
        <ele>28</ele>
        <time>2015-11-29T10:15:45Z</time>
      </trkpt>
      <trkpt lat="47.64462" lon="-0.52573">
        <ele>28</ele>
        <time>2015-11-29T10:15:50Z</time>
      </trkpt>
      <trkpt lat="47.64466" lon="-0.5258">
        <ele>28</ele>
        <time>2015-11-29T10:15:55Z</time>
      </trkpt>
      <trkpt lat="47.64469" lon="-0.52587">
        <ele>28</ele>
        <time>2015-11-29T10:16:00Z</time>
      </trkpt>
      <trkpt lat="47.64472" lon="-0.52593">
        <ele>28</ele>
        <time>2015-11-29T10:16:05Z</time>
      </trkpt>
      <trkpt lat="47.64474" lon="-0.526">
        <ele>28</ele>
        <time>2015-11-29T10:16:10Z</time>
      </trkpt>
      <trkpt lat="47.64476" lon="-0.52607">
        <ele>28</ele>
        <time>2015-11-29T10:16:15Z</time>
      </trkpt>
      <trkpt lat="47.64478" lon="-0.52612">
        <ele>28</ele>
        <time>2015-11-29T10:16:20Z</time>
      </trkpt>
      <trkpt lat="47.64479" lon="-0.5262">
        <ele>28</ele>
        <time>2015-11-29T10:16:25Z</time>
      </trkpt>
      <trkpt lat="47.64482" lon="-0.52627">
        <ele>28</ele>
        <time>2015-11-29T10:16:30Z</time>
      </trkpt>
      <trkpt lat="47.64485" lon="-0.52633">
        <ele>28</ele>
        <time>2015-11-29T10:16:35Z</time>
      </trkpt>
      <trkpt lat="47.64487" lon="-0.52639">
        <ele>27</ele>
        <time>2015-11-29T10:16:40Z</time>
      </trkpt>
      <trkpt lat="47.64488" lon="-0.52644">
        <ele>27</ele>
        <time>2015-11-29T10:16:45Z</time>
      </trkpt>
      <trkpt lat="47.64497" lon="-0.5265">
        <ele>27</ele>
        <time>2015-11-29T10:16:50Z</time>
      </trkpt>
      <trkpt lat="47.64502" lon="-0.52656">
        <ele>27</ele>
        <time>2015-11-29T10:16:55Z</time>
      </trkpt>
      <trkpt lat="47.64505" lon="-0.52662">
        <ele>27</ele>
        <time>2015-11-29T10:17:00Z</time>
      </trkpt>
      <trkpt lat="47.64508" lon="-0.52669">
        <ele>27</ele>
        <time>2015-11-29T10:17:05Z</time>
      </trkpt>
      <trkpt lat="47.64512" lon="-0.52676">
        <ele>27</ele>
        <time>2015-11-29T10:17:10Z</time>
      </trkpt>
      <trkpt lat="47.64519" lon="-0.52682">
        <ele>27</ele>
        <time>2015-11-29T10:17:15Z</time>
      </trkpt>
      <trkpt lat="47.64523" lon="-0.52687">
        <ele>26</ele>
        <time>2015-11-29T10:17:20Z</time>
      </trkpt>
      <trkpt lat="47.64527" lon="-0.52694">
        <ele>26</ele>
        <time>2015-11-29T10:17:25Z</time>
      </trkpt>
      <trkpt lat="47.64532" lon="-0.527">
        <ele>27</ele>
        <time>2015-11-29T10:17:30Z</time>
      </trkpt>
      <trkpt lat="47.64536" lon="-0.52707">
        <ele>27</ele>
        <time>2015-11-29T10:17:35Z</time>
      </trkpt>
      <trkpt lat="47.64539" lon="-0.52713">
        <ele>27</ele>
        <time>2015-11-29T10:17:40Z</time>
      </trkpt>
      <trkpt lat="47.64544" lon="-0.52719">
        <ele>27</ele>
        <time>2015-11-29T10:17:45Z</time>
      </trkpt>
      <trkpt lat="47.64547" lon="-0.52725">
        <ele>27</ele>
        <time>2015-11-29T10:17:50Z</time>
      </trkpt>
      <trkpt lat="47.64551" lon="-0.52731">
        <ele>27</ele>
        <time>2015-11-29T10:17:55Z</time>
      </trkpt>
      <trkpt lat="47.64553" lon="-0.52737">
        <ele>28</ele>
        <time>2015-11-29T10:18:00Z</time>
      </trkpt>
      <trkpt lat="47.64556" lon="-0.52741">
        <ele>28</ele>
        <time>2015-11-29T10:18:05Z</time>
      </trkpt>
      <trkpt lat="47.6456" lon="-0.52746">
        <ele>28</ele>
        <time>2015-11-29T10:18:10Z</time>
      </trkpt>
      <trkpt lat="47.64564" lon="-0.52751">
        <ele>28</ele>
        <time>2015-11-29T10:18:15Z</time>
      </trkpt>
      <trkpt lat="47.64567" lon="-0.52756">
        <ele>28</ele>
        <time>2015-11-29T10:18:20Z</time>
      </trkpt>
      <trkpt lat="47.64572" lon="-0.52762">
        <ele>28</ele>
        <time>2015-11-29T10:18:25Z</time>
      </trkpt>
      <trkpt lat="47.6458" lon="-0.52767">
        <ele>29</ele>
        <time>2015-11-29T10:18:30Z</time>
      </trkpt>
      <trkpt lat="47.64586" lon="-0.52772">
        <ele>29</ele>
        <time>2015-11-29T10:18:35Z</time>
      </trkpt>
      <trkpt lat="47.64594" lon="-0.52776">
        <ele>29</ele>
        <time>2015-11-29T10:18:40Z</time>
      </trkpt>
      <trkpt lat="47.646" lon="-0.52781">
        <ele>29</ele>
        <time>2015-11-29T10:18:45Z</time>
      </trkpt>
      <trkpt lat="47.64603" lon="-0.52787">
        <ele>29</ele>
        <time>2015-11-29T10:18:50Z</time>
      </trkpt>
      <trkpt lat="47.64608" lon="-0.52793">
        <ele>29</ele>
        <time>2015-11-29T10:18:55Z</time>
      </trkpt>
      <trkpt lat="47.64612" lon="-0.52799">
        <ele>29</ele>
        <time>2015-11-29T10:19:00Z</time>
      </trkpt>
      <trkpt lat="47.64616" lon="-0.52803">
        <ele>30</ele>
        <time>2015-11-29T10:19:05Z</time>
      </trkpt>
      <trkpt lat="47.64621" lon="-0.52809">
        <ele>29</ele>
        <time>2015-11-29T10:19:10Z</time>
      </trkpt>
      <trkpt lat="47.64625" lon="-0.52817">
        <ele>29</ele>
        <time>2015-11-29T10:19:15Z</time>
      </trkpt>
      <trkpt lat="47.64628" lon="-0.52824">
        <ele>29</ele>
        <time>2015-11-29T10:19:20Z</time>
      </trkpt>
      <trkpt lat="47.64634" lon="-0.52831">
        <ele>29</ele>
        <time>2015-11-29T10:19:25Z</time>
      </trkpt>
      <trkpt lat="47.64639" lon="-0.52837">
        <ele>28</ele>
        <time>2015-11-29T10:19:30Z</time>
      </trkpt>
      <trkpt lat="47.64643" lon="-0.52843">
        <ele>28</ele>
        <time>2015-11-29T10:19:35Z</time>
      </trkpt>
      <trkpt lat="47.64647" lon="-0.52849">
        <ele>28</ele>
        <time>2015-11-29T10:19:40Z</time>
      </trkpt>
      <trkpt lat="47.64651" lon="-0.52857">
        <ele>28</ele>
        <time>2015-11-29T10:19:45Z</time>
      </trkpt>
      <trkpt lat="47.64656" lon="-0.52861">
        <ele>27</ele>
        <time>2015-11-29T10:19:50Z</time>
      </trkpt>
      <trkpt lat="47.6466" lon="-0.52866">
        <ele>27</ele>
        <time>2015-11-29T10:19:55Z</time>
      </trkpt>
      <trkpt lat="47.64664" lon="-0.52872">
        <ele>27</ele>
        <time>2015-11-29T10:20:00Z</time>
      </trkpt>
      <trkpt lat="47.6467" lon="-0.52876">
        <ele>27</ele>
        <time>2015-11-29T10:20:05Z</time>
      </trkpt>
      <trkpt lat="47.64676" lon="-0.5288">
        <ele>27</ele>
        <time>2015-11-29T10:20:10Z</time>
      </trkpt>
      <trkpt lat="47.64681" lon="-0.52885">
        <ele>26</ele>
        <time>2015-11-29T10:20:15Z</time>
      </trkpt>
      <trkpt lat="47.64685" lon="-0.52892">
        <ele>26</ele>
        <time>2015-11-29T10:20:20Z</time>
      </trkpt>
      <trkpt lat="47.64689" lon="-0.52897">
        <ele>26</ele>
        <time>2015-11-29T10:20:25Z</time>
      </trkpt>
      <trkpt lat="47.64695" lon="-0.52902">
        <ele>26</ele>
        <time>2015-11-29T10:20:30Z</time>
      </trkpt>
      <trkpt lat="47.64702" lon="-0.52907">
        <ele>25</ele>
        <time>2015-11-29T10:20:35Z</time>
      </trkpt>
      <trkpt lat="47.64706" lon="-0.52913">
        <ele>25</ele>
        <time>2015-11-29T10:20:40Z</time>
      </trkpt>
      <trkpt lat="47.6471" lon="-0.52919">
        <ele>25</ele>
        <time>2015-11-29T10:20:45Z</time>
      </trkpt>
      <trkpt lat="47.64713" lon="-0.52926">
        <ele>25</ele>
        <time>2015-11-29T10:20:50Z</time>
      </trkpt>
      <trkpt lat="47.64717" lon="-0.52932">
        <ele>25</ele>
        <time>2015-11-29T10:20:55Z</time>
      </trkpt>
      <trkpt lat="47.64721" lon="-0.52938">
        <ele>24</ele>
        <time>2015-11-29T10:21:00Z</time>
      </trkpt>
      <trkpt lat="47.64725" lon="-0.52941">
        <ele>24</ele>
        <time>2015-11-29T10:21:05Z</time>
      </trkpt>
      <trkpt lat="47.64731" lon="-0.52945">
        <ele>24</ele>
        <time>2015-11-29T10:21:10Z</time>
      </trkpt>
      <trkpt lat="47.64735" lon="-0.52949">
        <ele>24</ele>
        <time>2015-11-29T10:21:15Z</time>
      </trkpt>
      <trkpt lat="47.64742" lon="-0.52952">
        <ele>24</ele>
        <time>2015-11-29T10:21:20Z</time>
      </trkpt>
      <trkpt lat="47.64745" lon="-0.52954">
        <ele>24</ele>
        <time>2015-11-29T10:21:25Z</time>
      </trkpt>
      <trkpt lat="47.6475" lon="-0.52956">
        <ele>24</ele>
        <time>2015-11-29T10:21:30Z</time>
      </trkpt>
      <trkpt lat="47.64755" lon="-0.52958">
        <ele>24</ele>
        <time>2015-11-29T10:21:35Z</time>
      </trkpt>
      <trkpt lat="47.64758" lon="-0.52958">
        <ele>25</ele>
        <time>2015-11-29T10:21:40Z</time>
      </trkpt>
      <trkpt lat="47.64762" lon="-0.52959">
        <ele>25</ele>
        <time>2015-11-29T10:21:45Z</time>
      </trkpt>
      <trkpt lat="47.64769" lon="-0.52961">
        <ele>25</ele>
        <time>2015-11-29T10:21:50Z</time>
      </trkpt>
      <trkpt lat="47.64773" lon="-0.52963">
        <ele>25</ele>
        <time>2015-11-29T10:21:55Z</time>
      </trkpt>
      <trkpt lat="47.64781" lon="-0.52966">
        <ele>25</ele>
        <time>2015-11-29T10:22:00Z</time>
      </trkpt>
      <trkpt lat="47.64787" lon="-0.52968">
        <ele>25</ele>
        <time>2015-11-29T10:22:05Z</time>
      </trkpt>
      <trkpt lat="47.64792" lon="-0.52968">
        <ele>26</ele>
        <time>2015-11-29T10:22:10Z</time>
      </trkpt>
      <trkpt lat="47.64797" lon="-0.5297">
        <ele>26</ele>
        <time>2015-11-29T10:22:15Z</time>
      </trkpt>
      <trkpt lat="47.64803" lon="-0.5297">
        <ele>26</ele>
        <time>2015-11-29T10:22:20Z</time>
      </trkpt>
      <trkpt lat="47.64809" lon="-0.5297">
        <ele>26</ele>
        <time>2015-11-29T10:22:25Z</time>
      </trkpt>
      <trkpt lat="47.64814" lon="-0.52969">
        <ele>26</ele>
        <time>2015-11-29T10:22:30Z</time>
      </trkpt>
      <trkpt lat="47.64821" lon="-0.52968">
        <ele>27</ele>
        <time>2015-11-29T10:22:35Z</time>
      </trkpt>
      <trkpt lat="47.64828" lon="-0.52965">
        <ele>27</ele>
        <time>2015-11-29T10:22:40Z</time>
      </trkpt>
      <trkpt lat="47.64838" lon="-0.52965">
        <ele>28</ele>
        <time>2015-11-29T10:22:45Z</time>
      </trkpt>
      <trkpt lat="47.64845" lon="-0.52962">
        <ele>28</ele>
        <time>2015-11-29T10:22:50Z</time>
      </trkpt>
      <trkpt lat="47.64852" lon="-0.5296">
        <ele>28</ele>
        <time>2015-11-29T10:22:55Z</time>
      </trkpt>
      <trkpt lat="47.64857" lon="-0.52958">
        <ele>28</ele>
        <time>2015-11-29T10:23:00Z</time>
      </trkpt>
      <trkpt lat="47.64863" lon="-0.52958">
        <ele>28</ele>
        <time>2015-11-29T10:23:05Z</time>
      </trkpt>
      <trkpt lat="47.64868" lon="-0.52956">
        <ele>28</ele>
        <time>2015-11-29T10:23:10Z</time>
      </trkpt>
      <trkpt lat="47.64873" lon="-0.52956">
        <ele>28</ele>
        <time>2015-11-29T10:23:15Z</time>
      </trkpt>
      <trkpt lat="47.64878" lon="-0.52955">
        <ele>28</ele>
        <time>2015-11-29T10:23:20Z</time>
      </trkpt>
      <trkpt lat="47.64883" lon="-0.52957">
        <ele>28</ele>
        <time>2015-11-29T10:23:25Z</time>
      </trkpt>
      <trkpt lat="47.64891" lon="-0.52956">
        <ele>28</ele>
        <time>2015-11-29T10:23:30Z</time>
      </trkpt>
      <trkpt lat="47.64897" lon="-0.52956">
        <ele>28</ele>
        <time>2015-11-29T10:23:35Z</time>
      </trkpt>
      <trkpt lat="47.64903" lon="-0.52957">
        <ele>28</ele>
        <time>2015-11-29T10:23:40Z</time>
      </trkpt>
      <trkpt lat="47.64908" lon="-0.52956">
        <ele>28</ele>
        <time>2015-11-29T10:23:45Z</time>
      </trkpt>
      <trkpt lat="47.64915" lon="-0.52954">
        <ele>28</ele>
        <time>2015-11-29T10:23:50Z</time>
      </trkpt>
      <trkpt lat="47.64919" lon="-0.52951">
        <ele>28</ele>
        <time>2015-11-29T10:23:55Z</time>
      </trkpt>
      <trkpt lat="47.64922" lon="-0.52946">
        <ele>28</ele>
        <time>2015-11-29T10:24:00Z</time>
      </trkpt>
      <trkpt lat="47.64921" lon="-0.52938">
        <ele>28</ele>
        <time>2015-11-29T10:24:05Z</time>
      </trkpt>
      <trkpt lat="47.64921" lon="-0.52931">
        <ele>28</ele>
        <time>2015-11-29T10:24:10Z</time>
      </trkpt>
      <trkpt lat="47.64919" lon="-0.52924">
        <ele>28</ele>
        <time>2015-11-29T10:24:15Z</time>
      </trkpt>
      <trkpt lat="47.64917" lon="-0.52918">
        <ele>28</ele>
        <time>2015-11-29T10:24:20Z</time>
      </trkpt>
      <trkpt lat="47.64914" lon="-0.52911">
        <ele>28</ele>
        <time>2015-11-29T10:24:25Z</time>
      </trkpt>
      <trkpt lat="47.64911" lon="-0.52906">
        <ele>27</ele>
        <time>2015-11-29T10:24:30Z</time>
      </trkpt>
      <trkpt lat="47.64909" lon="-0.52899">
        <ele>27</ele>
        <time>2015-11-29T10:24:35Z</time>
      </trkpt>
      <trkpt lat="47.64905" lon="-0.52892">
        <ele>27</ele>
        <time>2015-11-29T10:24:40Z</time>
      </trkpt>
      <trkpt lat="47.64902" lon="-0.52885">
        <ele>27</ele>
        <time>2015-11-29T10:24:45Z</time>
      </trkpt>
      <trkpt lat="47.64898" lon="-0.52878">
        <ele>27</ele>
        <time>2015-11-29T10:24:50Z</time>
      </trkpt>
      <trkpt lat="47.64895" lon="-0.52872">
        <ele>27</ele>
        <time>2015-11-29T10:24:55Z</time>
      </trkpt>
      <trkpt lat="47.64892" lon="-0.52865">
        <ele>27</ele>
        <time>2015-11-29T10:25:00Z</time>
      </trkpt>
      <trkpt lat="47.64889" lon="-0.52857">
        <ele>27</ele>
        <time>2015-11-29T10:25:05Z</time>
      </trkpt>
      <trkpt lat="47.64886" lon="-0.52849">
        <ele>27</ele>
        <time>2015-11-29T10:25:10Z</time>
      </trkpt>
      <trkpt lat="47.64884" lon="-0.52842">
        <ele>27</ele>
        <time>2015-11-29T10:25:15Z</time>
      </trkpt>
      <trkpt lat="47.64882" lon="-0.52833">
        <ele>26</ele>
        <time>2015-11-29T10:25:20Z</time>
      </trkpt>
      <trkpt lat="47.6488" lon="-0.52826">
        <ele>26</ele>
        <time>2015-11-29T10:25:25Z</time>
      </trkpt>
      <trkpt lat="47.64878" lon="-0.52819">
        <ele>26</ele>
        <time>2015-11-29T10:25:30Z</time>
      </trkpt>
      <trkpt lat="47.64875" lon="-0.52812">
        <ele>26</ele>
        <time>2015-11-29T10:25:35Z</time>
      </trkpt>
      <trkpt lat="47.64874" lon="-0.52804">
        <ele>26</ele>
        <time>2015-11-29T10:25:40Z</time>
      </trkpt>
      <trkpt lat="47.64872" lon="-0.52796">
        <ele>26</ele>
        <time>2015-11-29T10:25:45Z</time>
      </trkpt>
      <trkpt lat="47.6487" lon="-0.52787">
        <ele>26</ele>
        <time>2015-11-29T10:25:50Z</time>
      </trkpt>
      <trkpt lat="47.64868" lon="-0.5278">
        <ele>26</ele>
        <time>2015-11-29T10:25:55Z</time>
      </trkpt>
      <trkpt lat="47.64866" lon="-0.5277">
        <ele>25</ele>
        <time>2015-11-29T10:26:00Z</time>
      </trkpt>
      <trkpt lat="47.64865" lon="-0.52762">
        <ele>25</ele>
        <time>2015-11-29T10:26:05Z</time>
      </trkpt>
      <trkpt lat="47.64863" lon="-0.5275">
        <ele>25</ele>
        <time>2015-11-29T10:26:10Z</time>
      </trkpt>
      <trkpt lat="47.64864" lon="-0.5274">
        <ele>25</ele>
        <time>2015-11-29T10:26:15Z</time>
      </trkpt>
      <trkpt lat="47.64865" lon="-0.52733">
        <ele>25</ele>
        <time>2015-11-29T10:26:20Z</time>
      </trkpt>
      <trkpt lat="47.64866" lon="-0.52725">
        <ele>25</ele>
        <time>2015-11-29T10:26:25Z</time>
      </trkpt>
      <trkpt lat="47.64867" lon="-0.52718">
        <ele>25</ele>
        <time>2015-11-29T10:26:30Z</time>
      </trkpt>
      <trkpt lat="47.64868" lon="-0.52711">
        <ele>25</ele>
        <time>2015-11-29T10:26:35Z</time>
      </trkpt>
      <trkpt lat="47.6487" lon="-0.52703">
        <ele>25</ele>
        <time>2015-11-29T10:26:40Z</time>
      </trkpt>
      <trkpt lat="47.64872" lon="-0.52696">
        <ele>24</ele>
        <time>2015-11-29T10:26:45Z</time>
      </trkpt>
      <trkpt lat="47.64874" lon="-0.52688">
        <ele>25</ele>
        <time>2015-11-29T10:26:50Z</time>
      </trkpt>
      <trkpt lat="47.64876" lon="-0.52681">
        <ele>25</ele>
        <time>2015-11-29T10:26:55Z</time>
      </trkpt>
      <trkpt lat="47.64879" lon="-0.52673">
        <ele>25</ele>
        <time>2015-11-29T10:27:00Z</time>
      </trkpt>
      <trkpt lat="47.64881" lon="-0.52665">
        <ele>25</ele>
        <time>2015-11-29T10:27:05Z</time>
      </trkpt>
      <trkpt lat="47.64883" lon="-0.52658">
        <ele>25</ele>
        <time>2015-11-29T10:27:10Z</time>
      </trkpt>
      <trkpt lat="47.64884" lon="-0.52648">
        <ele>25</ele>
        <time>2015-11-29T10:27:15Z</time>
      </trkpt>
      <trkpt lat="47.64886" lon="-0.5264">
        <ele>25</ele>
        <time>2015-11-29T10:27:20Z</time>
      </trkpt>
      <trkpt lat="47.64889" lon="-0.52634">
        <ele>25</ele>
        <time>2015-11-29T10:27:25Z</time>
      </trkpt>
      <trkpt lat="47.64892" lon="-0.52628">
        <ele>25</ele>
        <time>2015-11-29T10:27:30Z</time>
      </trkpt>
      <trkpt lat="47.64894" lon="-0.5262">
        <ele>25</ele>
        <time>2015-11-29T10:27:35Z</time>
      </trkpt>
      <trkpt lat="47.64897" lon="-0.52616">
        <ele>25</ele>
        <time>2015-11-29T10:27:40Z</time>
      </trkpt>
      <trkpt lat="47.64901" lon="-0.52609">
        <ele>25</ele>
        <time>2015-11-29T10:27:45Z</time>
      </trkpt>
      <trkpt lat="47.64904" lon="-0.52604">
        <ele>25</ele>
        <time>2015-11-29T10:27:50Z</time>
      </trkpt>
      <trkpt lat="47.64906" lon="-0.52596">
        <ele>25</ele>
        <time>2015-11-29T10:27:55Z</time>
      </trkpt>
      <trkpt lat="47.64909" lon="-0.5259">
        <ele>25</ele>
        <time>2015-11-29T10:28:00Z</time>
      </trkpt>
      <trkpt lat="47.64912" lon="-0.52582">
        <ele>25</ele>
        <time>2015-11-29T10:28:05Z</time>
      </trkpt>
      <trkpt lat="47.64914" lon="-0.52573">
        <ele>25</ele>
        <time>2015-11-29T10:28:10Z</time>
      </trkpt>
      <trkpt lat="47.64916" lon="-0.52563">
        <ele>26</ele>
        <time>2015-11-29T10:28:15Z</time>
      </trkpt>
      <trkpt lat="47.64914" lon="-0.52548">
        <ele>26</ele>
        <time>2015-11-29T10:28:20Z</time>
      </trkpt>
      <trkpt lat="47.64916" lon="-0.5254">
        <ele>26</ele>
        <time>2015-11-29T10:28:25Z</time>
      </trkpt>
      <trkpt lat="47.64915" lon="-0.52528">
        <ele>26</ele>
        <time>2015-11-29T10:28:30Z</time>
      </trkpt>
      <trkpt lat="47.64916" lon="-0.52517">
        <ele>26</ele>
        <time>2015-11-29T10:28:35Z</time>
      </trkpt>
      <trkpt lat="47.64917" lon="-0.52508">
        <ele>26</ele>
        <time>2015-11-29T10:28:40Z</time>
      </trkpt>
      <trkpt lat="47.64917" lon="-0.52502">
        <ele>26</ele>
        <time>2015-11-29T10:28:45Z</time>
      </trkpt>
      <trkpt lat="47.6492" lon="-0.52495">
        <ele>26</ele>
        <time>2015-11-29T10:28:50Z</time>
      </trkpt>
      <trkpt lat="47.64922" lon="-0.52489">
        <ele>26</ele>
        <time>2015-11-29T10:28:55Z</time>
      </trkpt>
      <trkpt lat="47.64924" lon="-0.52482">
        <ele>26</ele>
        <time>2015-11-29T10:29:00Z</time>
      </trkpt>
      <trkpt lat="47.64926" lon="-0.52475">
        <ele>26</ele>
        <time>2015-11-29T10:29:05Z</time>
      </trkpt>
      <trkpt lat="47.64927" lon="-0.52462">
        <ele>26</ele>
        <time>2015-11-29T10:29:10Z</time>
      </trkpt>
      <trkpt lat="47.64928" lon="-0.52452">
        <ele>26</ele>
        <time>2015-11-29T10:29:15Z</time>
      </trkpt>
      <trkpt lat="47.64928" lon="-0.52438">
        <ele>26</ele>
        <time>2015-11-29T10:29:20Z</time>
      </trkpt>
      <trkpt lat="47.6493" lon="-0.5243">
        <ele>26</ele>
        <time>2015-11-29T10:29:25Z</time>
      </trkpt>
      <trkpt lat="47.64932" lon="-0.52422">
        <ele>27</ele>
        <time>2015-11-29T10:29:30Z</time>
      </trkpt>
      <trkpt lat="47.64934" lon="-0.52414">
        <ele>27</ele>
        <time>2015-11-29T10:29:35Z</time>
      </trkpt>
      <trkpt lat="47.64935" lon="-0.52406">
        <ele>27</ele>
        <time>2015-11-29T10:29:40Z</time>
      </trkpt>
      <trkpt lat="47.64937" lon="-0.52398">
        <ele>27</ele>
        <time>2015-11-29T10:29:45Z</time>
      </trkpt>
      <trkpt lat="47.64939" lon="-0.52392">
        <ele>27</ele>
        <time>2015-11-29T10:29:50Z</time>
      </trkpt>
      <trkpt lat="47.6494" lon="-0.52385">
        <ele>27</ele>
        <time>2015-11-29T10:29:55Z</time>
      </trkpt>
      <trkpt lat="47.64943" lon="-0.52378">
        <ele>27</ele>
        <time>2015-11-29T10:30:00Z</time>
      </trkpt>
      <trkpt lat="47.64945" lon="-0.5237">
        <ele>27</ele>
        <time>2015-11-29T10:30:05Z</time>
      </trkpt>
      <trkpt lat="47.64946" lon="-0.52359">
        <ele>27</ele>
        <time>2015-11-29T10:30:10Z</time>
      </trkpt>
      <trkpt lat="47.64949" lon="-0.52352">
        <ele>28</ele>
        <time>2015-11-29T10:30:15Z</time>
      </trkpt>
      <trkpt lat="47.6495" lon="-0.52344">
        <ele>28</ele>
        <time>2015-11-29T10:30:20Z</time>
      </trkpt>
      <trkpt lat="47.64951" lon="-0.52337">
        <ele>28</ele>
        <time>2015-11-29T10:30:25Z</time>
      </trkpt>
      <trkpt lat="47.64954" lon="-0.52331">
        <ele>28</ele>
        <time>2015-11-29T10:30:30Z</time>
      </trkpt>
      <trkpt lat="47.64957" lon="-0.52323">
        <ele>28</ele>
        <time>2015-11-29T10:30:35Z</time>
      </trkpt>
      <trkpt lat="47.64959" lon="-0.52317">
        <ele>28</ele>
        <time>2015-11-29T10:30:40Z</time>
      </trkpt>
      <trkpt lat="47.64961" lon="-0.52311">
        <ele>28</ele>
        <time>2015-11-29T10:30:45Z</time>
      </trkpt>
      <trkpt lat="47.64964" lon="-0.52305">
        <ele>28</ele>
        <time>2015-11-29T10:30:50Z</time>
      </trkpt>
      <trkpt lat="47.64965" lon="-0.52299">
        <ele>28</ele>
        <time>2015-11-29T10:30:55Z</time>
      </trkpt>
      <trkpt lat="47.64967" lon="-0.52293">
        <ele>28</ele>
        <time>2015-11-29T10:31:00Z</time>
      </trkpt>
      <trkpt lat="47.64968" lon="-0.52285">
        <ele>28</ele>
        <time>2015-11-29T10:31:05Z</time>
      </trkpt>
      <trkpt lat="47.6497" lon="-0.52278">
        <ele>28</ele>
        <time>2015-11-29T10:31:10Z</time>
      </trkpt>
      <trkpt lat="47.64972" lon="-0.52265">
        <ele>28</ele>
        <time>2015-11-29T10:31:15Z</time>
      </trkpt>
      <trkpt lat="47.64973" lon="-0.52255">
        <ele>28</ele>
        <time>2015-11-29T10:31:20Z</time>
      </trkpt>
      <trkpt lat="47.64976" lon="-0.52247">
        <ele>28</ele>
        <time>2015-11-29T10:31:25Z</time>
      </trkpt>
      <trkpt lat="47.64978" lon="-0.52238">
        <ele>28</ele>
        <time>2015-11-29T10:31:30Z</time>
      </trkpt>
      <trkpt lat="47.64979" lon="-0.52229">
        <ele>28</ele>
        <time>2015-11-29T10:31:35Z</time>
      </trkpt>
      <trkpt lat="47.6498" lon="-0.52224">
        <ele>28</ele>
        <time>2015-11-29T10:31:40Z</time>
      </trkpt>
      <trkpt lat="47.64979" lon="-0.52216">
        <ele>28</ele>
        <time>2015-11-29T10:31:45Z</time>
      </trkpt>
      <trkpt lat="47.6498" lon="-0.52209">
        <ele>28</ele>
        <time>2015-11-29T10:31:50Z</time>
      </trkpt>
      <trkpt lat="47.64981" lon="-0.522">
        <ele>28</ele>
        <time>2015-11-29T10:31:55Z</time>
      </trkpt>
      <trkpt lat="47.64981" lon="-0.52191">
        <ele>28</ele>
        <time>2015-11-29T10:32:00Z</time>
      </trkpt>
      <trkpt lat="47.64982" lon="-0.52187">
        <ele>28</ele>
        <time>2015-11-29T10:32:05Z</time>
      </trkpt>
      <trkpt lat="47.64983" lon="-0.5218">
        <ele>28</ele>
        <time>2015-11-29T10:32:10Z</time>
      </trkpt>
      <trkpt lat="47.64983" lon="-0.52171">
        <ele>28</ele>
        <time>2015-11-29T10:32:15Z</time>
      </trkpt>
      <trkpt lat="47.64983" lon="-0.52163">
        <ele>28</ele>
        <time>2015-11-29T10:32:20Z</time>
      </trkpt>
      <trkpt lat="47.64984" lon="-0.52155">
        <ele>28</ele>
        <time>2015-11-29T10:32:25Z</time>
      </trkpt>
      <trkpt lat="47.64982" lon="-0.52151">
        <ele>28</ele>
        <time>2015-11-29T10:32:30Z</time>
      </trkpt>
      <trkpt lat="47.64981" lon="-0.52142">
        <ele>27</ele>
        <time>2015-11-29T10:32:35Z</time>
      </trkpt>
      <trkpt lat="47.64981" lon="-0.52134">
        <ele>27</ele>
        <time>2015-11-29T10:32:40Z</time>
      </trkpt>
      <trkpt lat="47.6498" lon="-0.52123">
        <ele>27</ele>
        <time>2015-11-29T10:32:45Z</time>
      </trkpt>
      <trkpt lat="47.64979" lon="-0.52112">
        <ele>27</ele>
        <time>2015-11-29T10:32:50Z</time>
      </trkpt>
      <trkpt lat="47.64976" lon="-0.52102">
        <ele>27</ele>
        <time>2015-11-29T10:32:55Z</time>
      </trkpt>
      <trkpt lat="47.64975" lon="-0.5209">
        <ele>27</ele>
        <time>2015-11-29T10:33:00Z</time>
      </trkpt>
      <trkpt lat="47.64976" lon="-0.52081">
        <ele>27</ele>
        <time>2015-11-29T10:33:05Z</time>
      </trkpt>
      <trkpt lat="47.64977" lon="-0.52072">
        <ele>27</ele>
        <time>2015-11-29T10:33:10Z</time>
      </trkpt>
      <trkpt lat="47.64979" lon="-0.52063">
        <ele>27</ele>
        <time>2015-11-29T10:33:15Z</time>
      </trkpt>
      <trkpt lat="47.64981" lon="-0.52055">
        <ele>27</ele>
        <time>2015-11-29T10:33:20Z</time>
      </trkpt>
      <trkpt lat="47.64983" lon="-0.52046">
        <ele>27</ele>
        <time>2015-11-29T10:33:25Z</time>
      </trkpt>
      <trkpt lat="47.64986" lon="-0.52038">
        <ele>27</ele>
        <time>2015-11-29T10:33:30Z</time>
      </trkpt>
      <trkpt lat="47.64989" lon="-0.52033">
        <ele>27</ele>
        <time>2015-11-29T10:33:35Z</time>
      </trkpt>
      <trkpt lat="47.64993" lon="-0.52027">
        <ele>27</ele>
        <time>2015-11-29T10:33:40Z</time>
      </trkpt>
      <trkpt lat="47.64996" lon="-0.52025">
        <ele>27</ele>
        <time>2015-11-29T10:33:45Z</time>
      </trkpt>
      <trkpt lat="47.64999" lon="-0.52022">
        <ele>27</ele>
        <time>2015-11-29T10:33:50Z</time>
      </trkpt>
      <trkpt lat="47.65003" lon="-0.52018">
        <ele>27</ele>
        <time>2015-11-29T10:33:55Z</time>
      </trkpt>
      <trkpt lat="47.65007" lon="-0.52013">
        <ele>28</ele>
        <time>2015-11-29T10:34:00Z</time>
      </trkpt>
      <trkpt lat="47.65012" lon="-0.52009">
        <ele>28</ele>
        <time>2015-11-29T10:34:05Z</time>
      </trkpt>
      <trkpt lat="47.65017" lon="-0.52004">
        <ele>28</ele>
        <time>2015-11-29T10:34:10Z</time>
      </trkpt>
      <trkpt lat="47.65022" lon="-0.52">
        <ele>28</ele>
        <time>2015-11-29T10:34:15Z</time>
      </trkpt>
      <trkpt lat="47.65027" lon="-0.51995">
        <ele>28</ele>
        <time>2015-11-29T10:34:20Z</time>
      </trkpt>
      <trkpt lat="47.65032" lon="-0.51991">
        <ele>28</ele>
        <time>2015-11-29T10:34:25Z</time>
      </trkpt>
      <trkpt lat="47.65037" lon="-0.51987">
        <ele>28</ele>
        <time>2015-11-29T10:34:30Z</time>
      </trkpt>
      <trkpt lat="47.65041" lon="-0.51982">
        <ele>28</ele>
        <time>2015-11-29T10:34:35Z</time>
      </trkpt>
      <trkpt lat="47.65045" lon="-0.51975">
        <ele>28</ele>
        <time>2015-11-29T10:34:40Z</time>
      </trkpt>
      <trkpt lat="47.6505" lon="-0.51969">
        <ele>28</ele>
        <time>2015-11-29T10:34:45Z</time>
      </trkpt>
      <trkpt lat="47.65055" lon="-0.51962">
        <ele>28</ele>
        <time>2015-11-29T10:34:50Z</time>
      </trkpt>
      <trkpt lat="47.65058" lon="-0.51955">
        <ele>28</ele>
        <time>2015-11-29T10:34:55Z</time>
      </trkpt>
      <trkpt lat="47.65061" lon="-0.51947">
        <ele>28</ele>
        <time>2015-11-29T10:35:00Z</time>
      </trkpt>
      <trkpt lat="47.65065" lon="-0.51939">
        <ele>29</ele>
        <time>2015-11-29T10:35:05Z</time>
      </trkpt>
      <trkpt lat="47.65068" lon="-0.5193">
        <ele>29</ele>
        <time>2015-11-29T10:35:10Z</time>
      </trkpt>
      <trkpt lat="47.65072" lon="-0.51923">
        <ele>29</ele>
        <time>2015-11-29T10:35:15Z</time>
      </trkpt>
      <trkpt lat="47.65076" lon="-0.51916">
        <ele>29</ele>
        <time>2015-11-29T10:35:20Z</time>
      </trkpt>
      <trkpt lat="47.6508" lon="-0.51909">
        <ele>29</ele>
        <time>2015-11-29T10:35:25Z</time>
      </trkpt>
      <trkpt lat="47.65083" lon="-0.51901">
        <ele>29</ele>
        <time>2015-11-29T10:35:30Z</time>
      </trkpt>
      <trkpt lat="47.65087" lon="-0.51893">
        <ele>29</ele>
        <time>2015-11-29T10:35:35Z</time>
      </trkpt>
      <trkpt lat="47.65091" lon="-0.51886">
        <ele>29</ele>
        <time>2015-11-29T10:35:40Z</time>
      </trkpt>
      <trkpt lat="47.65094" lon="-0.51879">
        <ele>29</ele>
        <time>2015-11-29T10:35:45Z</time>
      </trkpt>
      <trkpt lat="47.65097" lon="-0.5187">
        <ele>29</ele>
        <time>2015-11-29T10:35:50Z</time>
      </trkpt>
      <trkpt lat="47.651" lon="-0.51862">
        <ele>30</ele>
        <time>2015-11-29T10:35:55Z</time>
      </trkpt>
      <trkpt lat="47.65102" lon="-0.51854">
        <ele>30</ele>
        <time>2015-11-29T10:36:00Z</time>
      </trkpt>
      <trkpt lat="47.65106" lon="-0.51847">
        <ele>30</ele>
        <time>2015-11-29T10:36:05Z</time>
      </trkpt>
      <trkpt lat="47.65109" lon="-0.51838">
        <ele>30</ele>
        <time>2015-11-29T10:36:10Z</time>
      </trkpt>
      <trkpt lat="47.65111" lon="-0.51829">
        <ele>30</ele>
        <time>2015-11-29T10:36:15Z</time>
      </trkpt>
      <trkpt lat="47.65115" lon="-0.51821">
        <ele>30</ele>
        <time>2015-11-29T10:36:20Z</time>
      </trkpt>
      <trkpt lat="47.65117" lon="-0.51813">
        <ele>30</ele>
        <time>2015-11-29T10:36:25Z</time>
      </trkpt>
      <trkpt lat="47.6512" lon="-0.51805">
        <ele>30</ele>
        <time>2015-11-29T10:36:30Z</time>
      </trkpt>
      <trkpt lat="47.65123" lon="-0.51797">
        <ele>30</ele>
        <time>2015-11-29T10:36:35Z</time>
      </trkpt>
      <trkpt lat="47.65126" lon="-0.51789">
        <ele>30</ele>
        <time>2015-11-29T10:36:40Z</time>
      </trkpt>
      <trkpt lat="47.65129" lon="-0.5178">
        <ele>30</ele>
        <time>2015-11-29T10:36:45Z</time>
      </trkpt>
      <trkpt lat="47.65132" lon="-0.51773">
        <ele>30</ele>
        <time>2015-11-29T10:36:50Z</time>
      </trkpt>
      <trkpt lat="47.65135" lon="-0.51766">
        <ele>30</ele>
        <time>2015-11-29T10:36:55Z</time>
      </trkpt>
      <trkpt lat="47.65138" lon="-0.51758">
        <ele>30</ele>
        <time>2015-11-29T10:37:00Z</time>
      </trkpt>
      <trkpt lat="47.65142" lon="-0.51751">
        <ele>30</ele>
        <time>2015-11-29T10:37:05Z</time>
      </trkpt>
      <trkpt lat="47.65145" lon="-0.51743">
        <ele>30</ele>
        <time>2015-11-29T10:37:10Z</time>
      </trkpt>
      <trkpt lat="47.65148" lon="-0.51735">
        <ele>30</ele>
        <time>2015-11-29T10:37:15Z</time>
      </trkpt>
      <trkpt lat="47.65151" lon="-0.51728">
        <ele>31</ele>
        <time>2015-11-29T10:37:20Z</time>
      </trkpt>
      <trkpt lat="47.65154" lon="-0.51719">
        <ele>31</ele>
        <time>2015-11-29T10:37:25Z</time>
      </trkpt>
      <trkpt lat="47.65154" lon="-0.51712">
        <ele>31</ele>
        <time>2015-11-29T10:37:30Z</time>
      </trkpt>
      <trkpt lat="47.65151" lon="-0.51704">
        <ele>31</ele>
        <time>2015-11-29T10:37:35Z</time>
      </trkpt>
      <trkpt lat="47.65147" lon="-0.517">
        <ele>30</ele>
        <time>2015-11-29T10:37:40Z</time>
      </trkpt>
      <trkpt lat="47.65142" lon="-0.51695">
        <ele>30</ele>
        <time>2015-11-29T10:37:45Z</time>
      </trkpt>
      <trkpt lat="47.65136" lon="-0.5169">
        <ele>30</ele>
        <time>2015-11-29T10:37:50Z</time>
      </trkpt>
      <trkpt lat="47.65131" lon="-0.51684">
        <ele>30</ele>
        <time>2015-11-29T10:37:55Z</time>
      </trkpt>
      <trkpt lat="47.65127" lon="-0.51679">
        <ele>30</ele>
        <time>2015-11-29T10:38:00Z</time>
      </trkpt>
      <trkpt lat="47.65123" lon="-0.51672">
        <ele>30</ele>
        <time>2015-11-29T10:38:05Z</time>
      </trkpt>
      <trkpt lat="47.65118" lon="-0.51669">
        <ele>30</ele>
        <time>2015-11-29T10:38:10Z</time>
      </trkpt>
      <trkpt lat="47.65113" lon="-0.51665">
        <ele>30</ele>
        <time>2015-11-29T10:38:15Z</time>
      </trkpt>
      <trkpt lat="47.65109" lon="-0.51661">
        <ele>30</ele>
        <time>2015-11-29T10:38:20Z</time>
      </trkpt>
      <trkpt lat="47.65104" lon="-0.51658">
        <ele>30</ele>
        <time>2015-11-29T10:38:25Z</time>
      </trkpt>
      <trkpt lat="47.65099" lon="-0.51654">
        <ele>30</ele>
        <time>2015-11-29T10:38:30Z</time>
      </trkpt>
      <trkpt lat="47.65093" lon="-0.5165">
        <ele>30</ele>
        <time>2015-11-29T10:38:35Z</time>
      </trkpt>
      <trkpt lat="47.65089" lon="-0.51647">
        <ele>30</ele>
        <time>2015-11-29T10:38:40Z</time>
      </trkpt>
      <trkpt lat="47.65084" lon="-0.51643">
        <ele>30</ele>
        <time>2015-11-29T10:38:45Z</time>
      </trkpt>
      <trkpt lat="47.65079" lon="-0.5164">
        <ele>30</ele>
        <time>2015-11-29T10:38:50Z</time>
      </trkpt>
      <trkpt lat="47.65075" lon="-0.51635">
        <ele>30</ele>
        <time>2015-11-29T10:38:55Z</time>
      </trkpt>
      <trkpt lat="47.65068" lon="-0.51633">
        <ele>30</ele>
        <time>2015-11-29T10:39:00Z</time>
      </trkpt>
      <trkpt lat="47.65062" lon="-0.5163">
        <ele>30</ele>
        <time>2015-11-29T10:39:05Z</time>
      </trkpt>
      <trkpt lat="47.65057" lon="-0.51625">
        <ele>30</ele>
        <time>2015-11-29T10:39:10Z</time>
      </trkpt>
      <trkpt lat="47.65053" lon="-0.51618">
        <ele>30</ele>
        <time>2015-11-29T10:39:15Z</time>
      </trkpt>
      <trkpt lat="47.65048" lon="-0.51613">
        <ele>30</ele>
        <time>2015-11-29T10:39:20Z</time>
      </trkpt>
      <trkpt lat="47.65044" lon="-0.51609">
        <ele>30</ele>
        <time>2015-11-29T10:39:25Z</time>
      </trkpt>
      <trkpt lat="47.6504" lon="-0.51605">
        <ele>30</ele>
        <time>2015-11-29T10:39:30Z</time>
      </trkpt>
      <trkpt lat="47.65036" lon="-0.51601">
        <ele>29</ele>
        <time>2015-11-29T10:39:35Z</time>
      </trkpt>
      <trkpt lat="47.6503" lon="-0.51598">
        <ele>29</ele>
        <time>2015-11-29T10:39:40Z</time>
      </trkpt>
      <trkpt lat="47.65025" lon="-0.51595">
        <ele>29</ele>
        <time>2015-11-29T10:39:45Z</time>
      </trkpt>
      <trkpt lat="47.65019" lon="-0.51594">
        <ele>29</ele>
        <time>2015-11-29T10:39:50Z</time>
      </trkpt>
      <trkpt lat="47.65013" lon="-0.51593">
        <ele>29</ele>
        <time>2015-11-29T10:39:55Z</time>
      </trkpt>
      <trkpt lat="47.65011" lon="-0.51589">
        <ele>29</ele>
        <time>2015-11-29T10:40:00Z</time>
      </trkpt>
      <trkpt lat="47.6501" lon="-0.51589">
        <ele>29</ele>
        <time>2015-11-29T10:40:05Z</time>
      </trkpt>
      <trkpt lat="47.65011" lon="-0.51589">
        <ele>29</ele>
        <time>2015-11-29T10:40:10Z</time>
      </trkpt>
      <trkpt lat="47.65011" lon="-0.51589">
        <ele>29</ele>
        <time>2015-11-29T10:40:15Z</time>
      </trkpt>
      <trkpt lat="47.65011" lon="-0.51589">
        <ele>29</ele>
        <time>2015-11-29T10:40:20Z</time>
      </trkpt>
      <trkpt lat="47.65011" lon="-0.5159">
        <ele>29</ele>
        <time>2015-11-29T10:40:25Z</time>
      </trkpt>
      <trkpt lat="47.6501" lon="-0.51589">
        <ele>29</ele>
        <time>2015-11-29T10:40:30Z</time>
      </trkpt>
      <trkpt lat="47.65005" lon="-0.51583">
        <ele>29</ele>
        <time>2015-11-29T10:40:35Z</time>
      </trkpt>
      <trkpt lat="47.65001" lon="-0.5158">
        <ele>29</ele>
        <time>2015-11-29T10:40:40Z</time>
      </trkpt>
      <trkpt lat="47.64997" lon="-0.51575">
        <ele>29</ele>
        <time>2015-11-29T10:40:45Z</time>
      </trkpt>
      <trkpt lat="47.64992" lon="-0.51574">
        <ele>29</ele>
        <time>2015-11-29T10:40:50Z</time>
      </trkpt>
      <trkpt lat="47.64988" lon="-0.51567">
        <ele>29</ele>
        <time>2015-11-29T10:40:55Z</time>
      </trkpt>
      <trkpt lat="47.64985" lon="-0.51558">
        <ele>29</ele>
        <time>2015-11-29T10:41:00Z</time>
      </trkpt>
      <trkpt lat="47.64982" lon="-0.51548">
        <ele>29</ele>
        <time>2015-11-29T10:41:05Z</time>
      </trkpt>
      <trkpt lat="47.6498" lon="-0.51539">
        <ele>29</ele>
        <time>2015-11-29T10:41:10Z</time>
      </trkpt>
      <trkpt lat="47.64977" lon="-0.5153">
        <ele>28</ele>
        <time>2015-11-29T10:41:15Z</time>
      </trkpt>
      <trkpt lat="47.64976" lon="-0.51521">
        <ele>28</ele>
        <time>2015-11-29T10:41:20Z</time>
      </trkpt>
      <trkpt lat="47.64975" lon="-0.51513">
        <ele>28</ele>
        <time>2015-11-29T10:41:25Z</time>
      </trkpt>
      <trkpt lat="47.64974" lon="-0.51502">
        <ele>28</ele>
        <time>2015-11-29T10:41:30Z</time>
      </trkpt>
      <trkpt lat="47.64973" lon="-0.51492">
        <ele>28</ele>
        <time>2015-11-29T10:41:35Z</time>
      </trkpt>
      <trkpt lat="47.64973" lon="-0.51482">
        <ele>28</ele>
        <time>2015-11-29T10:41:40Z</time>
      </trkpt>
      <trkpt lat="47.64973" lon="-0.51472">
        <ele>28</ele>
        <time>2015-11-29T10:41:45Z</time>
      </trkpt>
      <trkpt lat="47.64974" lon="-0.51463">
        <ele>28</ele>
        <time>2015-11-29T10:41:50Z</time>
      </trkpt>
      <trkpt lat="47.64976" lon="-0.51454">
        <ele>28</ele>
        <time>2015-11-29T10:41:55Z</time>
      </trkpt>
      <trkpt lat="47.64978" lon="-0.51445">
        <ele>28</ele>
        <time>2015-11-29T10:42:00Z</time>
      </trkpt>
      <trkpt lat="47.6498" lon="-0.51438">
        <ele>28</ele>
        <time>2015-11-29T10:42:05Z</time>
      </trkpt>
      <trkpt lat="47.64983" lon="-0.51429">
        <ele>28</ele>
        <time>2015-11-29T10:42:10Z</time>
      </trkpt>
      <trkpt lat="47.64986" lon="-0.51423">
        <ele>28</ele>
        <time>2015-11-29T10:42:15Z</time>
      </trkpt>
      <trkpt lat="47.64989" lon="-0.51416">
        <ele>28</ele>
        <time>2015-11-29T10:42:20Z</time>
      </trkpt>
      <trkpt lat="47.64992" lon="-0.5141">
        <ele>27</ele>
        <time>2015-11-29T10:42:25Z</time>
      </trkpt>
      <trkpt lat="47.64995" lon="-0.51402">
        <ele>27</ele>
        <time>2015-11-29T10:42:30Z</time>
      </trkpt>
      <trkpt lat="47.64998" lon="-0.51394">
        <ele>27</ele>
        <time>2015-11-29T10:42:35Z</time>
      </trkpt>
      <trkpt lat="47.65001" lon="-0.51384">
        <ele>27</ele>
        <time>2015-11-29T10:42:40Z</time>
      </trkpt>
      <trkpt lat="47.65002" lon="-0.51375">
        <ele>27</ele>
        <time>2015-11-29T10:42:45Z</time>
      </trkpt>
      <trkpt lat="47.65004" lon="-0.51366">
        <ele>27</ele>
        <time>2015-11-29T10:42:50Z</time>
      </trkpt>
      <trkpt lat="47.65006" lon="-0.51357">
        <ele>27</ele>
        <time>2015-11-29T10:42:55Z</time>
      </trkpt>
      <trkpt lat="47.65005" lon="-0.51347">
        <ele>26</ele>
        <time>2015-11-29T10:43:00Z</time>
      </trkpt>
      <trkpt lat="47.65002" lon="-0.51344">
        <ele>26</ele>
        <time>2015-11-29T10:43:05Z</time>
      </trkpt>
      <trkpt lat="47.64998" lon="-0.51342">
        <ele>26</ele>
        <time>2015-11-29T10:43:10Z</time>
      </trkpt>
      <trkpt lat="47.64997" lon="-0.51342">
        <ele>27</ele>
        <time>2015-11-29T10:43:15Z</time>
      </trkpt>
      <trkpt lat="47.64997" lon="-0.51342">
        <ele>27</ele>
        <time>2015-11-29T10:43:20Z</time>
      </trkpt>
      <trkpt lat="47.64995" lon="-0.51342">
        <ele>27</ele>
        <time>2015-11-29T10:43:25Z</time>
      </trkpt>
      <trkpt lat="47.64993" lon="-0.51341">
        <ele>27</ele>
        <time>2015-11-29T10:43:30Z</time>
      </trkpt>
      <trkpt lat="47.64993" lon="-0.51341">
        <ele>27</ele>
        <time>2015-11-29T10:43:35Z</time>
      </trkpt>
      <trkpt lat="47.64992" lon="-0.51341">
        <ele>27</ele>
        <time>2015-11-29T10:43:40Z</time>
      </trkpt>
      <trkpt lat="47.64992" lon="-0.51341">
        <ele>27</ele>
        <time>2015-11-29T10:43:45Z</time>
      </trkpt>
      <trkpt lat="47.64991" lon="-0.51342">
        <ele>27</ele>
        <time>2015-11-29T10:43:50Z</time>
      </trkpt>
      <trkpt lat="47.6499" lon="-0.51342">
        <ele>27</ele>
        <time>2015-11-29T10:43:55Z</time>
      </trkpt>
      <trkpt lat="47.6499" lon="-0.51342">
        <ele>27</ele>
        <time>2015-11-29T10:44:00Z</time>
      </trkpt>
      <trkpt lat="47.6499" lon="-0.51341">
        <ele>27</ele>
        <time>2015-11-29T10:44:05Z</time>
      </trkpt>
      <trkpt lat="47.6499" lon="-0.51341">
        <ele>27</ele>
        <time>2015-11-29T10:44:10Z</time>
      </trkpt>
      <trkpt lat="47.6499" lon="-0.51341">
        <ele>27</ele>
        <time>2015-11-29T10:44:15Z</time>
      </trkpt>
      <trkpt lat="47.6499" lon="-0.51341">
        <ele>27</ele>
        <time>2015-11-29T10:44:20Z</time>
      </trkpt>
      <trkpt lat="47.6499" lon="-0.51341">
        <ele>27</ele>
        <time>2015-11-29T10:44:25Z</time>
      </trkpt>
      <trkpt lat="47.64988" lon="-0.51341">
        <ele>27</ele>
        <time>2015-11-29T10:44:30Z</time>
      </trkpt>
      <trkpt lat="47.64984" lon="-0.5134">
        <ele>27</ele>
        <time>2015-11-29T10:44:35Z</time>
      </trkpt>
      <trkpt lat="47.64981" lon="-0.51338">
        <ele>27</ele>
        <time>2015-11-29T10:44:40Z</time>
      </trkpt>
      <trkpt lat="47.64977" lon="-0.51333">
        <ele>27</ele>
        <time>2015-11-29T10:44:45Z</time>
      </trkpt>
      <trkpt lat="47.64973" lon="-0.51329">
        <ele>27</ele>
        <time>2015-11-29T10:44:50Z</time>
      </trkpt>
      <trkpt lat="47.64968" lon="-0.51323">
        <ele>27</ele>
        <time>2015-11-29T10:44:55Z</time>
      </trkpt>
      <trkpt lat="47.64965" lon="-0.51317">
        <ele>27</ele>
        <time>2015-11-29T10:45:00Z</time>
      </trkpt>
      <trkpt lat="47.64961" lon="-0.51312">
        <ele>27</ele>
        <time>2015-11-29T10:45:05Z</time>
      </trkpt>
      <trkpt lat="47.64956" lon="-0.51307">
        <ele>27</ele>
        <time>2015-11-29T10:45:10Z</time>
      </trkpt>
      <trkpt lat="47.6495" lon="-0.51302">
        <ele>27</ele>
        <time>2015-11-29T10:45:15Z</time>
      </trkpt>
      <trkpt lat="47.64946" lon="-0.51299">
        <ele>27</ele>
        <time>2015-11-29T10:45:20Z</time>
      </trkpt>
      <trkpt lat="47.6494" lon="-0.51296">
        <ele>27</ele>
        <time>2015-11-29T10:45:25Z</time>
      </trkpt>
      <trkpt lat="47.64934" lon="-0.51292">
        <ele>27</ele>
        <time>2015-11-29T10:45:30Z</time>
      </trkpt>
      <trkpt lat="47.64929" lon="-0.51289">
        <ele>27</ele>
        <time>2015-11-29T10:45:35Z</time>
      </trkpt>
      <trkpt lat="47.64924" lon="-0.51287">
        <ele>28</ele>
        <time>2015-11-29T10:45:40Z</time>
      </trkpt>
      <trkpt lat="47.64918" lon="-0.51285">
        <ele>28</ele>
        <time>2015-11-29T10:45:45Z</time>
      </trkpt>
      <trkpt lat="47.64913" lon="-0.51282">
        <ele>28</ele>
        <time>2015-11-29T10:45:50Z</time>
      </trkpt>
      <trkpt lat="47.64907" lon="-0.5128">
        <ele>28</ele>
        <time>2015-11-29T10:45:55Z</time>
      </trkpt>
      <trkpt lat="47.64903" lon="-0.51278">
        <ele>28</ele>
        <time>2015-11-29T10:46:00Z</time>
      </trkpt>
      <trkpt lat="47.64898" lon="-0.51274">
        <ele>28</ele>
        <time>2015-11-29T10:46:05Z</time>
      </trkpt>
      <trkpt lat="47.64892" lon="-0.51272">
        <ele>28</ele>
        <time>2015-11-29T10:46:10Z</time>
      </trkpt>
      <trkpt lat="47.64887" lon="-0.51269">
        <ele>28</ele>
        <time>2015-11-29T10:46:15Z</time>
      </trkpt>
      <trkpt lat="47.64883" lon="-0.51268">
        <ele>28</ele>
        <time>2015-11-29T10:46:20Z</time>
      </trkpt>
      <trkpt lat="47.64879" lon="-0.51263">
        <ele>28</ele>
        <time>2015-11-29T10:46:25Z</time>
      </trkpt>
      <trkpt lat="47.64874" lon="-0.51257">
        <ele>28</ele>
        <time>2015-11-29T10:46:30Z</time>
      </trkpt>
      <trkpt lat="47.6487" lon="-0.5125">
        <ele>28</ele>
        <time>2015-11-29T10:46:35Z</time>
      </trkpt>
      <trkpt lat="47.64866" lon="-0.51244">
        <ele>28</ele>
        <time>2015-11-29T10:46:40Z</time>
      </trkpt>
      <trkpt lat="47.64863" lon="-0.51238">
        <ele>29</ele>
        <time>2015-11-29T10:46:45Z</time>
      </trkpt>
      <trkpt lat="47.64859" lon="-0.51231">
        <ele>29</ele>
        <time>2015-11-29T10:46:50Z</time>
      </trkpt>
      <trkpt lat="47.64856" lon="-0.51225">
        <ele>29</ele>
        <time>2015-11-29T10:46:55Z</time>
      </trkpt>
      <trkpt lat="47.64852" lon="-0.51219">
        <ele>29</ele>
        <time>2015-11-29T10:47:00Z</time>
      </trkpt>
      <trkpt lat="47.64849" lon="-0.51214">
        <ele>29</ele>
        <time>2015-11-29T10:47:05Z</time>
      </trkpt>
      <trkpt lat="47.64846" lon="-0.51207">
        <ele>29</ele>
        <time>2015-11-29T10:47:10Z</time>
      </trkpt>
      <trkpt lat="47.64843" lon="-0.512">
        <ele>29</ele>
        <time>2015-11-29T10:47:15Z</time>
      </trkpt>
      <trkpt lat="47.64838" lon="-0.51194">
        <ele>29</ele>
        <time>2015-11-29T10:47:20Z</time>
      </trkpt>
      <trkpt lat="47.64836" lon="-0.51187">
        <ele>29</ele>
        <time>2015-11-29T10:47:25Z</time>
      </trkpt>
      <trkpt lat="47.64832" lon="-0.51181">
        <ele>29</ele>
        <time>2015-11-29T10:47:30Z</time>
      </trkpt>
      <trkpt lat="47.64828" lon="-0.51175">
        <ele>29</ele>
        <time>2015-11-29T10:47:35Z</time>
      </trkpt>
      <trkpt lat="47.64825" lon="-0.51169">
        <ele>29</ele>
        <time>2015-11-29T10:47:40Z</time>
      </trkpt>
      <trkpt lat="47.64822" lon="-0.51162">
        <ele>30</ele>
        <time>2015-11-29T10:47:45Z</time>
      </trkpt>
      <trkpt lat="47.64819" lon="-0.51154">
        <ele>30</ele>
        <time>2015-11-29T10:47:50Z</time>
      </trkpt>
      <trkpt lat="47.64815" lon="-0.51148">
        <ele>30</ele>
        <time>2015-11-29T10:47:55Z</time>
      </trkpt>
      <trkpt lat="47.64812" lon="-0.51141">
        <ele>30</ele>
        <time>2015-11-29T10:48:00Z</time>
      </trkpt>
      <trkpt lat="47.64809" lon="-0.51136">
        <ele>30</ele>
        <time>2015-11-29T10:48:05Z</time>
      </trkpt>
      <trkpt lat="47.64806" lon="-0.5113">
        <ele>30</ele>
        <time>2015-11-29T10:48:10Z</time>
      </trkpt>
      <trkpt lat="47.64802" lon="-0.51123">
        <ele>30</ele>
        <time>2015-11-29T10:48:15Z</time>
      </trkpt>
      <trkpt lat="47.64797" lon="-0.51116">
        <ele>30</ele>
        <time>2015-11-29T10:48:20Z</time>
      </trkpt>
      <trkpt lat="47.64794" lon="-0.51109">
        <ele>30</ele>
        <time>2015-11-29T10:48:25Z</time>
      </trkpt>
      <trkpt lat="47.6479" lon="-0.51103">
        <ele>30</ele>
        <time>2015-11-29T10:48:30Z</time>
      </trkpt>
      <trkpt lat="47.64785" lon="-0.51099">
        <ele>31</ele>
        <time>2015-11-29T10:48:35Z</time>
      </trkpt>
      <trkpt lat="47.6478" lon="-0.51096">
        <ele>31</ele>
        <time>2015-11-29T10:48:40Z</time>
      </trkpt>
      <trkpt lat="47.64774" lon="-0.51091">
        <ele>31</ele>
        <time>2015-11-29T10:48:45Z</time>
      </trkpt>
      <trkpt lat="47.6477" lon="-0.51086">
        <ele>31</ele>
        <time>2015-11-29T10:48:50Z</time>
      </trkpt>
      <trkpt lat="47.64766" lon="-0.5108">
        <ele>31</ele>
        <time>2015-11-29T10:48:55Z</time>
      </trkpt>
      <trkpt lat="47.64761" lon="-0.51075">
        <ele>31</ele>
        <time>2015-11-29T10:49:00Z</time>
      </trkpt>
      <trkpt lat="47.64757" lon="-0.51071">
        <ele>31</ele>
        <time>2015-11-29T10:49:05Z</time>
      </trkpt>
      <trkpt lat="47.64753" lon="-0.51066">
        <ele>31</ele>
        <time>2015-11-29T10:49:10Z</time>
      </trkpt>
      <trkpt lat="47.64749" lon="-0.5106">
        <ele>31</ele>
        <time>2015-11-29T10:49:15Z</time>
      </trkpt>
      <trkpt lat="47.64748" lon="-0.51054">
        <ele>31</ele>
        <time>2015-11-29T10:49:20Z</time>
      </trkpt>
      <trkpt lat="47.64747" lon="-0.51048">
        <ele>31</ele>
        <time>2015-11-29T10:49:25Z</time>
      </trkpt>
      <trkpt lat="47.64746" lon="-0.51042">
        <ele>31</ele>
        <time>2015-11-29T10:49:30Z</time>
      </trkpt>
      <trkpt lat="47.64742" lon="-0.51035">
        <ele>31</ele>
        <time>2015-11-29T10:49:35Z</time>
      </trkpt>
      <trkpt lat="47.64737" lon="-0.51031">
        <ele>32</ele>
        <time>2015-11-29T10:49:40Z</time>
      </trkpt>
      <trkpt lat="47.64731" lon="-0.51028">
        <ele>32</ele>
        <time>2015-11-29T10:49:45Z</time>
      </trkpt>
      <trkpt lat="47.64726" lon="-0.51025">
        <ele>32</ele>
        <time>2015-11-29T10:49:50Z</time>
      </trkpt>
      <trkpt lat="47.64722" lon="-0.51022">
        <ele>32</ele>
        <time>2015-11-29T10:49:55Z</time>
      </trkpt>
      <trkpt lat="47.64717" lon="-0.51021">
        <ele>32</ele>
        <time>2015-11-29T10:50:00Z</time>
      </trkpt>
      <trkpt lat="47.64712" lon="-0.51019">
        <ele>33</ele>
        <time>2015-11-29T10:50:05Z</time>
      </trkpt>
      <trkpt lat="47.64706" lon="-0.51018">
        <ele>33</ele>
        <time>2015-11-29T10:50:10Z</time>
      </trkpt>
      <trkpt lat="47.64701" lon="-0.51016">
        <ele>33</ele>
        <time>2015-11-29T10:50:15Z</time>
      </trkpt>
      <trkpt lat="47.64695" lon="-0.51016">
        <ele>33</ele>
        <time>2015-11-29T10:50:20Z</time>
      </trkpt>
      <trkpt lat="47.6469" lon="-0.51015">
        <ele>33</ele>
        <time>2015-11-29T10:50:25Z</time>
      </trkpt>
      <trkpt lat="47.64685" lon="-0.51015">
        <ele>34</ele>
        <time>2015-11-29T10:50:30Z</time>
      </trkpt>
      <trkpt lat="47.6468" lon="-0.51014">
        <ele>34</ele>
        <time>2015-11-29T10:50:35Z</time>
      </trkpt>
      <trkpt lat="47.64676" lon="-0.51014">
        <ele>34</ele>
        <time>2015-11-29T10:50:40Z</time>
      </trkpt>
      <trkpt lat="47.64675" lon="-0.51014">
        <ele>34</ele>
        <time>2015-11-29T10:50:45Z</time>
      </trkpt>
      <trkpt lat="47.64675" lon="-0.51013">
        <ele>34</ele>
        <time>2015-11-29T10:50:50Z</time>
      </trkpt>
      <trkpt lat="47.64675" lon="-0.51013">
        <ele>34</ele>
        <time>2015-11-29T10:50:55Z</time>
      </trkpt>
      <trkpt lat="47.64675" lon="-0.51008">
        <ele>34</ele>
        <time>2015-11-29T10:51:00Z</time>
      </trkpt>
      <trkpt lat="47.64675" lon="-0.51003">
        <ele>34</ele>
        <time>2015-11-29T10:51:05Z</time>
      </trkpt>
      <trkpt lat="47.64676" lon="-0.50998">
        <ele>34</ele>
        <time>2015-11-29T10:51:10Z</time>
      </trkpt>
      <trkpt lat="47.64679" lon="-0.50993">
        <ele>34</ele>
        <time>2015-11-29T10:51:15Z</time>
      </trkpt>
      <trkpt lat="47.64683" lon="-0.50988">
        <ele>33</ele>
        <time>2015-11-29T10:51:20Z</time>
      </trkpt>
      <trkpt lat="47.64686" lon="-0.50984">
        <ele>33</ele>
        <time>2015-11-29T10:51:25Z</time>
      </trkpt>
      <trkpt lat="47.64688" lon="-0.5098">
        <ele>33</ele>
        <time>2015-11-29T10:51:30Z</time>
      </trkpt>
      <trkpt lat="47.64692" lon="-0.50973">
        <ele>33</ele>
        <time>2015-11-29T10:51:35Z</time>
      </trkpt>
      <trkpt lat="47.64697" lon="-0.50965">
        <ele>32</ele>
        <time>2015-11-29T10:51:40Z</time>
      </trkpt>
      <trkpt lat="47.64702" lon="-0.50958">
        <ele>32</ele>
        <time>2015-11-29T10:51:45Z</time>
      </trkpt>
      <trkpt lat="47.64706" lon="-0.50952">
        <ele>32</ele>
        <time>2015-11-29T10:51:50Z</time>
      </trkpt>
      <trkpt lat="47.6471" lon="-0.50945">
        <ele>32</ele>
        <time>2015-11-29T10:51:55Z</time>
      </trkpt>
      <trkpt lat="47.64714" lon="-0.5094">
        <ele>31</ele>
        <time>2015-11-29T10:52:00Z</time>
      </trkpt>
      <trkpt lat="47.6472" lon="-0.50936">
        <ele>31</ele>
        <time>2015-11-29T10:52:05Z</time>
      </trkpt>
      <trkpt lat="47.64726" lon="-0.50932">
        <ele>31</ele>
        <time>2015-11-29T10:52:10Z</time>
      </trkpt>
      <trkpt lat="47.64731" lon="-0.50928">
        <ele>30</ele>
        <time>2015-11-29T10:52:15Z</time>
      </trkpt>
      <trkpt lat="47.64737" lon="-0.50924">
        <ele>30</ele>
        <time>2015-11-29T10:52:20Z</time>
      </trkpt>
      <trkpt lat="47.64745" lon="-0.50922">
        <ele>30</ele>
        <time>2015-11-29T10:52:25Z</time>
      </trkpt>
      <trkpt lat="47.64751" lon="-0.50921">
        <ele>29</ele>
        <time>2015-11-29T10:52:30Z</time>
      </trkpt>
      <trkpt lat="47.64757" lon="-0.50917">
        <ele>29</ele>
        <time>2015-11-29T10:52:35Z</time>
      </trkpt>
      <trkpt lat="47.64763" lon="-0.50914">
        <ele>29</ele>
        <time>2015-11-29T10:52:40Z</time>
      </trkpt>
      <trkpt lat="47.6477" lon="-0.50911">
        <ele>28</ele>
        <time>2015-11-29T10:52:45Z</time>
      </trkpt>
      <trkpt lat="47.64776" lon="-0.50909">
        <ele>28</ele>
        <time>2015-11-29T10:52:50Z</time>
      </trkpt>
      <trkpt lat="47.64782" lon="-0.50907">
        <ele>28</ele>
        <time>2015-11-29T10:52:55Z</time>
      </trkpt>
      <trkpt lat="47.64789" lon="-0.50904">
        <ele>28</ele>
        <time>2015-11-29T10:53:00Z</time>
      </trkpt>
      <trkpt lat="47.64795" lon="-0.50902">
        <ele>28</ele>
        <time>2015-11-29T10:53:05Z</time>
      </trkpt>
      <trkpt lat="47.64801" lon="-0.50899">
        <ele>28</ele>
        <time>2015-11-29T10:53:10Z</time>
      </trkpt>
      <trkpt lat="47.64809" lon="-0.50896">
        <ele>28</ele>
        <time>2015-11-29T10:53:15Z</time>
      </trkpt>
      <trkpt lat="47.64815" lon="-0.50893">
        <ele>28</ele>
        <time>2015-11-29T10:53:20Z</time>
      </trkpt>
      <trkpt lat="47.64822" lon="-0.5089">
        <ele>27</ele>
        <time>2015-11-29T10:53:25Z</time>
      </trkpt>
      <trkpt lat="47.64827" lon="-0.50886">
        <ele>27</ele>
        <time>2015-11-29T10:53:30Z</time>
      </trkpt>
      <trkpt lat="47.64833" lon="-0.50884">
        <ele>27</ele>
        <time>2015-11-29T10:53:35Z</time>
      </trkpt>
      <trkpt lat="47.64839" lon="-0.50883">
        <ele>27</ele>
        <time>2015-11-29T10:53:40Z</time>
      </trkpt>
      <trkpt lat="47.64845" lon="-0.50881">
        <ele>27</ele>
        <time>2015-11-29T10:53:45Z</time>
      </trkpt>
      <trkpt lat="47.64851" lon="-0.50879">
        <ele>27</ele>
        <time>2015-11-29T10:53:50Z</time>
      </trkpt>
      <trkpt lat="47.64856" lon="-0.50875">
        <ele>27</ele>
        <time>2015-11-29T10:53:55Z</time>
      </trkpt>
      <trkpt lat="47.64862" lon="-0.5087">
        <ele>27</ele>
        <time>2015-11-29T10:54:00Z</time>
      </trkpt>
      <trkpt lat="47.64867" lon="-0.50866">
        <ele>27</ele>
        <time>2015-11-29T10:54:05Z</time>
      </trkpt>
      <trkpt lat="47.64872" lon="-0.50861">
        <ele>26</ele>
        <time>2015-11-29T10:54:10Z</time>
      </trkpt>
      <trkpt lat="47.64876" lon="-0.50855">
        <ele>26</ele>
        <time>2015-11-29T10:54:15Z</time>
      </trkpt>
      <trkpt lat="47.6488" lon="-0.50848">
        <ele>26</ele>
        <time>2015-11-29T10:54:20Z</time>
      </trkpt>
      <trkpt lat="47.64885" lon="-0.50842">
        <ele>26</ele>
        <time>2015-11-29T10:54:25Z</time>
      </trkpt>
      <trkpt lat="47.64888" lon="-0.50835">
        <ele>26</ele>
        <time>2015-11-29T10:54:30Z</time>
      </trkpt>
      <trkpt lat="47.64892" lon="-0.50828">
        <ele>25</ele>
        <time>2015-11-29T10:54:35Z</time>
      </trkpt>
      <trkpt lat="47.64896" lon="-0.50819">
        <ele>25</ele>
        <time>2015-11-29T10:54:40Z</time>
      </trkpt>
      <trkpt lat="47.64899" lon="-0.50812">
        <ele>25</ele>
        <time>2015-11-29T10:54:45Z</time>
      </trkpt>
      <trkpt lat="47.64903" lon="-0.50804">
        <ele>25</ele>
        <time>2015-11-29T10:54:50Z</time>
      </trkpt>
      <trkpt lat="47.64906" lon="-0.50796">
        <ele>25</ele>
        <time>2015-11-29T10:54:55Z</time>
      </trkpt>
      <trkpt lat="47.64908" lon="-0.50787">
        <ele>25</ele>
        <time>2015-11-29T10:55:00Z</time>
      </trkpt>
      <trkpt lat="47.6491" lon="-0.50779">
        <ele>25</ele>
        <time>2015-11-29T10:55:05Z</time>
      </trkpt>
      <trkpt lat="47.64915" lon="-0.5077">
        <ele>24</ele>
        <time>2015-11-29T10:55:10Z</time>
      </trkpt>
      <trkpt lat="47.64917" lon="-0.50763">
        <ele>24</ele>
        <time>2015-11-29T10:55:15Z</time>
      </trkpt>
      <trkpt lat="47.6492" lon="-0.50755">
        <ele>24</ele>
        <time>2015-11-29T10:55:20Z</time>
      </trkpt>
      <trkpt lat="47.64922" lon="-0.50747">
        <ele>24</ele>
        <time>2015-11-29T10:55:25Z</time>
      </trkpt>
      <trkpt lat="47.64923" lon="-0.50738">
        <ele>24</ele>
        <time>2015-11-29T10:55:30Z</time>
      </trkpt>
      <trkpt lat="47.64925" lon="-0.50729">
        <ele>24</ele>
        <time>2015-11-29T10:55:35Z</time>
      </trkpt>
      <trkpt lat="47.64927" lon="-0.50721">
        <ele>24</ele>
        <time>2015-11-29T10:55:40Z</time>
      </trkpt>
      <trkpt lat="47.64929" lon="-0.50713">
        <ele>24</ele>
        <time>2015-11-29T10:55:45Z</time>
      </trkpt>
      <trkpt lat="47.64931" lon="-0.50705">
        <ele>25</ele>
        <time>2015-11-29T10:55:50Z</time>
      </trkpt>
      <trkpt lat="47.64934" lon="-0.50696">
        <ele>25</ele>
        <time>2015-11-29T10:55:55Z</time>
      </trkpt>
      <trkpt lat="47.64937" lon="-0.50687">
        <ele>25</ele>
        <time>2015-11-29T10:56:00Z</time>
      </trkpt>
      <trkpt lat="47.6494" lon="-0.5068">
        <ele>25</ele>
        <time>2015-11-29T10:56:05Z</time>
      </trkpt>
      <trkpt lat="47.64944" lon="-0.50674">
        <ele>25</ele>
        <time>2015-11-29T10:56:10Z</time>
      </trkpt>
      <trkpt lat="47.64946" lon="-0.50665">
        <ele>25</ele>
        <time>2015-11-29T10:56:15Z</time>
      </trkpt>
      <trkpt lat="47.64948" lon="-0.50656">
        <ele>25</ele>
        <time>2015-11-29T10:56:20Z</time>
      </trkpt>
      <trkpt lat="47.6495" lon="-0.50647">
        <ele>25</ele>
        <time>2015-11-29T10:56:25Z</time>
      </trkpt>
      <trkpt lat="47.64953" lon="-0.50639">
        <ele>25</ele>
        <time>2015-11-29T10:56:30Z</time>
      </trkpt>
      <trkpt lat="47.64957" lon="-0.50631">
        <ele>25</ele>
        <time>2015-11-29T10:56:35Z</time>
      </trkpt>
      <trkpt lat="47.64962" lon="-0.50625">
        <ele>25</ele>
        <time>2015-11-29T10:56:40Z</time>
      </trkpt>
      <trkpt lat="47.64968" lon="-0.50621">
        <ele>25</ele>
        <time>2015-11-29T10:56:45Z</time>
      </trkpt>
      <trkpt lat="47.64972" lon="-0.50614">
        <ele>25</ele>
        <time>2015-11-29T10:56:50Z</time>
      </trkpt>
      <trkpt lat="47.64975" lon="-0.50607">
        <ele>25</ele>
        <time>2015-11-29T10:56:55Z</time>
      </trkpt>
      <trkpt lat="47.64978" lon="-0.50599">
        <ele>25</ele>
        <time>2015-11-29T10:57:00Z</time>
      </trkpt>
      <trkpt lat="47.64981" lon="-0.50591">
        <ele>25</ele>
        <time>2015-11-29T10:57:05Z</time>
      </trkpt>
      <trkpt lat="47.64985" lon="-0.50583">
        <ele>25</ele>
        <time>2015-11-29T10:57:10Z</time>
      </trkpt>
      <trkpt lat="47.64989" lon="-0.50578">
        <ele>25</ele>
        <time>2015-11-29T10:57:15Z</time>
      </trkpt>
      <trkpt lat="47.64995" lon="-0.50571">
        <ele>26</ele>
        <time>2015-11-29T10:57:20Z</time>
      </trkpt>
      <trkpt lat="47.65" lon="-0.50565">
        <ele>26</ele>
        <time>2015-11-29T10:57:25Z</time>
      </trkpt>
      <trkpt lat="47.65005" lon="-0.50557">
        <ele>26</ele>
        <time>2015-11-29T10:57:30Z</time>
      </trkpt>
      <trkpt lat="47.65009" lon="-0.50549">
        <ele>26</ele>
        <time>2015-11-29T10:57:35Z</time>
      </trkpt>
      <trkpt lat="47.65013" lon="-0.50541">
        <ele>27</ele>
        <time>2015-11-29T10:57:40Z</time>
      </trkpt>
      <trkpt lat="47.65017" lon="-0.50534">
        <ele>27</ele>
        <time>2015-11-29T10:57:45Z</time>
      </trkpt>
      <trkpt lat="47.65021" lon="-0.50526">
        <ele>27</ele>
        <time>2015-11-29T10:57:50Z</time>
      </trkpt>
      <trkpt lat="47.65025" lon="-0.50519">
        <ele>27</ele>
        <time>2015-11-29T10:57:55Z</time>
      </trkpt>
      <trkpt lat="47.65028" lon="-0.50513">
        <ele>28</ele>
        <time>2015-11-29T10:58:00Z</time>
      </trkpt>
      <trkpt lat="47.65032" lon="-0.50507">
        <ele>28</ele>
        <time>2015-11-29T10:58:05Z</time>
      </trkpt>
      <trkpt lat="47.65031" lon="-0.505">
        <ele>28</ele>
        <time>2015-11-29T10:58:10Z</time>
      </trkpt>
      <trkpt lat="47.65027" lon="-0.50494">
        <ele>28</ele>
        <time>2015-11-29T10:58:15Z</time>
      </trkpt>
      <trkpt lat="47.65024" lon="-0.50488">
        <ele>28</ele>
        <time>2015-11-29T10:58:20Z</time>
      </trkpt>
      <trkpt lat="47.6502" lon="-0.50483">
        <ele>27</ele>
        <time>2015-11-29T10:58:25Z</time>
      </trkpt>
      <trkpt lat="47.65017" lon="-0.50478">
        <ele>27</ele>
        <time>2015-11-29T10:58:30Z</time>
      </trkpt>
      <trkpt lat="47.65015" lon="-0.50474">
        <ele>27</ele>
        <time>2015-11-29T10:58:35Z</time>
      </trkpt>
      <trkpt lat="47.65011" lon="-0.50468">
        <ele>27</ele>
        <time>2015-11-29T10:58:40Z</time>
      </trkpt>
      <trkpt lat="47.65007" lon="-0.50461">
        <ele>27</ele>
        <time>2015-11-29T10:58:45Z</time>
      </trkpt>
      <trkpt lat="47.65004" lon="-0.50458">
        <ele>27</ele>
        <time>2015-11-29T10:58:50Z</time>
      </trkpt>
      <trkpt lat="47.65001" lon="-0.50452">
        <ele>27</ele>
        <time>2015-11-29T10:58:55Z</time>
      </trkpt>
      <trkpt lat="47.64997" lon="-0.50447">
        <ele>27</ele>
        <time>2015-11-29T10:59:00Z</time>
      </trkpt>
      <trkpt lat="47.64994" lon="-0.50441">
        <ele>27</ele>
        <time>2015-11-29T10:59:05Z</time>
      </trkpt>
      <trkpt lat="47.6499" lon="-0.50433">
        <ele>27</ele>
        <time>2015-11-29T10:59:10Z</time>
      </trkpt>
      <trkpt lat="47.64986" lon="-0.50426">
        <ele>27</ele>
        <time>2015-11-29T10:59:15Z</time>
      </trkpt>
      <trkpt lat="47.64982" lon="-0.50419">
        <ele>27</ele>
        <time>2015-11-29T10:59:20Z</time>
      </trkpt>
      <trkpt lat="47.64979" lon="-0.50413">
        <ele>27</ele>
        <time>2015-11-29T10:59:25Z</time>
      </trkpt>
      <trkpt lat="47.64974" lon="-0.50407">
        <ele>27</ele>
        <time>2015-11-29T10:59:30Z</time>
      </trkpt>
      <trkpt lat="47.64971" lon="-0.504">
        <ele>27</ele>
        <time>2015-11-29T10:59:35Z</time>
      </trkpt>
      <trkpt lat="47.64967" lon="-0.50394">
        <ele>27</ele>
        <time>2015-11-29T10:59:40Z</time>
      </trkpt>
      <trkpt lat="47.64964" lon="-0.50386">
        <ele>27</ele>
        <time>2015-11-29T10:59:45Z</time>
      </trkpt>
      <trkpt lat="47.64962" lon="-0.50379">
        <ele>27</ele>
        <time>2015-11-29T10:59:50Z</time>
      </trkpt>
      <trkpt lat="47.6496" lon="-0.50372">
        <ele>26</ele>
        <time>2015-11-29T10:59:55Z</time>
      </trkpt>
      <trkpt lat="47.64959" lon="-0.50365">
        <ele>26</ele>
        <time>2015-11-29T11:00:00Z</time>
      </trkpt>
      <trkpt lat="47.64958" lon="-0.50357">
        <ele>26</ele>
        <time>2015-11-29T11:00:05Z</time>
      </trkpt>
      <trkpt lat="47.64957" lon="-0.50348">
        <ele>26</ele>
        <time>2015-11-29T11:00:10Z</time>
      </trkpt>
      <trkpt lat="47.64956" lon="-0.50338">
        <ele>26</ele>
        <time>2015-11-29T11:00:15Z</time>
      </trkpt>
      <trkpt lat="47.64955" lon="-0.5033">
        <ele>26</ele>
        <time>2015-11-29T11:00:20Z</time>
      </trkpt>
      <trkpt lat="47.64956" lon="-0.50322">
        <ele>26</ele>
        <time>2015-11-29T11:00:25Z</time>
      </trkpt>
      <trkpt lat="47.64955" lon="-0.50311">
        <ele>26</ele>
        <time>2015-11-29T11:00:30Z</time>
      </trkpt>
      <trkpt lat="47.64956" lon="-0.50303">
        <ele>26</ele>
        <time>2015-11-29T11:00:35Z</time>
      </trkpt>
      <trkpt lat="47.64957" lon="-0.50298">
        <ele>26</ele>
        <time>2015-11-29T11:00:40Z</time>
      </trkpt>
      <trkpt lat="47.64959" lon="-0.50293">
        <ele>26</ele>
        <time>2015-11-29T11:00:45Z</time>
      </trkpt>
      <trkpt lat="47.64959" lon="-0.50287">
        <ele>26</ele>
        <time>2015-11-29T11:00:50Z</time>
      </trkpt>
      <trkpt lat="47.64959" lon="-0.50278">
        <ele>25</ele>
        <time>2015-11-29T11:00:55Z</time>
      </trkpt>
      <trkpt lat="47.64958" lon="-0.5027">
        <ele>25</ele>
        <time>2015-11-29T11:01:00Z</time>
      </trkpt>
      <trkpt lat="47.64959" lon="-0.50261">
        <ele>25</ele>
        <time>2015-11-29T11:01:05Z</time>
      </trkpt>
      <trkpt lat="47.64958" lon="-0.50253">
        <ele>25</ele>
        <time>2015-11-29T11:01:10Z</time>
      </trkpt>
      <trkpt lat="47.64958" lon="-0.50245">
        <ele>25</ele>
        <time>2015-11-29T11:01:15Z</time>
      </trkpt>
      <trkpt lat="47.64958" lon="-0.50238">
        <ele>25</ele>
        <time>2015-11-29T11:01:20Z</time>
      </trkpt>
      <trkpt lat="47.64957" lon="-0.50231">
        <ele>25</ele>
        <time>2015-11-29T11:01:25Z</time>
      </trkpt>
      <trkpt lat="47.64956" lon="-0.50222">
        <ele>25</ele>
        <time>2015-11-29T11:01:30Z</time>
      </trkpt>
      <trkpt lat="47.64955" lon="-0.50214">
        <ele>25</ele>
        <time>2015-11-29T11:01:35Z</time>
      </trkpt>
      <trkpt lat="47.64954" lon="-0.50206">
        <ele>24</ele>
        <time>2015-11-29T11:01:40Z</time>
      </trkpt>
      <trkpt lat="47.64952" lon="-0.50199">
        <ele>24</ele>
        <time>2015-11-29T11:01:45Z</time>
      </trkpt>
      <trkpt lat="47.64952" lon="-0.50192">
        <ele>24</ele>
        <time>2015-11-29T11:01:50Z</time>
      </trkpt>
      <trkpt lat="47.6495" lon="-0.50184">
        <ele>24</ele>
        <time>2015-11-29T11:01:55Z</time>
      </trkpt>
      <trkpt lat="47.64948" lon="-0.50175">
        <ele>24</ele>
        <time>2015-11-29T11:02:00Z</time>
      </trkpt>
      <trkpt lat="47.64947" lon="-0.50168">
        <ele>25</ele>
        <time>2015-11-29T11:02:05Z</time>
      </trkpt>
      <trkpt lat="47.64946" lon="-0.50161">
        <ele>25</ele>
        <time>2015-11-29T11:02:10Z</time>
      </trkpt>
      <trkpt lat="47.64944" lon="-0.50154">
        <ele>25</ele>
        <time>2015-11-29T11:02:15Z</time>
      </trkpt>
      <trkpt lat="47.64943" lon="-0.50148">
        <ele>25</ele>
        <time>2015-11-29T11:02:20Z</time>
      </trkpt>
      <trkpt lat="47.64941" lon="-0.50141">
        <ele>25</ele>
        <time>2015-11-29T11:02:25Z</time>
      </trkpt>
      <trkpt lat="47.64937" lon="-0.50134">
        <ele>25</ele>
        <time>2015-11-29T11:02:30Z</time>
      </trkpt>
      <trkpt lat="47.64935" lon="-0.50128">
        <ele>25</ele>
        <time>2015-11-29T11:02:35Z</time>
      </trkpt>
      <trkpt lat="47.64932" lon="-0.50121">
        <ele>25</ele>
        <time>2015-11-29T11:02:40Z</time>
      </trkpt>
      <trkpt lat="47.6493" lon="-0.50114">
        <ele>25</ele>
        <time>2015-11-29T11:02:45Z</time>
      </trkpt>
      <trkpt lat="47.64926" lon="-0.50107">
        <ele>25</ele>
        <time>2015-11-29T11:02:50Z</time>
      </trkpt>
      <trkpt lat="47.64923" lon="-0.501">
        <ele>25</ele>
        <time>2015-11-29T11:02:55Z</time>
      </trkpt>
      <trkpt lat="47.64921" lon="-0.50094">
        <ele>25</ele>
        <time>2015-11-29T11:03:00Z</time>
      </trkpt>
      <trkpt lat="47.64918" lon="-0.50087">
        <ele>25</ele>
        <time>2015-11-29T11:03:05Z</time>
      </trkpt>
      <trkpt lat="47.64916" lon="-0.50081">
        <ele>25</ele>
        <time>2015-11-29T11:03:10Z</time>
      </trkpt>
      <trkpt lat="47.64914" lon="-0.50073">
        <ele>25</ele>
        <time>2015-11-29T11:03:15Z</time>
      </trkpt>
      <trkpt lat="47.64912" lon="-0.50065">
        <ele>25</ele>
        <time>2015-11-29T11:03:20Z</time>
      </trkpt>
      <trkpt lat="47.64909" lon="-0.50056">
        <ele>25</ele>
        <time>2015-11-29T11:03:25Z</time>
      </trkpt>
      <trkpt lat="47.64907" lon="-0.50048">
        <ele>25</ele>
        <time>2015-11-29T11:03:30Z</time>
      </trkpt>
      <trkpt lat="47.64904" lon="-0.5004">
        <ele>25</ele>
        <time>2015-11-29T11:03:35Z</time>
      </trkpt>
      <trkpt lat="47.64902" lon="-0.50035">
        <ele>25</ele>
        <time>2015-11-29T11:03:40Z</time>
      </trkpt>
      <trkpt lat="47.64899" lon="-0.50026">
        <ele>24</ele>
        <time>2015-11-29T11:03:45Z</time>
      </trkpt>
      <trkpt lat="47.64896" lon="-0.50017">
        <ele>24</ele>
        <time>2015-11-29T11:03:50Z</time>
      </trkpt>
      <trkpt lat="47.64893" lon="-0.50009">
        <ele>24</ele>
        <time>2015-11-29T11:03:55Z</time>
      </trkpt>
      <trkpt lat="47.6489" lon="-0.50002">
        <ele>24</ele>
        <time>2015-11-29T11:04:00Z</time>
      </trkpt>
      <trkpt lat="47.64887" lon="-0.49993">
        <ele>24</ele>
        <time>2015-11-29T11:04:05Z</time>
      </trkpt>
      <trkpt lat="47.64885" lon="-0.49984">
        <ele>24</ele>
        <time>2015-11-29T11:04:10Z</time>
      </trkpt>
      <trkpt lat="47.64882" lon="-0.49976">
        <ele>24</ele>
        <time>2015-11-29T11:04:15Z</time>
      </trkpt>
      <trkpt lat="47.6488" lon="-0.49967">
        <ele>24</ele>
        <time>2015-11-29T11:04:20Z</time>
      </trkpt>
      <trkpt lat="47.64878" lon="-0.49958">
        <ele>24</ele>
        <time>2015-11-29T11:04:25Z</time>
      </trkpt>
      <trkpt lat="47.64877" lon="-0.49949">
        <ele>24</ele>
        <time>2015-11-29T11:04:30Z</time>
      </trkpt>
      <trkpt lat="47.64876" lon="-0.49941">
        <ele>24</ele>
        <time>2015-11-29T11:04:35Z</time>
      </trkpt>
      <trkpt lat="47.64874" lon="-0.49932">
        <ele>24</ele>
        <time>2015-11-29T11:04:40Z</time>
      </trkpt>
      <trkpt lat="47.64872" lon="-0.49923">
        <ele>24</ele>
        <time>2015-11-29T11:04:45Z</time>
      </trkpt>
      <trkpt lat="47.6487" lon="-0.49914">
        <ele>24</ele>
        <time>2015-11-29T11:04:50Z</time>
      </trkpt>
      <trkpt lat="47.64868" lon="-0.49905">
        <ele>24</ele>
        <time>2015-11-29T11:04:55Z</time>
      </trkpt>
      <trkpt lat="47.64865" lon="-0.49896">
        <ele>24</ele>
        <time>2015-11-29T11:05:00Z</time>
      </trkpt>
      <trkpt lat="47.64863" lon="-0.49887">
        <ele>24</ele>
        <time>2015-11-29T11:05:05Z</time>
      </trkpt>
      <trkpt lat="47.6486" lon="-0.49878">
        <ele>24</ele>
        <time>2015-11-29T11:05:10Z</time>
      </trkpt>
      <trkpt lat="47.64856" lon="-0.4987">
        <ele>24</ele>
        <time>2015-11-29T11:05:15Z</time>
      </trkpt>
      <trkpt lat="47.64851" lon="-0.49862">
        <ele>23</ele>
        <time>2015-11-29T11:05:20Z</time>
      </trkpt>
      <trkpt lat="47.64847" lon="-0.49856">
        <ele>23</ele>
        <time>2015-11-29T11:05:25Z</time>
      </trkpt>
      <trkpt lat="47.64842" lon="-0.4985">
        <ele>23</ele>
        <time>2015-11-29T11:05:30Z</time>
      </trkpt>
      <trkpt lat="47.64838" lon="-0.49843">
        <ele>23</ele>
        <time>2015-11-29T11:05:35Z</time>
      </trkpt>
      <trkpt lat="47.64834" lon="-0.49837">
        <ele>23</ele>
        <time>2015-11-29T11:05:40Z</time>
      </trkpt>
      <trkpt lat="47.6483" lon="-0.4983">
        <ele>23</ele>
        <time>2015-11-29T11:05:45Z</time>
      </trkpt>
      <trkpt lat="47.64825" lon="-0.49825">
        <ele>23</ele>
        <time>2015-11-29T11:05:50Z</time>
      </trkpt>
      <trkpt lat="47.64821" lon="-0.49816">
        <ele>23</ele>
        <time>2015-11-29T11:05:55Z</time>
      </trkpt>
      <trkpt lat="47.64817" lon="-0.49809">
        <ele>23</ele>
        <time>2015-11-29T11:06:00Z</time>
      </trkpt>
      <trkpt lat="47.64813" lon="-0.49801">
        <ele>23</ele>
        <time>2015-11-29T11:06:05Z</time>
      </trkpt>
      <trkpt lat="47.64808" lon="-0.49793">
        <ele>23</ele>
        <time>2015-11-29T11:06:10Z</time>
      </trkpt>
      <trkpt lat="47.64804" lon="-0.49784">
        <ele>23</ele>
        <time>2015-11-29T11:06:15Z</time>
      </trkpt>
      <trkpt lat="47.648" lon="-0.49776">
        <ele>23</ele>
        <time>2015-11-29T11:06:20Z</time>
      </trkpt>
      <trkpt lat="47.64795" lon="-0.49768">
        <ele>23</ele>
        <time>2015-11-29T11:06:25Z</time>
      </trkpt>
      <trkpt lat="47.64791" lon="-0.4976">
        <ele>22</ele>
        <time>2015-11-29T11:06:30Z</time>
      </trkpt>
      <trkpt lat="47.64788" lon="-0.49753">
        <ele>22</ele>
        <time>2015-11-29T11:06:35Z</time>
      </trkpt>
      <trkpt lat="47.64787" lon="-0.49748">
        <ele>22</ele>
        <time>2015-11-29T11:06:40Z</time>
      </trkpt>
      <trkpt lat="47.64785" lon="-0.49739">
        <ele>22</ele>
        <time>2015-11-29T11:06:45Z</time>
      </trkpt>
      <trkpt lat="47.64784" lon="-0.49729">
        <ele>22</ele>
        <time>2015-11-29T11:06:50Z</time>
      </trkpt>
      <trkpt lat="47.64782" lon="-0.49721">
        <ele>21</ele>
        <time>2015-11-29T11:06:55Z</time>
      </trkpt>
      <trkpt lat="47.64782" lon="-0.49711">
        <ele>21</ele>
        <time>2015-11-29T11:07:00Z</time>
      </trkpt>
      <trkpt lat="47.64782" lon="-0.497">
        <ele>21</ele>
        <time>2015-11-29T11:07:05Z</time>
      </trkpt>
      <trkpt lat="47.64782" lon="-0.4969">
        <ele>21</ele>
        <time>2015-11-29T11:07:10Z</time>
      </trkpt>
      <trkpt lat="47.64784" lon="-0.4968">
        <ele>21</ele>
        <time>2015-11-29T11:07:15Z</time>
      </trkpt>
      <trkpt lat="47.64785" lon="-0.49671">
        <ele>21</ele>
        <time>2015-11-29T11:07:20Z</time>
      </trkpt>
      <trkpt lat="47.64786" lon="-0.49662">
        <ele>20</ele>
        <time>2015-11-29T11:07:25Z</time>
      </trkpt>
      <trkpt lat="47.64788" lon="-0.49654">
        <ele>20</ele>
        <time>2015-11-29T11:07:30Z</time>
      </trkpt>
      <trkpt lat="47.6479" lon="-0.49646">
        <ele>20</ele>
        <time>2015-11-29T11:07:35Z</time>
      </trkpt>
      <trkpt lat="47.64791" lon="-0.49639">
        <ele>20</ele>
        <time>2015-11-29T11:07:40Z</time>
      </trkpt>
      <trkpt lat="47.64793" lon="-0.4963">
        <ele>20</ele>
        <time>2015-11-29T11:07:45Z</time>
      </trkpt>
      <trkpt lat="47.64795" lon="-0.49622">
        <ele>21</ele>
        <time>2015-11-29T11:07:50Z</time>
      </trkpt>
      <trkpt lat="47.64796" lon="-0.49618">
        <ele>21</ele>
        <time>2015-11-29T11:07:55Z</time>
      </trkpt>
      <trkpt lat="47.64797" lon="-0.49617">
        <ele>21</ele>
        <time>2015-11-29T11:08:00Z</time>
      </trkpt>
      <trkpt lat="47.64798" lon="-0.49616">
        <ele>21</ele>
        <time>2015-11-29T11:08:05Z</time>
      </trkpt>
      <trkpt lat="47.64798" lon="-0.49616">
        <ele>21</ele>
        <time>2015-11-29T11:08:10Z</time>
      </trkpt>
      <trkpt lat="47.64798" lon="-0.49616">
        <ele>21</ele>
        <time>2015-11-29T11:08:15Z</time>
      </trkpt>
      <trkpt lat="47.64798" lon="-0.49616">
        <ele>21</ele>
        <time>2015-11-29T11:08:20Z</time>
      </trkpt>
      <trkpt lat="47.64798" lon="-0.49616">
        <ele>21</ele>
        <time>2015-11-29T11:08:25Z</time>
      </trkpt>
      <trkpt lat="47.64798" lon="-0.49616">
        <ele>21</ele>
        <time>2015-11-29T11:08:30Z</time>
      </trkpt>
      <trkpt lat="47.64798" lon="-0.49616">
        <ele>21</ele>
        <time>2015-11-29T11:08:35Z</time>
      </trkpt>
      <trkpt lat="47.64799" lon="-0.49615">
        <ele>21</ele>
        <time>2015-11-29T11:08:40Z</time>
      </trkpt>
      <trkpt lat="47.64799" lon="-0.49615">
        <ele>21</ele>
        <time>2015-11-29T11:08:45Z</time>
      </trkpt>
      <trkpt lat="47.64799" lon="-0.49614">
        <ele>21</ele>
        <time>2015-11-29T11:08:50Z</time>
      </trkpt>
      <trkpt lat="47.64799" lon="-0.49614">
        <ele>21</ele>
        <time>2015-11-29T11:08:55Z</time>
      </trkpt>
      <trkpt lat="47.64799" lon="-0.49614">
        <ele>21</ele>
        <time>2015-11-29T11:09:00Z</time>
      </trkpt>
      <trkpt lat="47.64799" lon="-0.49614">
        <ele>21</ele>
        <time>2015-11-29T11:09:05Z</time>
      </trkpt>
      <trkpt lat="47.64803" lon="-0.49609">
        <ele>21</ele>
        <time>2015-11-29T11:09:10Z</time>
      </trkpt>
      <trkpt lat="47.64809" lon="-0.49607">
        <ele>21</ele>
        <time>2015-11-29T11:09:15Z</time>
      </trkpt>
      <trkpt lat="47.64816" lon="-0.49606">
        <ele>21</ele>
        <time>2015-11-29T11:09:20Z</time>
      </trkpt>
      <trkpt lat="47.64822" lon="-0.49605">
        <ele>21</ele>
        <time>2015-11-29T11:09:25Z</time>
      </trkpt>
      <trkpt lat="47.64828" lon="-0.49604">
        <ele>21</ele>
        <time>2015-11-29T11:09:30Z</time>
      </trkpt>
      <trkpt lat="47.64835" lon="-0.49604">
        <ele>21</ele>
        <time>2015-11-29T11:09:35Z</time>
      </trkpt>
      <trkpt lat="47.6484" lon="-0.49603">
        <ele>21</ele>
        <time>2015-11-29T11:09:40Z</time>
      </trkpt>
      <trkpt lat="47.64846" lon="-0.49603">
        <ele>21</ele>
        <time>2015-11-29T11:09:45Z</time>
      </trkpt>
      <trkpt lat="47.64853" lon="-0.49601">
        <ele>21</ele>
        <time>2015-11-29T11:09:50Z</time>
      </trkpt>
      <trkpt lat="47.64859" lon="-0.49601">
        <ele>22</ele>
        <time>2015-11-29T11:09:55Z</time>
      </trkpt>
      <trkpt lat="47.64865" lon="-0.49601">
        <ele>22</ele>
        <time>2015-11-29T11:10:00Z</time>
      </trkpt>
      <trkpt lat="47.64871" lon="-0.496">
        <ele>22</ele>
        <time>2015-11-29T11:10:05Z</time>
      </trkpt>
      <trkpt lat="47.64878" lon="-0.49599">
        <ele>22</ele>
        <time>2015-11-29T11:10:10Z</time>
      </trkpt>
      <trkpt lat="47.64884" lon="-0.49599">
        <ele>22</ele>
        <time>2015-11-29T11:10:15Z</time>
      </trkpt>
      <trkpt lat="47.64889" lon="-0.49598">
        <ele>22</ele>
        <time>2015-11-29T11:10:20Z</time>
      </trkpt>
      <trkpt lat="47.64894" lon="-0.49598">
        <ele>23</ele>
        <time>2015-11-29T11:10:25Z</time>
      </trkpt>
      <trkpt lat="47.64901" lon="-0.49598">
        <ele>23</ele>
        <time>2015-11-29T11:10:30Z</time>
      </trkpt>
      <trkpt lat="47.64907" lon="-0.496">
        <ele>23</ele>
        <time>2015-11-29T11:10:35Z</time>
      </trkpt>
      <trkpt lat="47.64913" lon="-0.49601">
        <ele>23</ele>
        <time>2015-11-29T11:10:40Z</time>
      </trkpt>
      <trkpt lat="47.64921" lon="-0.49602">
        <ele>23</ele>
        <time>2015-11-29T11:10:45Z</time>
      </trkpt>
      <trkpt lat="47.64928" lon="-0.49604">
        <ele>23</ele>
        <time>2015-11-29T11:10:50Z</time>
      </trkpt>
      <trkpt lat="47.64935" lon="-0.49606">
        <ele>23</ele>
        <time>2015-11-29T11:10:55Z</time>
      </trkpt>
      <trkpt lat="47.64942" lon="-0.49607">
        <ele>23</ele>
        <time>2015-11-29T11:11:00Z</time>
      </trkpt>
      <trkpt lat="47.64948" lon="-0.49609">
        <ele>23</ele>
        <time>2015-11-29T11:11:05Z</time>
      </trkpt>
      <trkpt lat="47.64954" lon="-0.4961">
        <ele>23</ele>
        <time>2015-11-29T11:11:10Z</time>
      </trkpt>
      <trkpt lat="47.64961" lon="-0.49612">
        <ele>23</ele>
        <time>2015-11-29T11:11:15Z</time>
      </trkpt>
      <trkpt lat="47.64968" lon="-0.49614">
        <ele>23</ele>
        <time>2015-11-29T11:11:20Z</time>
      </trkpt>
      <trkpt lat="47.64975" lon="-0.49617">
        <ele>22</ele>
        <time>2015-11-29T11:11:25Z</time>
      </trkpt>
      <trkpt lat="47.64981" lon="-0.49618">
        <ele>22</ele>
        <time>2015-11-29T11:11:30Z</time>
      </trkpt>
      <trkpt lat="47.64988" lon="-0.49621">
        <ele>22</ele>
        <time>2015-11-29T11:11:35Z</time>
      </trkpt>
      <trkpt lat="47.64994" lon="-0.49624">
        <ele>22</ele>
        <time>2015-11-29T11:11:40Z</time>
      </trkpt>
      <trkpt lat="47.65001" lon="-0.49626">
        <ele>22</ele>
        <time>2015-11-29T11:11:45Z</time>
      </trkpt>
      <trkpt lat="47.65007" lon="-0.49628">
        <ele>22</ele>
        <time>2015-11-29T11:11:50Z</time>
      </trkpt>
      <trkpt lat="47.65012" lon="-0.49632">
        <ele>22</ele>
        <time>2015-11-29T11:11:55Z</time>
      </trkpt>
      <trkpt lat="47.65017" lon="-0.49635">
        <ele>22</ele>
        <time>2015-11-29T11:12:00Z</time>
      </trkpt>
      <trkpt lat="47.65024" lon="-0.49637">
        <ele>22</ele>
        <time>2015-11-29T11:12:05Z</time>
      </trkpt>
      <trkpt lat="47.65029" lon="-0.49639">
        <ele>22</ele>
        <time>2015-11-29T11:12:10Z</time>
      </trkpt>
      <trkpt lat="47.65036" lon="-0.49641">
        <ele>22</ele>
        <time>2015-11-29T11:12:15Z</time>
      </trkpt>
      <trkpt lat="47.65041" lon="-0.49645">
        <ele>22</ele>
        <time>2015-11-29T11:12:20Z</time>
      </trkpt>
      <trkpt lat="47.65048" lon="-0.49647">
        <ele>22</ele>
        <time>2015-11-29T11:12:25Z</time>
      </trkpt>
      <trkpt lat="47.65054" lon="-0.4965">
        <ele>22</ele>
        <time>2015-11-29T11:12:30Z</time>
      </trkpt>
      <trkpt lat="47.6506" lon="-0.49651">
        <ele>22</ele>
        <time>2015-11-29T11:12:35Z</time>
      </trkpt>
      <trkpt lat="47.65067" lon="-0.49654">
        <ele>22</ele>
        <time>2015-11-29T11:12:40Z</time>
      </trkpt>
      <trkpt lat="47.65073" lon="-0.49657">
        <ele>23</ele>
        <time>2015-11-29T11:12:45Z</time>
      </trkpt>
      <trkpt lat="47.6508" lon="-0.49659">
        <ele>23</ele>
        <time>2015-11-29T11:12:50Z</time>
      </trkpt>
      <trkpt lat="47.65086" lon="-0.49661">
        <ele>23</ele>
        <time>2015-11-29T11:12:55Z</time>
      </trkpt>
      <trkpt lat="47.65092" lon="-0.49664">
        <ele>23</ele>
        <time>2015-11-29T11:13:00Z</time>
      </trkpt>
      <trkpt lat="47.65098" lon="-0.49666">
        <ele>23</ele>
        <time>2015-11-29T11:13:05Z</time>
      </trkpt>
      <trkpt lat="47.65103" lon="-0.49667">
        <ele>23</ele>
        <time>2015-11-29T11:13:10Z</time>
      </trkpt>
      <trkpt lat="47.65107" lon="-0.49662">
        <ele>23</ele>
        <time>2015-11-29T11:13:15Z</time>
      </trkpt>
      <trkpt lat="47.65108" lon="-0.49657">
        <ele>23</ele>
        <time>2015-11-29T11:13:20Z</time>
      </trkpt>
      <trkpt lat="47.65111" lon="-0.49651">
        <ele>23</ele>
        <time>2015-11-29T11:13:25Z</time>
      </trkpt>
      <trkpt lat="47.65113" lon="-0.49644">
        <ele>23</ele>
        <time>2015-11-29T11:13:30Z</time>
      </trkpt>
      <trkpt lat="47.65115" lon="-0.49636">
        <ele>23</ele>
        <time>2015-11-29T11:13:35Z</time>
      </trkpt>
      <trkpt lat="47.65117" lon="-0.49629">
        <ele>23</ele>
        <time>2015-11-29T11:13:40Z</time>
      </trkpt>
      <trkpt lat="47.65119" lon="-0.4962">
        <ele>23</ele>
        <time>2015-11-29T11:13:45Z</time>
      </trkpt>
      <trkpt lat="47.6512" lon="-0.49611">
        <ele>24</ele>
        <time>2015-11-29T11:13:50Z</time>
      </trkpt>
      <trkpt lat="47.65123" lon="-0.49606">
        <ele>24</ele>
        <time>2015-11-29T11:13:55Z</time>
      </trkpt>
      <trkpt lat="47.65126" lon="-0.496">
        <ele>24</ele>
        <time>2015-11-29T11:14:00Z</time>
      </trkpt>
      <trkpt lat="47.65129" lon="-0.49592">
        <ele>24</ele>
        <time>2015-11-29T11:14:05Z</time>
      </trkpt>
      <trkpt lat="47.65132" lon="-0.49585">
        <ele>24</ele>
        <time>2015-11-29T11:14:10Z</time>
      </trkpt>
      <trkpt lat="47.65136" lon="-0.49578">
        <ele>24</ele>
        <time>2015-11-29T11:14:15Z</time>
      </trkpt>
      <trkpt lat="47.65139" lon="-0.49572">
        <ele>24</ele>
        <time>2015-11-29T11:14:20Z</time>
      </trkpt>
      <trkpt lat="47.65142" lon="-0.49565">
        <ele>25</ele>
        <time>2015-11-29T11:14:25Z</time>
      </trkpt>
      <trkpt lat="47.65147" lon="-0.49557">
        <ele>25</ele>
        <time>2015-11-29T11:14:30Z</time>
      </trkpt>
      <trkpt lat="47.65151" lon="-0.4955">
        <ele>25</ele>
        <time>2015-11-29T11:14:35Z</time>
      </trkpt>
      <trkpt lat="47.65155" lon="-0.49543">
        <ele>25</ele>
        <time>2015-11-29T11:14:40Z</time>
      </trkpt>
      <trkpt lat="47.65159" lon="-0.49536">
        <ele>25</ele>
        <time>2015-11-29T11:14:45Z</time>
      </trkpt>
      <trkpt lat="47.65163" lon="-0.49531">
        <ele>25</ele>
        <time>2015-11-29T11:14:50Z</time>
      </trkpt>
      <trkpt lat="47.65167" lon="-0.49523">
        <ele>25</ele>
        <time>2015-11-29T11:14:55Z</time>
      </trkpt>
      <trkpt lat="47.65171" lon="-0.49517">
        <ele>25</ele>
        <time>2015-11-29T11:15:00Z</time>
      </trkpt>
      <trkpt lat="47.65175" lon="-0.49513">
        <ele>25</ele>
        <time>2015-11-29T11:15:05Z</time>
      </trkpt>
      <trkpt lat="47.65181" lon="-0.49513">
        <ele>25</ele>
        <time>2015-11-29T11:15:10Z</time>
      </trkpt>
      <trkpt lat="47.65186" lon="-0.49513">
        <ele>25</ele>
        <time>2015-11-29T11:15:15Z</time>
      </trkpt>
      <trkpt lat="47.65192" lon="-0.49514">
        <ele>25</ele>
        <time>2015-11-29T11:15:20Z</time>
      </trkpt>
      <trkpt lat="47.65199" lon="-0.49515">
        <ele>25</ele>
        <time>2015-11-29T11:15:25Z</time>
      </trkpt>
      <trkpt lat="47.65206" lon="-0.49516">
        <ele>25</ele>
        <time>2015-11-29T11:15:30Z</time>
      </trkpt>
      <trkpt lat="47.65211" lon="-0.49517">
        <ele>25</ele>
        <time>2015-11-29T11:15:35Z</time>
      </trkpt>
      <trkpt lat="47.65216" lon="-0.49518">
        <ele>24</ele>
        <time>2015-11-29T11:15:40Z</time>
      </trkpt>
      <trkpt lat="47.65222" lon="-0.49519">
        <ele>24</ele>
        <time>2015-11-29T11:15:45Z</time>
      </trkpt>
      <trkpt lat="47.65228" lon="-0.49519">
        <ele>24</ele>
        <time>2015-11-29T11:15:50Z</time>
      </trkpt>
      <trkpt lat="47.65233" lon="-0.49517">
        <ele>24</ele>
        <time>2015-11-29T11:15:55Z</time>
      </trkpt>
      <trkpt lat="47.65239" lon="-0.49515">
        <ele>24</ele>
        <time>2015-11-29T11:16:00Z</time>
      </trkpt>
      <trkpt lat="47.65246" lon="-0.49512">
        <ele>24</ele>
        <time>2015-11-29T11:16:05Z</time>
      </trkpt>
      <trkpt lat="47.65251" lon="-0.49508">
        <ele>24</ele>
        <time>2015-11-29T11:16:10Z</time>
      </trkpt>
      <trkpt lat="47.65257" lon="-0.49505">
        <ele>24</ele>
        <time>2015-11-29T11:16:15Z</time>
      </trkpt>
      <trkpt lat="47.65263" lon="-0.495">
        <ele>24</ele>
        <time>2015-11-29T11:16:20Z</time>
      </trkpt>
      <trkpt lat="47.6527" lon="-0.49496">
        <ele>24</ele>
        <time>2015-11-29T11:16:25Z</time>
      </trkpt>
      <trkpt lat="47.65276" lon="-0.49491">
        <ele>24</ele>
        <time>2015-11-29T11:16:30Z</time>
      </trkpt>
      <trkpt lat="47.65281" lon="-0.49486">
        <ele>24</ele>
        <time>2015-11-29T11:16:35Z</time>
      </trkpt>
      <trkpt lat="47.65287" lon="-0.49482">
        <ele>24</ele>
        <time>2015-11-29T11:16:40Z</time>
      </trkpt>
      <trkpt lat="47.65292" lon="-0.49478">
        <ele>24</ele>
        <time>2015-11-29T11:16:45Z</time>
      </trkpt>
      <trkpt lat="47.65298" lon="-0.49476">
        <ele>24</ele>
        <time>2015-11-29T11:16:50Z</time>
      </trkpt>
      <trkpt lat="47.65304" lon="-0.49479">
        <ele>24</ele>
        <time>2015-11-29T11:16:55Z</time>
      </trkpt>
      <trkpt lat="47.65308" lon="-0.49485">
        <ele>25</ele>
        <time>2015-11-29T11:17:00Z</time>
      </trkpt>
      <trkpt lat="47.65313" lon="-0.49491">
        <ele>25</ele>
        <time>2015-11-29T11:17:05Z</time>
      </trkpt>
      <trkpt lat="47.65317" lon="-0.49497">
        <ele>25</ele>
        <time>2015-11-29T11:17:10Z</time>
      </trkpt>
      <trkpt lat="47.65319" lon="-0.49499">
        <ele>25</ele>
        <time>2015-11-29T11:17:15Z</time>
      </trkpt>
      <trkpt lat="47.65322" lon="-0.49496">
        <ele>25</ele>
        <time>2015-11-29T11:17:20Z</time>
      </trkpt>
      <trkpt lat="47.65324" lon="-0.49493">
        <ele>25</ele>
        <time>2015-11-29T11:17:25Z</time>
      </trkpt>
      <trkpt lat="47.65325" lon="-0.49493">
        <ele>25</ele>
        <time>2015-11-29T11:17:30Z</time>
      </trkpt>
      <trkpt lat="47.65326" lon="-0.49493">
        <ele>25</ele>
        <time>2015-11-29T11:17:35Z</time>
      </trkpt>
      <trkpt lat="47.65326" lon="-0.49492">
        <ele>25</ele>
        <time>2015-11-29T11:17:40Z</time>
      </trkpt>
      <trkpt lat="47.65327" lon="-0.49489">
        <ele>25</ele>
        <time>2015-11-29T11:17:45Z</time>
      </trkpt>
      <trkpt lat="47.65329" lon="-0.49489">
        <ele>24</ele>
        <time>2015-11-29T11:17:50Z</time>
      </trkpt>
      <trkpt lat="47.65328" lon="-0.4949">
        <ele>25</ele>
        <time>2015-11-29T11:17:55Z</time>
      </trkpt>
      <trkpt lat="47.65326" lon="-0.49489">
        <ele>25</ele>
        <time>2015-11-29T11:18:00Z</time>
      </trkpt>
      <trkpt lat="47.65326" lon="-0.49489">
        <ele>25</ele>
        <time>2015-11-29T11:18:05Z</time>
      </trkpt>
      <trkpt lat="47.65326" lon="-0.49489">
        <ele>25</ele>
        <time>2015-11-29T11:18:10Z</time>
      </trkpt>
      <trkpt lat="47.65326" lon="-0.49488">
        <ele>25</ele>
        <time>2015-11-29T11:18:15Z</time>
      </trkpt>
      <trkpt lat="47.65326" lon="-0.49487">
        <ele>24</ele>
        <time>2015-11-29T11:18:20Z</time>
      </trkpt>
      <trkpt lat="47.65328" lon="-0.49488">
        <ele>24</ele>
        <time>2015-11-29T11:18:25Z</time>
      </trkpt>
      <trkpt lat="47.65331" lon="-0.49485">
        <ele>24</ele>
        <time>2015-11-29T11:18:30Z</time>
      </trkpt>
      <trkpt lat="47.65334" lon="-0.4948">
        <ele>24</ele>
        <time>2015-11-29T11:18:35Z</time>
      </trkpt>
      <trkpt lat="47.65338" lon="-0.49474">
        <ele>24</ele>
        <time>2015-11-29T11:18:40Z</time>
      </trkpt>
      <trkpt lat="47.65342" lon="-0.49468">
        <ele>24</ele>
        <time>2015-11-29T11:18:45Z</time>
      </trkpt>
      <trkpt lat="47.65345" lon="-0.49462">
        <ele>24</ele>
        <time>2015-11-29T11:18:50Z</time>
      </trkpt>
      <trkpt lat="47.65349" lon="-0.49456">
        <ele>23</ele>
        <time>2015-11-29T11:18:55Z</time>
      </trkpt>
      <trkpt lat="47.65353" lon="-0.49451">
        <ele>23</ele>
        <time>2015-11-29T11:19:00Z</time>
      </trkpt>
      <trkpt lat="47.65357" lon="-0.49445">
        <ele>23</ele>
        <time>2015-11-29T11:19:05Z</time>
      </trkpt>
      <trkpt lat="47.65361" lon="-0.49438">
        <ele>23</ele>
        <time>2015-11-29T11:19:10Z</time>
      </trkpt>
      <trkpt lat="47.65365" lon="-0.49432">
        <ele>22</ele>
        <time>2015-11-29T11:19:15Z</time>
      </trkpt>
      <trkpt lat="47.6537" lon="-0.49426">
        <ele>22</ele>
        <time>2015-11-29T11:19:20Z</time>
      </trkpt>
      <trkpt lat="47.65375" lon="-0.49421">
        <ele>22</ele>
        <time>2015-11-29T11:19:25Z</time>
      </trkpt>
      <trkpt lat="47.65379" lon="-0.49415">
        <ele>22</ele>
        <time>2015-11-29T11:19:30Z</time>
      </trkpt>
      <trkpt lat="47.65384" lon="-0.49412">
        <ele>21</ele>
        <time>2015-11-29T11:19:35Z</time>
      </trkpt>
      <trkpt lat="47.65391" lon="-0.49414">
        <ele>21</ele>
        <time>2015-11-29T11:19:40Z</time>
      </trkpt>
      <trkpt lat="47.65396" lon="-0.49418">
        <ele>21</ele>
        <time>2015-11-29T11:19:45Z</time>
      </trkpt>
      <trkpt lat="47.65402" lon="-0.49423">
        <ele>21</ele>
        <time>2015-11-29T11:19:50Z</time>
      </trkpt>
      <trkpt lat="47.65407" lon="-0.49426">
        <ele>21</ele>
        <time>2015-11-29T11:19:55Z</time>
      </trkpt>
      <trkpt lat="47.65413" lon="-0.49431">
        <ele>21</ele>
        <time>2015-11-29T11:20:00Z</time>
      </trkpt>
      <trkpt lat="47.65419" lon="-0.49436">
        <ele>21</ele>
        <time>2015-11-29T11:20:05Z</time>
      </trkpt>
      <trkpt lat="47.65424" lon="-0.49441">
        <ele>22</ele>
        <time>2015-11-29T11:20:10Z</time>
      </trkpt>
      <trkpt lat="47.6543" lon="-0.49445">
        <ele>22</ele>
        <time>2015-11-29T11:20:15Z</time>
      </trkpt>
      <trkpt lat="47.65434" lon="-0.49451">
        <ele>22</ele>
        <time>2015-11-29T11:20:20Z</time>
      </trkpt>
      <trkpt lat="47.6544" lon="-0.49457">
        <ele>22</ele>
        <time>2015-11-29T11:20:25Z</time>
      </trkpt>
      <trkpt lat="47.65445" lon="-0.49463">
        <ele>22</ele>
        <time>2015-11-29T11:20:30Z</time>
      </trkpt>
      <trkpt lat="47.65449" lon="-0.4947">
        <ele>22</ele>
        <time>2015-11-29T11:20:35Z</time>
      </trkpt>
      <trkpt lat="47.65452" lon="-0.49477">
        <ele>22</ele>
        <time>2015-11-29T11:20:40Z</time>
      </trkpt>
      <trkpt lat="47.65456" lon="-0.49484">
        <ele>22</ele>
        <time>2015-11-29T11:20:45Z</time>
      </trkpt>
      <trkpt lat="47.6546" lon="-0.4949">
        <ele>22</ele>
        <time>2015-11-29T11:20:50Z</time>
      </trkpt>
      <trkpt lat="47.65463" lon="-0.49495">
        <ele>22</ele>
        <time>2015-11-29T11:20:55Z</time>
      </trkpt>
      <trkpt lat="47.65468" lon="-0.49499">
        <ele>22</ele>
        <time>2015-11-29T11:21:00Z</time>
      </trkpt>
      <trkpt lat="47.65473" lon="-0.49503">
        <ele>22</ele>
        <time>2015-11-29T11:21:05Z</time>
      </trkpt>
      <trkpt lat="47.65478" lon="-0.49509">
        <ele>22</ele>
        <time>2015-11-29T11:21:10Z</time>
      </trkpt>
      <trkpt lat="47.65482" lon="-0.49514">
        <ele>22</ele>
        <time>2015-11-29T11:21:15Z</time>
      </trkpt>
      <trkpt lat="47.65487" lon="-0.49519">
        <ele>22</ele>
        <time>2015-11-29T11:21:20Z</time>
      </trkpt>
      <trkpt lat="47.65492" lon="-0.49525">
        <ele>22</ele>
        <time>2015-11-29T11:21:25Z</time>
      </trkpt>
      <trkpt lat="47.65498" lon="-0.49528">
        <ele>22</ele>
        <time>2015-11-29T11:21:30Z</time>
      </trkpt>
      <trkpt lat="47.65503" lon="-0.49532">
        <ele>22</ele>
        <time>2015-11-29T11:21:35Z</time>
      </trkpt>
      <trkpt lat="47.65508" lon="-0.49536">
        <ele>22</ele>
        <time>2015-11-29T11:21:40Z</time>
      </trkpt>
      <trkpt lat="47.65514" lon="-0.49541">
        <ele>22</ele>
        <time>2015-11-29T11:21:45Z</time>
      </trkpt>
      <trkpt lat="47.65519" lon="-0.49545">
        <ele>22</ele>
        <time>2015-11-29T11:21:50Z</time>
      </trkpt>
      <trkpt lat="47.65523" lon="-0.49548">
        <ele>22</ele>
        <time>2015-11-29T11:21:55Z</time>
      </trkpt>
      <trkpt lat="47.65524" lon="-0.49549">
        <ele>22</ele>
        <time>2015-11-29T11:22:00Z</time>
      </trkpt>
      <trkpt lat="47.65528" lon="-0.4955">
        <ele>22</ele>
        <time>2015-11-29T11:22:05Z</time>
      </trkpt>
      <trkpt lat="47.65533" lon="-0.49554">
        <ele>22</ele>
        <time>2015-11-29T11:22:10Z</time>
      </trkpt>
      <trkpt lat="47.65538" lon="-0.49558">
        <ele>22</ele>
        <time>2015-11-29T11:22:15Z</time>
      </trkpt>
      <trkpt lat="47.65543" lon="-0.49563">
        <ele>22</ele>
        <time>2015-11-29T11:22:20Z</time>
      </trkpt>
      <trkpt lat="47.65547" lon="-0.49567">
        <ele>22</ele>
        <time>2015-11-29T11:22:25Z</time>
      </trkpt>
      <trkpt lat="47.65552" lon="-0.49571">
        <ele>22</ele>
        <time>2015-11-29T11:22:30Z</time>
      </trkpt>
      <trkpt lat="47.65557" lon="-0.49575">
        <ele>22</ele>
        <time>2015-11-29T11:22:35Z</time>
      </trkpt>
      <trkpt lat="47.65563" lon="-0.49578">
        <ele>21</ele>
        <time>2015-11-29T11:22:40Z</time>
      </trkpt>
      <trkpt lat="47.65568" lon="-0.49583">
        <ele>21</ele>
        <time>2015-11-29T11:22:45Z</time>
      </trkpt>
      <trkpt lat="47.65572" lon="-0.49587">
        <ele>21</ele>
        <time>2015-11-29T11:22:50Z</time>
      </trkpt>
      <trkpt lat="47.65577" lon="-0.49592">
        <ele>21</ele>
        <time>2015-11-29T11:22:55Z</time>
      </trkpt>
      <trkpt lat="47.65582" lon="-0.49597">
        <ele>21</ele>
        <time>2015-11-29T11:23:00Z</time>
      </trkpt>
      <trkpt lat="47.65587" lon="-0.49601">
        <ele>21</ele>
        <time>2015-11-29T11:23:05Z</time>
      </trkpt>
      <trkpt lat="47.65592" lon="-0.49606">
        <ele>21</ele>
        <time>2015-11-29T11:23:10Z</time>
      </trkpt>
      <trkpt lat="47.65597" lon="-0.49611">
        <ele>21</ele>
        <time>2015-11-29T11:23:15Z</time>
      </trkpt>
      <trkpt lat="47.65602" lon="-0.49615">
        <ele>22</ele>
        <time>2015-11-29T11:23:20Z</time>
      </trkpt>
      <trkpt lat="47.65606" lon="-0.49619">
        <ele>22</ele>
        <time>2015-11-29T11:23:25Z</time>
      </trkpt>
      <trkpt lat="47.65611" lon="-0.49623">
        <ele>22</ele>
        <time>2015-11-29T11:23:30Z</time>
      </trkpt>
      <trkpt lat="47.65616" lon="-0.49628">
        <ele>22</ele>
        <time>2015-11-29T11:23:35Z</time>
      </trkpt>
      <trkpt lat="47.65621" lon="-0.49633">
        <ele>22</ele>
        <time>2015-11-29T11:23:40Z</time>
      </trkpt>
      <trkpt lat="47.65626" lon="-0.49637">
        <ele>22</ele>
        <time>2015-11-29T11:23:45Z</time>
      </trkpt>
      <trkpt lat="47.65631" lon="-0.49643">
        <ele>22</ele>
        <time>2015-11-29T11:23:50Z</time>
      </trkpt>
      <trkpt lat="47.65631" lon="-0.49651">
        <ele>22</ele>
        <time>2015-11-29T11:23:55Z</time>
      </trkpt>
      <trkpt lat="47.65629" lon="-0.4966">
        <ele>23</ele>
        <time>2015-11-29T11:24:00Z</time>
      </trkpt>
      <trkpt lat="47.65628" lon="-0.49668">
        <ele>23</ele>
        <time>2015-11-29T11:24:05Z</time>
      </trkpt>
      <trkpt lat="47.65625" lon="-0.49676">
        <ele>23</ele>
        <time>2015-11-29T11:24:10Z</time>
      </trkpt>
      <trkpt lat="47.65624" lon="-0.49684">
        <ele>24</ele>
        <time>2015-11-29T11:24:15Z</time>
      </trkpt>
      <trkpt lat="47.65622" lon="-0.49692">
        <ele>24</ele>
        <time>2015-11-29T11:24:20Z</time>
      </trkpt>
      <trkpt lat="47.65619" lon="-0.497">
        <ele>24</ele>
        <time>2015-11-29T11:24:25Z</time>
      </trkpt>
      <trkpt lat="47.65618" lon="-0.49708">
        <ele>25</ele>
        <time>2015-11-29T11:24:30Z</time>
      </trkpt>
      <trkpt lat="47.65616" lon="-0.49716">
        <ele>25</ele>
        <time>2015-11-29T11:24:35Z</time>
      </trkpt>
      <trkpt lat="47.65615" lon="-0.49715">
        <ele>25</ele>
        <time>2015-11-29T11:24:40Z</time>
      </trkpt>
      <trkpt lat="47.65615" lon="-0.49715">
        <ele>25</ele>
        <time>2015-11-29T11:24:45Z</time>
      </trkpt>
      <trkpt lat="47.65615" lon="-0.49712">
        <ele>25</ele>
        <time>2015-11-29T11:24:50Z</time>
      </trkpt>
      <trkpt lat="47.65614" lon="-0.49712">
        <ele>25</ele>
        <time>2015-11-29T11:24:55Z</time>
      </trkpt>
      <trkpt lat="47.65614" lon="-0.49711">
        <ele>25</ele>
        <time>2015-11-29T11:25:00Z</time>
      </trkpt>
      <trkpt lat="47.65614" lon="-0.49712">
        <ele>25</ele>
        <time>2015-11-29T11:25:05Z</time>
      </trkpt>
      <trkpt lat="47.65613" lon="-0.49712">
        <ele>25</ele>
        <time>2015-11-29T11:25:10Z</time>
      </trkpt>
      <trkpt lat="47.65614" lon="-0.49711">
        <ele>25</ele>
        <time>2015-11-29T11:25:15Z</time>
      </trkpt>
      <trkpt lat="47.65611" lon="-0.49709">
        <ele>25</ele>
        <time>2015-11-29T11:25:20Z</time>
      </trkpt>
      <trkpt lat="47.65608" lon="-0.49706">
        <ele>25</ele>
        <time>2015-11-29T11:25:25Z</time>
      </trkpt>
      <trkpt lat="47.65604" lon="-0.49702">
        <ele>25</ele>
        <time>2015-11-29T11:25:30Z</time>
      </trkpt>
      <trkpt lat="47.656" lon="-0.49698">
        <ele>25</ele>
        <time>2015-11-29T11:25:35Z</time>
      </trkpt>
      <trkpt lat="47.65596" lon="-0.49697">
        <ele>25</ele>
        <time>2015-11-29T11:25:40Z</time>
      </trkpt>
      <trkpt lat="47.65594" lon="-0.49697">
        <ele>25</ele>
        <time>2015-11-29T11:25:45Z</time>
      </trkpt>
      <trkpt lat="47.65593" lon="-0.49696">
        <ele>25</ele>
        <time>2015-11-29T11:25:50Z</time>
      </trkpt>
      <trkpt lat="47.6559" lon="-0.49697">
        <ele>25</ele>
        <time>2015-11-29T11:25:55Z</time>
      </trkpt>
      <trkpt lat="47.65589" lon="-0.497">
        <ele>26</ele>
        <time>2015-11-29T11:26:00Z</time>
      </trkpt>
      <trkpt lat="47.65588" lon="-0.497">
        <ele>26</ele>
        <time>2015-11-29T11:26:05Z</time>
      </trkpt>
      <trkpt lat="47.65587" lon="-0.49705">
        <ele>26</ele>
        <time>2015-11-29T11:26:10Z</time>
      </trkpt>
      <trkpt lat="47.65588" lon="-0.49711">
        <ele>26</ele>
        <time>2015-11-29T11:26:15Z</time>
      </trkpt>
      <trkpt lat="47.65587" lon="-0.49717">
        <ele>26</ele>
        <time>2015-11-29T11:26:20Z</time>
      </trkpt>
      <trkpt lat="47.65587" lon="-0.49722">
        <ele>26</ele>
        <time>2015-11-29T11:26:25Z</time>
      </trkpt>
      <trkpt lat="47.65585" lon="-0.49727">
        <ele>27</ele>
        <time>2015-11-29T11:26:30Z</time>
      </trkpt>
      <trkpt lat="47.65581" lon="-0.4973">
        <ele>27</ele>
        <time>2015-11-29T11:26:35Z</time>
      </trkpt>
      <trkpt lat="47.65581" lon="-0.49731">
        <ele>27</ele>
        <time>2015-11-29T11:26:40Z</time>
      </trkpt>
      <trkpt lat="47.65581" lon="-0.49738">
        <ele>27</ele>
        <time>2015-11-29T11:26:45Z</time>
      </trkpt>
      <trkpt lat="47.65582" lon="-0.49745">
        <ele>27</ele>
        <time>2015-11-29T11:26:50Z</time>
      </trkpt>
      <trkpt lat="47.65583" lon="-0.49752">
        <ele>27</ele>
        <time>2015-11-29T11:26:55Z</time>
      </trkpt>
      <trkpt lat="47.65579" lon="-0.49759">
        <ele>27</ele>
        <time>2015-11-29T11:27:00Z</time>
      </trkpt>
      <trkpt lat="47.65576" lon="-0.49763">
        <ele>28</ele>
        <time>2015-11-29T11:27:05Z</time>
      </trkpt>
      <trkpt lat="47.65572" lon="-0.49768">
        <ele>28</ele>
        <time>2015-11-29T11:27:10Z</time>
      </trkpt>
      <trkpt lat="47.65567" lon="-0.49773">
        <ele>28</ele>
        <time>2015-11-29T11:27:15Z</time>
      </trkpt>
      <trkpt lat="47.65563" lon="-0.4978">
        <ele>28</ele>
        <time>2015-11-29T11:27:20Z</time>
      </trkpt>
      <trkpt lat="47.65559" lon="-0.49784">
        <ele>28</ele>
        <time>2015-11-29T11:27:25Z</time>
      </trkpt>
      <trkpt lat="47.65558" lon="-0.49786">
        <ele>28</ele>
        <time>2015-11-29T11:27:30Z</time>
      </trkpt>
      <trkpt lat="47.65559" lon="-0.49786">
        <ele>28</ele>
        <time>2015-11-29T11:27:35Z</time>
      </trkpt>
      <trkpt lat="47.65556" lon="-0.49784">
        <ele>28</ele>
        <time>2015-11-29T11:27:40Z</time>
      </trkpt>
      <trkpt lat="47.65555" lon="-0.49782">
        <ele>28</ele>
        <time>2015-11-29T11:27:45Z</time>
      </trkpt>
      <trkpt lat="47.65555" lon="-0.4978">
        <ele>28</ele>
        <time>2015-11-29T11:27:50Z</time>
      </trkpt>
      <trkpt lat="47.65554" lon="-0.49782">
        <ele>28</ele>
        <time>2015-11-29T11:27:55Z</time>
      </trkpt>
      <trkpt lat="47.65551" lon="-0.49783">
        <ele>28</ele>
        <time>2015-11-29T11:28:00Z</time>
      </trkpt>
      <trkpt lat="47.65548" lon="-0.49784">
        <ele>28</ele>
        <time>2015-11-29T11:28:05Z</time>
      </trkpt>
      <trkpt lat="47.65547" lon="-0.49786">
        <ele>28</ele>
        <time>2015-11-29T11:28:10Z</time>
      </trkpt>
      <trkpt lat="47.65546" lon="-0.49787">
        <ele>28</ele>
        <time>2015-11-29T11:28:15Z</time>
      </trkpt>
      <trkpt lat="47.65546" lon="-0.49787">
        <ele>28</ele>
        <time>2015-11-29T11:28:20Z</time>
      </trkpt>
      <trkpt lat="47.65546" lon="-0.49786">
        <ele>28</ele>
        <time>2015-11-29T11:28:25Z</time>
      </trkpt>
      <trkpt lat="47.65546" lon="-0.49786">
        <ele>28</ele>
        <time>2015-11-29T11:28:30Z</time>
      </trkpt>
      <trkpt lat="47.65547" lon="-0.49789">
        <ele>28</ele>
        <time>2015-11-29T11:28:35Z</time>
      </trkpt>
      <trkpt lat="47.65547" lon="-0.49798">
        <ele>28</ele>
        <time>2015-11-29T11:28:40Z</time>
      </trkpt>
      <trkpt lat="47.65546" lon="-0.49806">
        <ele>28</ele>
        <time>2015-11-29T11:28:45Z</time>
      </trkpt>
      <trkpt lat="47.65543" lon="-0.49816">
        <ele>28</ele>
        <time>2015-11-29T11:28:50Z</time>
      </trkpt>
      <trkpt lat="47.65542" lon="-0.49826">
        <ele>28</ele>
        <time>2015-11-29T11:28:55Z</time>
      </trkpt>
      <trkpt lat="47.6554" lon="-0.49832">
        <ele>28</ele>
        <time>2015-11-29T11:29:00Z</time>
      </trkpt>
      <trkpt lat="47.65538" lon="-0.49839">
        <ele>28</ele>
        <time>2015-11-29T11:29:05Z</time>
      </trkpt>
      <trkpt lat="47.65538" lon="-0.49845">
        <ele>28</ele>
        <time>2015-11-29T11:29:10Z</time>
      </trkpt>
      <trkpt lat="47.65538" lon="-0.49852">
        <ele>28</ele>
        <time>2015-11-29T11:29:15Z</time>
      </trkpt>
      <trkpt lat="47.65539" lon="-0.49856">
        <ele>28</ele>
        <time>2015-11-29T11:29:18Z</time>
      </trkpt>
    </trkseg>
  </trk>
</gpx>